Date StartTime U_cm/s V_cm/s W_cm/s Ustd_cm/s Vstd_cm/s Wstd_cm/s Uvar_(cm/s)^2 Vvar_(cm/s)^2 Wvar_(cm/s)^2 KE_(m/s)^2 TurbulentKE_(m/s)^2 HorizWindSpeed_cm/s FrictionSpeec_cm/s DragCoef SpeedOfSound_m/s SonicTemperature_C Pressure_mb 
12/09/2013  00:00:00      -92.515      -17.867      -12.112       24.792       24.433       19.502      614.636      596.971      380.339        0.531        0.080       94.225       16.541        0.031      322.993      -14.261      869.721
12/09/2013  00:01:00      -50.952      -20.306       -2.526       42.694       35.340       23.187     1822.749     1248.942      537.626        0.331        0.180       54.849       21.307        0.151      323.073      -14.134      869.714
12/09/2013  00:02:00      -65.694      -10.168       -2.389       22.312       21.728       18.830      497.819      472.127      354.560        0.287        0.066       66.476        9.294        0.020      323.089      -14.108      869.720
12/09/2013  00:03:00      -39.373      -34.305      -12.613       37.818       29.475       20.162     1430.199      868.792      406.490        0.280        0.135       52.221       12.591        0.058      323.071      -14.135      869.714
12/09/2013  00:04:00      -20.384      -27.253        7.706       31.614       27.791       15.890      999.427      772.343      252.493        0.162        0.101       34.033       16.687        0.240      323.104      -14.084      869.693
12/09/2013  00:05:00      -39.385      -37.160        3.763       36.036       25.008       21.066     1298.603      625.411      443.762        0.266        0.118       54.149       20.223        0.139      323.088      -14.109      869.672
12/09/2013  00:06:00      -53.620      -54.421       -3.389       28.935       27.337       25.209      837.256      747.296      635.515        0.403        0.111       76.399       16.023        0.044      323.124      -14.052      869.662
12/09/2013  00:07:00      -43.599      -22.613        6.106       33.649       23.684       15.960     1132.257      560.917      254.708        0.220        0.097       49.114       11.386        0.054      323.151      -14.008      869.648
12/09/2013  00:08:00      -67.087      -36.190       -9.777       17.585       18.815       17.108      309.215      353.988      292.686        0.343        0.048       76.226        8.016        0.011      323.129      -14.043      869.648
12/09/2013  00:09:00      -80.378      -27.324       -7.708       21.358       21.835       15.103      456.166      476.747      228.094        0.421        0.058       84.896       10.365        0.015      323.097      -14.094      869.653
12/09/2013  00:10:00      -98.881      -19.284       -6.025       18.493       21.358       13.947      341.974      456.175      194.526        0.559        0.050      100.743       12.813        0.016      323.169      -13.980      869.646
12/09/2013  00:11:00      -93.285      -43.118       -5.498       30.566       21.684       15.026      934.292      470.193      225.769        0.611        0.082      102.768       14.319        0.019      323.140      -14.026      869.629
12/09/2013  00:12:00     -119.790      -32.894       -8.080       24.553       25.492       15.937      602.852      649.834      254.001        0.850        0.075      124.224       11.635        0.009      323.110      -14.074      869.616
12/09/2013  00:13:00     -124.453       -6.171       -9.345       22.500       13.807       11.425      506.268      190.641      130.539        0.822        0.041      124.605       12.037        0.009      323.088      -14.110      869.621
12/09/2013  00:14:00      -81.889       -2.677       -7.673       34.243       22.853       17.339     1172.611      522.242      300.639        0.438        0.100       81.933       18.834        0.053      323.114      -14.066      869.647
12/09/2013  00:15:00      -84.390       -0.579       -5.889       22.927       16.805       16.631      525.644      282.417      276.592        0.412        0.054       84.392       15.378        0.033      323.117      -14.064      869.684
12/09/2013  00:16:00     -108.050        5.328       -9.803       28.608       15.363       18.820      818.419      236.019      354.182        0.660        0.070      108.181       19.318        0.032      323.083      -14.117      869.711
12/09/2013  00:17:00     -124.211       15.001       -9.736       35.281       20.611       19.313     1244.753      424.810      373.002        0.890        0.102      125.114       20.733        0.027      323.055      -14.163      869.737
12/09/2013  00:18:00     -128.046       10.641      -11.476       17.437       14.199       13.864      304.064      201.600      192.204        0.867        0.035      128.487        8.968        0.005      323.031      -14.200      869.751
12/09/2013  00:19:00      -74.832      -12.071      -13.694       24.747       19.242       13.781      612.437      370.259      189.916        0.355        0.059       75.799       11.669        0.024      323.005      -14.242      869.756
12/09/2013  00:20:00      -60.902      -17.216       -8.563       16.400        8.727        6.544      268.966       76.153       42.828        0.223        0.019       63.289        2.887        0.002      322.970      -14.298      869.751
12/09/2013  00:21:00      -33.435       -8.826      -12.920        9.932        7.837       10.071       98.652       61.415      101.419        0.081        0.013       34.580        4.771        0.019      323.133      -14.037      869.741
12/09/2013  00:22:00      -14.223        5.736       -1.485       10.056        7.043        6.162      101.120       49.611       37.974        0.021        0.009       15.336        4.161        0.074      323.184      -13.956      869.736
12/09/2013  00:23:00       18.290       11.166        1.090        8.968       13.392        5.606       80.429      179.350       31.433        0.038        0.015       21.429        4.598        0.046      323.371      -13.655      869.744
12/09/2013  00:24:00       38.638       24.825       -2.422        9.207        8.653        7.001       84.776       74.874       49.017        0.116        0.010       45.926        3.800        0.007      323.402      -13.605      869.767
12/09/2013  00:25:00       24.050       42.608        0.868        9.701       14.211        9.704       94.116      201.940       94.177        0.139        0.020       48.927        9.609        0.039      323.309      -13.756      869.785
12/09/2013  00:26:00       37.764       30.673       -1.623       13.708       10.910        9.249      187.911      119.036       85.546        0.138        0.020       48.651        6.147        0.016      323.335      -13.712      869.795
12/09/2013  00:27:00       40.743       25.544        1.519       10.368       10.210        9.052      107.489      104.243       81.934        0.130        0.015       48.089        5.689        0.014      323.302      -13.767      869.788
12/09/2013  00:28:00       40.688       29.010        4.820        9.930        8.119        7.969       98.611       65.920       63.497        0.137        0.011       49.971        6.417        0.016      323.211      -13.911      869.782
12/09/2013  00:29:00       56.884       28.254        2.639        8.840        9.997       10.566       78.152       99.948      111.634        0.217        0.014       63.515        6.121        0.009      323.196      -13.937      869.792
12/09/2013  00:30:00       80.965       43.063        5.349       10.608       12.066        9.346      112.530      145.593       87.344        0.439        0.017       91.705        3.885        0.002      323.211      -13.913      869.810
12/09/2013  00:31:00       62.715       57.847        2.798       18.050       16.615       11.145      325.799      276.062      124.211        0.401        0.036       85.320        8.011        0.009      323.190      -13.946      869.829
12/09/2013  00:32:00       51.044       40.443       18.623       11.198       12.217       11.295      125.405      149.265      127.580        0.250        0.020       65.124        6.352        0.010      323.152      -14.006      869.840
12/09/2013  00:33:00       51.248       37.442        4.393       10.898       14.919       10.841      118.768      222.575      117.517        0.225        0.023       63.469        6.260        0.010      323.164      -13.987      869.843
12/09/2013  00:34:00       41.107       15.596       -3.499       18.997       14.067       11.094      360.882      197.884      123.087        0.131        0.034       43.967       10.656        0.059      323.218      -13.902      869.855
12/09/2013  00:35:00       27.792       23.273        3.671       16.745       18.312       11.957      280.405      335.313      142.964        0.104        0.038       36.249        7.961        0.048      323.227      -13.888      869.879
12/09/2013  00:36:00       28.872       49.244       -8.726       10.880       18.441        7.623      118.367      340.085       58.114        0.193        0.026       57.084        8.269        0.021      323.194      -13.939      869.899
12/09/2013  00:37:00       21.886       31.864        1.585       12.143       20.306       13.130      147.444      412.327      172.394        0.111        0.037       38.656       12.587        0.106      323.211      -13.912      869.915
12/09/2013  00:38:00       26.697       53.479       -7.372       16.286       26.000       11.939      265.219      676.011      142.546        0.236        0.054       59.772        8.101        0.018      323.274      -13.811      869.917
12/09/2013  00:39:00       24.989       21.820        4.073       21.071       14.269       12.066      444.004      203.611      145.580        0.096        0.040       33.175        8.319        0.063      323.316      -13.744      869.927
12/09/2013  00:40:00       38.801       47.102       -5.738       22.070       24.244       15.870      487.097      587.788      251.849        0.254        0.066       61.026       11.482        0.035      323.375      -13.648      869.938
12/09/2013  00:41:00       40.712       36.863       -3.338       20.325       20.992       16.912      413.106      440.654      286.002        0.208        0.057       54.921        6.805        0.015      323.398      -13.611      869.937
12/09/2013  00:42:00       53.022       37.042       -2.044       22.791       22.738       12.968      519.410      517.034      168.177        0.270        0.060       64.680       11.549        0.032      323.415      -13.585      869.922
12/09/2013  00:43:00       61.359       33.593        7.135       11.483       17.477       12.338      131.867      305.442      152.229        0.277        0.029       69.953        5.200        0.006      323.427      -13.565      869.917
12/09/2013  00:44:00       49.667       13.162        8.961       13.737       10.036        9.932      188.693      100.723       98.652        0.155        0.019       51.382        6.127        0.014      323.458      -13.516      869.911
12/09/2013  00:45:00       43.692       20.946        5.284       16.918       16.695        8.528      286.222      278.711       72.727        0.151        0.032       48.454        8.185        0.029      323.430      -13.560      869.902
12/09/2013  00:46:00       30.217       21.229        2.808       14.493       17.154       14.314      210.053      294.250      204.904        0.104        0.035       36.929       11.468        0.096      323.425      -13.569      869.901
12/09/2013  00:47:00       45.605       26.875        1.649       13.767       12.668       10.465      189.527      160.487      109.520        0.163        0.023       52.934        8.589        0.026      323.427      -13.564      869.898
12/09/2013  00:48:00       35.737       33.270       -3.806       15.038       14.496        7.661      226.128      210.140       58.696        0.145        0.025       48.826        5.142        0.011      323.462      -13.509      869.891
12/09/2013  00:49:00       27.548       33.505       -4.013       14.950       16.597        9.668      223.501      275.476       93.471        0.124        0.030       43.376        7.410        0.029      323.449      -13.531      869.873
12/09/2013  00:50:00       16.605       40.185       -4.849        6.487       19.498       10.522       42.076      380.153      110.715        0.122        0.027       43.481        8.529        0.038      323.460      -13.512      869.872
12/09/2013  00:51:00       26.738       53.354       -4.942       11.480       18.390       10.095      131.800      338.194      101.907        0.208        0.029       59.679        3.730        0.004      323.434      -13.555      869.888
12/09/2013  00:52:00       25.083       31.223       -4.447       12.959       17.327       12.242      167.937      300.228      149.856        0.112        0.031       40.051       11.183        0.078      323.436      -13.551      869.913
12/09/2013  00:53:00       19.908       44.587      -10.328       12.773       10.562        6.265      163.157      111.554       39.247        0.140        0.016       48.830        6.046        0.015      323.448      -13.532      869.918
12/09/2013  00:54:00       14.099       36.259       -8.071        7.070       10.943        5.847       49.981      119.746       34.187        0.089        0.010       38.904        6.275        0.026      323.477      -13.482      869.897
12/09/2013  00:55:00       17.330       28.380       -2.873        7.766        7.592        3.818       60.318       57.633       14.580        0.062        0.007       33.253        2.553        0.006      323.477      -13.483      869.880
12/09/2013  00:56:00       11.775       29.332       -3.288        5.691        7.387        6.608       32.386       54.565       43.662        0.057        0.007       31.607        4.430        0.020      323.490      -13.460      869.874
12/09/2013  00:57:00       11.824       36.913       -7.120        8.699        5.327        4.268       75.667       28.380       18.216        0.084        0.006       38.760        3.099        0.006      323.507      -13.436      869.869
12/09/2013  00:58:00       18.224       30.265       -1.083        7.899       14.139        8.573       62.396      199.908       73.498        0.079        0.017       35.329        7.535        0.045      323.523      -13.412      869.863
12/09/2013  00:59:00       23.087       34.457       -7.415        9.287        5.593        4.814       86.248       31.283       23.171        0.096        0.007       41.477        1.815        0.002      323.561      -13.347      869.848
12/09/2013  01:00:00        9.698        7.496        6.186       12.263        9.323       10.785      150.379       86.922      116.310        0.027        0.018       12.258        7.777        0.402      323.553      -13.363      869.816
12/09/2013  01:01:00      -28.827       -6.189       -1.090       16.535        9.805        7.778      273.417       96.137       60.505        0.065        0.022       29.484        6.750        0.052      323.403      -13.604      869.783
12/09/2013  01:02:00      -31.410       -9.975       -1.126        6.935        9.399        6.865       48.100       88.338       47.132        0.064        0.009       32.956        5.957        0.033      323.250      -13.850      869.761
12/09/2013  01:03:00      -32.496       -8.654       -1.022        7.056        7.878        8.400       49.789       62.070       70.564        0.066        0.009       33.629        3.216        0.009      323.357      -13.676      869.754
12/09/2013  01:04:00      -28.990       -7.459        1.190       10.336        6.001        6.672      106.842       36.006       44.514        0.054        0.009       29.934        5.927        0.039      323.419      -13.579      869.755
12/09/2013  01:05:00      -37.043       -2.619       -3.230       10.221        7.381        6.320      104.468       54.478       39.936        0.079        0.010       37.136        4.379        0.014      323.480      -13.481      869.744
12/09/2013  01:06:00      -69.661      -15.721       -8.184       14.130       10.883        7.805      199.667      118.438       60.921        0.277        0.019       71.413        1.823        0.001      323.371      -13.654      869.716
12/09/2013  01:07:00      -80.400      -32.747       -7.309       16.428       12.924       10.378      269.884      167.042      107.707        0.407        0.027       86.813        5.696        0.004      323.298      -13.773      869.696
12/09/2013  01:08:00      -84.101      -28.855       -7.143       22.318       15.551        9.841      498.074      241.842       96.841        0.440        0.042       88.914        6.191        0.005      323.316      -13.742      869.695
12/09/2013  01:09:00      -96.917      -21.974       -5.557       22.878       22.296       16.147      523.383      497.113      260.717        0.559        0.064       99.377       13.290        0.018      323.168      -13.981      869.707
12/09/2013  01:10:00      -81.291      -31.516        6.653       35.409       23.797       14.056     1253.789      566.321      197.566        0.483        0.101       87.186       13.599        0.024      323.244      -13.858      869.708
12/09/2013  01:11:00      -94.472      -35.152        2.067       29.879       23.348       13.054      892.756      545.122      170.412        0.589        0.080      100.800        7.469        0.005      323.269      -13.818      869.713
12/09/2013  01:12:00      -80.394      -39.360        1.366       45.268       27.444       16.140     2049.218      753.179      260.497        0.554        0.153       89.512       13.608        0.023      323.247      -13.853      869.732
12/09/2013  01:13:00      -76.548      -29.728        2.436       55.640       25.768       22.485     3095.858      663.993      505.561        0.551        0.213       82.118       25.804        0.099      323.269      -13.819      869.762
12/09/2013  01:14:00      -68.700      -53.613       -4.750       42.066       26.812       19.786     1769.580      718.910      391.479        0.525        0.144       87.144       18.278        0.044      323.282      -13.798      869.776
12/09/2013  01:15:00      -52.282      -46.127       11.532       42.152       26.410       20.475     1776.754      697.498      419.212        0.394        0.145       69.721       22.119        0.101      323.272      -13.813      869.794
12/09/2013  01:16:00      -56.996      -55.040       -5.918       49.817       21.517       26.061     2481.715      462.998      679.182        0.497        0.181       79.234       29.158        0.135      323.365      -13.663      869.827
12/09/2013  01:17:00      -70.546      -64.690        4.588       43.046       36.705       23.631     1852.941     1347.242      558.446        0.647        0.188       95.716       19.045        0.040      323.244      -13.859      869.861
12/09/2013  01:18:00      -64.807      -63.158       -0.706       37.975       30.871       22.311     1442.119      953.007      497.790        0.554        0.145       90.493       20.120        0.049      323.258      -13.837      869.882
12/09/2013  01:19:00      -94.416      -61.764        2.071       44.848       25.164       21.329     2011.385      633.220      454.914        0.792        0.155      112.824        8.682        0.006      323.196      -13.935      869.907
12/09/2013  01:20:00      -77.486      -56.690       -2.052       51.096       25.805       24.118     2610.834      665.904      581.690        0.654        0.193       96.010       22.911        0.057      323.059      -14.156      869.920
12/09/2013  01:21:00      -54.674      -53.036       10.057       56.805       28.958       29.772     3226.756      838.571      886.386        0.543        0.248       76.171       29.809        0.153      323.048      -14.173      869.920
12/09/2013  01:22:00      -57.601      -32.064        2.449       48.516       25.215       22.852     2353.813      635.814      522.195        0.393        0.176       65.924       19.574        0.088      322.956      -14.319      869.908
12/09/2013  01:23:00      -81.236      -30.303       -1.454       20.574       19.103       17.016      423.272      364.931      289.536        0.430        0.054       86.704       11.799        0.019      322.889      -14.427      869.911
12/09/2013  01:24:00      -75.879      -16.418       -4.774       21.001       22.285       14.479      441.026      496.617      209.635        0.360        0.057       77.635        6.943        0.008      322.868      -14.461      869.909
12/09/2013  01:25:00     -122.149        3.605      -11.458       20.591       17.203       14.264      424.008      295.950      203.455        0.799        0.046      122.202       10.248        0.007      322.709      -14.716      869.908
12/09/2013  01:26:00      -98.410       -9.035       -0.548       36.457       22.495       18.189     1329.114      506.035      330.848        0.597        0.108       98.824       17.233        0.030      322.745      -14.657      869.906
12/09/2013  01:27:00     -117.892      -22.565       -4.601       35.441       25.176       16.439     1256.075      633.822      270.237        0.829        0.108      120.032       16.185        0.018      322.782      -14.599      869.923
12/09/2013  01:28:00     -115.843      -14.674      -14.438       28.719       21.803       17.710      824.793      475.379      313.642        0.773        0.081      116.769       11.850        0.010      322.788      -14.589      869.952
12/09/2013  01:29:00     -118.722      -43.655       -7.290       34.854       31.363       19.915     1214.830      983.620      396.613        0.932        0.130      126.494       15.179        0.014      322.770      -14.618      869.969
12/09/2013  01:30:00     -131.836      -45.934       -2.847       31.727       33.519       15.952     1006.585     1123.524      254.461        1.094        0.119      139.609       15.929        0.013      322.809      -14.556      869.973
12/09/2013  01:31:00     -119.114      -43.898      -15.970       25.580       22.491       18.405      654.353      505.861      338.743        0.893        0.075      126.945       10.200        0.006      322.796      -14.578      869.981
12/09/2013  01:32:00      -82.783      -55.355       -7.952       45.735       29.379       17.368     2091.726      863.149      301.633        0.662        0.163       99.585        9.043        0.008      322.828      -14.524      869.986
12/09/2013  01:33:00      -83.340      -35.128        1.169       24.607       28.102       14.923      605.512      789.700      222.709        0.490        0.081       90.441       11.825        0.017      322.855      -14.482      870.007
12/09/2013  01:34:00     -101.145      -27.379       -4.297       33.426       32.529       18.311     1117.277     1058.111      335.279        0.675        0.126      104.785       18.959        0.033      322.793      -14.582      870.036
12/09/2013  01:35:00     -111.174      -25.883       -0.723       32.477       33.543       18.802     1054.738     1125.119      353.499        0.778        0.127      114.147       16.867        0.022      322.818      -14.541      870.053
12/09/2013  01:36:00     -147.076        5.941      -16.275       38.106       27.810       20.474     1452.095      773.378      419.200        1.229        0.132      147.195       17.971        0.015      322.717      -14.704      870.042
12/09/2013  01:37:00     -139.850      -32.917      -13.500       40.305       31.140       21.778     1624.460      969.677      474.261        1.195        0.153      143.671       18.438        0.016      322.680      -14.762      870.037
12/09/2013  01:38:00     -122.286      -29.096      -10.944       30.835       31.109       17.975      950.770      967.756      323.095        0.908        0.112      125.700       12.068        0.009      322.758      -14.637      870.039
12/09/2013  01:39:00     -148.547      -40.722       -8.191       48.312       50.388       21.855     2334.076     2538.956      477.642        1.457        0.268      154.028       16.331        0.011      322.640      -14.825      870.052
12/09/2013  01:40:00     -169.030        0.360      -15.388       41.491       43.247       28.378     1721.534     1870.261      805.330        1.660        0.220      169.031       21.064        0.016      322.500      -15.049      870.051
12/09/2013  01:41:00     -149.803        1.753      -11.135       60.562       32.788       26.507     3667.712     1075.081      702.597        1.401        0.272      149.813       29.224        0.038      322.495      -15.059      870.042
12/09/2013  01:42:00     -141.073        8.247       -6.975       50.202       30.677       26.959     2520.192      941.094      726.808        1.210        0.209      141.314       25.682        0.033      322.535      -14.993      870.041
12/09/2013  01:43:00     -133.533       -0.297       -9.365       48.886       28.240       23.214     2389.804      797.517      538.906        1.082        0.186      133.534       18.762        0.020      322.597      -14.895      870.046
12/09/2013  01:44:00     -122.322       -0.173       -8.562       19.547       22.599       16.218      382.067      510.727      263.013        0.810        0.058      122.322       12.346        0.010      322.585      -14.915      870.047
12/09/2013  01:45:00     -116.128      -11.563      -13.087        9.294       18.370        9.289       86.383      337.469       86.282        0.715        0.026      116.702        3.004        0.001      322.625      -14.849      870.048
12/09/2013  01:46:00     -106.780      -24.580       -9.844       22.965       16.192       13.500      527.375      262.180      182.245        0.654        0.049      109.573       13.401        0.015      322.799      -14.572      870.047
12/09/2013  01:47:00     -113.985      -17.796      -10.714       14.801       17.619       11.879      219.077      310.440      141.106        0.705        0.034      115.366        6.813        0.003      322.842      -14.504      870.056
12/09/2013  01:48:00     -104.193      -32.786       -8.786       19.196       16.399       13.289      368.492      268.913      176.605        0.641        0.041      109.229        9.954        0.008      322.945      -14.338      870.085
12/09/2013  01:49:00     -110.653      -13.748      -10.257       21.619       14.232       10.144      467.378      202.541      102.906        0.666        0.039      111.504        6.700        0.004      322.889      -14.427      870.104
12/09/2013  01:50:00     -123.391      -15.584      -14.472       17.400       14.017       10.305      302.760      196.482      106.194        0.814        0.030      124.371        9.809        0.006      322.725      -14.691      870.110
12/09/2013  01:51:00     -114.088      -17.525      -10.072       26.136       13.887       13.720      683.065      192.856      188.245        0.724        0.053      115.426       10.484        0.008      322.726      -14.688      870.124
12/09/2013  01:52:00      -91.853      -12.830       -4.181       24.294       15.614       17.181      590.216      243.810      295.173        0.487        0.056       92.745       14.541        0.025      322.686      -14.752      870.150
12/09/2013  01:53:00      -78.798      -13.094       -4.580       38.568       20.953       15.172     1487.467      439.020      230.180        0.428        0.108       79.878       14.630        0.034      322.704      -14.724      870.162
12/09/2013  01:54:00      -82.477      -14.715        0.922       46.105       28.610       18.688     2125.632      818.519      349.229        0.516        0.165       83.780       22.109        0.070      322.688      -14.748      870.161
12/09/2013  01:55:00      -78.378      -22.970       -3.282       47.422       27.391       19.688     2248.879      750.284      387.631        0.503        0.169       81.675       18.810        0.053      322.664      -14.788      870.161
12/09/2013  01:56:00      -68.887      -39.244       -0.976       42.989       39.641       24.973     1848.019     1571.403      623.673        0.516        0.202       79.281       23.791        0.090      322.627      -14.847      870.168
12/09/2013  01:57:00     -100.435      -35.756       -1.118       38.866       29.742       23.172     1510.599      884.594      536.943        0.715        0.147      106.610       21.646        0.041      322.527      -15.007      870.175
12/09/2013  01:58:00     -132.211      -38.462       -6.286       42.813       36.193       22.529     1832.949     1309.928      507.551        1.132        0.183      137.692       20.435        0.022      322.369      -15.262      870.164
12/09/2013  01:59:00     -163.830      -21.975      -15.136       37.213       38.638       22.347     1384.843     1492.914      499.392        1.546        0.169      165.297       19.435        0.014      322.321      -15.337      870.146
12/09/2013  02:00:00     -178.968        4.827      -16.438       34.447       31.523       19.888     1186.568      993.707      395.546        1.745        0.129      179.033       14.231        0.006      322.296      -15.376      870.142
12/09/2013  02:01:00     -159.418       -2.523      -19.278       35.153       25.346       18.585     1235.729      642.430      345.398        1.401        0.111      159.438       14.541        0.008      322.320      -15.338      870.152
12/09/2013  02:02:00     -151.998       22.844      -16.749       35.466       29.061       27.341     1257.869      844.563      747.550        1.338        0.142      153.705       22.018        0.021      322.317      -15.343      870.193
12/09/2013  02:03:00     -146.383       19.156      -15.120       30.818       31.209       24.307      949.755      974.003      590.822        1.227        0.126      147.631       18.123        0.015      322.327      -15.328      870.253
12/09/2013  02:04:00     -133.173        7.630      -13.906       33.572       29.072       21.445     1127.083      845.175      459.872        1.021        0.122      133.392       15.869        0.014      322.365      -15.266      870.291
12/09/2013  02:05:00     -139.634      -14.376      -16.209       29.177       37.718       16.992      851.320     1422.629      288.742        1.126        0.128      140.372       12.968        0.009      322.505      -15.043      870.312
12/09/2013  02:06:00     -130.762        2.656       -3.116       43.148       31.980       27.355     1861.728     1022.737      748.315        1.037        0.182      130.789       27.508        0.044      322.461      -15.114      870.335
12/09/2013  02:07:00      -96.157      -18.858        1.766       37.187       30.922       21.983     1382.845      956.185      483.256        0.621        0.141       97.989       19.325        0.039      322.530      -15.001      870.358
12/09/2013  02:08:00      -83.719      -26.657        1.519       29.242       32.508       18.359      855.095     1056.774      337.054        0.498        0.112       87.861       18.289        0.043      322.524      -15.012      870.374
12/09/2013  02:09:00      -81.778      -12.661       -3.228       22.767       23.750       16.218      518.314      564.059      263.031        0.410        0.067       82.752       10.023        0.015      322.575      -14.930      870.388
12/09/2013  02:10:00      -98.548       -9.276       -6.441       23.397       20.368       19.658      547.439      414.845      386.442        0.559        0.067       98.983       12.938        0.017      322.583      -14.917      870.428
12/09/2013  02:11:00      -93.335      -14.657       -5.844       23.487       17.547       13.108      551.652      307.888      171.811        0.500        0.052       94.479       10.257        0.012      322.470      -15.099      870.463
12/09/2013  02:12:00      -88.218      -10.449       -3.243       20.798       19.025       12.627      432.566      361.961      159.430        0.443        0.048       88.835       10.629        0.014      322.424      -15.173      870.506
12/09/2013  02:13:00      -70.735      -19.557       -4.858       23.495       15.429       10.049      551.994      238.062      100.987        0.315        0.045       73.389        6.120        0.007      322.396      -15.219      870.536
12/09/2013  02:14:00      -29.852      -18.599       -1.913       20.245       12.017        8.405      409.878      144.412       70.636        0.093        0.031       35.172        8.174        0.054      322.532      -15.001      870.564
12/09/2013  02:15:00       -2.815      -23.067       -2.895        8.529       11.270       10.099       72.746      127.023      101.987        0.043        0.015       23.238        3.072        0.017      322.766      -14.623      870.573
12/09/2013  02:16:00      -15.017      -12.464        2.096       12.111        9.611        8.911      146.676       92.372       79.397        0.035        0.016       19.516        7.957        0.166      322.651      -14.809      870.593
12/09/2013  02:17:00      -29.629      -10.812       -5.727       11.127        9.091        9.462      123.820       82.641       89.535        0.066        0.015       31.540        6.128        0.038      322.608      -14.877      870.633
12/09/2013  02:18:00       -4.858        0.411       -6.661       17.601        8.643        7.700      309.807       74.693       59.296        0.026        0.022        4.875        9.708        3.965      322.757      -14.640      870.693
12/09/2013  02:19:00       36.620       22.508        5.909       14.896        9.500        9.412      221.878       90.250       88.590        0.114        0.020       42.984        8.337        0.038      322.960      -14.314      870.729
12/09/2013  02:20:00       30.775       14.093        4.558       10.366        9.900        6.629      107.456       98.016       43.941        0.071        0.012       33.848        2.603        0.006      322.919      -14.381      870.738
12/09/2013  02:21:00        5.651       11.130        7.815        7.886        6.978        8.096       62.186       48.687       65.543        0.020        0.009       12.482        6.252        0.251      322.952      -14.326      870.737
12/09/2013  02:22:00      -10.528        1.130        8.178        6.455        3.839        6.562       41.667       14.736       43.058        0.014        0.005       10.588        2.091        0.039      322.789      -14.590      870.741
12/09/2013  02:23:00        0.107      -10.163       13.772        5.266       13.397        6.602       27.730      179.468       43.590        0.027        0.013       10.163        4.965        0.239      322.892      -14.423      870.735
12/09/2013  02:24:00       -4.202      -25.321        2.840       10.285       16.679        9.579      105.782      278.180       91.760        0.057        0.024       25.667        5.758        0.050      322.740      -14.666      870.722
12/09/2013  02:25:00      -29.756      -11.635        5.699       21.577       10.816        8.399      465.573      116.983       70.551        0.085        0.033       31.950        8.070        0.064      322.598      -14.895      870.705
12/09/2013  02:26:00      -59.733      -20.340       -7.447       10.352       10.078       11.491      107.157      101.562      132.045        0.219        0.017       63.101        4.296        0.005      322.522      -15.016      870.691
12/09/2013  02:27:00      -79.275       -3.489       -8.494       15.505       10.746        9.488      240.406      115.471       90.022        0.341        0.022       79.352        8.157        0.011      322.553      -14.965      870.691
12/09/2013  02:28:00     -110.462       -6.260      -14.861       15.369       11.057       11.253      236.218      122.259      126.635        0.647        0.024      110.639        8.895        0.006      322.435      -15.155      870.701
12/09/2013  02:29:00     -119.448       -4.959      -12.705       30.081       15.005       17.282      904.884      225.143      298.682        0.794        0.071      119.551       18.993        0.025      322.340      -15.307      870.716
12/09/2013  02:30:00     -112.635      -13.823       -7.782       36.761       27.099       21.801     1351.347      734.378      475.272        0.775        0.128      113.480       21.109        0.035      322.350      -15.291      870.741
12/09/2013  02:31:00     -124.445      -22.250       -2.750       44.257       27.622       21.677     1958.700      762.954      469.905        0.959        0.160      126.419       21.758        0.030      322.323      -15.334      870.763
12/09/2013  02:32:00     -132.116      -37.583       -8.537       40.146       36.257       23.602     1611.688     1314.591      557.053        1.121        0.174      137.358       14.576        0.011      322.244      -15.461      870.764
12/09/2013  02:33:00     -147.417      -64.831       -7.112       43.415       32.788       25.632     1884.868     1075.029      657.010        1.480        0.181      161.043       18.884        0.014      322.202      -15.527      870.751
12/09/2013  02:34:00     -108.539      -26.033       -7.528       59.593       30.007       24.641     3551.327      900.410      607.156        0.879        0.253      111.618       20.208        0.033      322.243      -15.461      870.745
12/09/2013  02:35:00     -139.042      -22.796       -9.927       28.017       28.662       17.698      784.968      821.514      313.228        1.093        0.096      140.898       13.204        0.009      322.155      -15.602      870.753
12/09/2013  02:36:00     -121.752       -9.059       -7.171       37.538       28.596       23.632     1409.082      817.758      558.479        0.887        0.139      122.089       23.642        0.037      322.130      -15.642      870.774
12/09/2013  02:37:00     -144.155        3.653      -12.916       38.111       31.307       23.507     1452.435      980.137      552.579        1.197        0.149      144.201       22.368        0.024      322.075      -15.731      870.796
12/09/2013  02:38:00     -135.258       -7.228      -10.415       35.447       24.600       15.014     1256.504      605.161      225.414        1.027        0.104      135.451       14.976        0.012      322.048      -15.774      870.811
12/09/2013  02:39:00     -122.684       -6.592       -6.808       49.994       30.148       19.764     2499.402      908.890      390.625        0.947        0.190      122.861       17.561        0.020      321.980      -15.881      870.790
12/09/2013  02:40:00     -107.990      -25.284       -1.501       40.561       41.052       24.326     1645.233     1685.290      591.769        0.811        0.196      110.910       19.888        0.032      321.962      -15.911      870.776
12/09/2013  02:41:00     -132.146      -15.645       -1.955       53.513       41.480       29.761     2863.666     1720.551      885.717        1.159        0.273      133.069       28.976        0.047      321.897      -16.014      870.775
12/09/2013  02:42:00      -95.146      -23.863       -1.455       40.832       35.773       22.700     1667.268     1279.721      515.301        0.654        0.173       98.093       19.181        0.038      321.950      -15.929      870.765
12/09/2013  02:43:00     -149.136      -14.624       -4.080       43.607       27.317       26.938     1901.611      746.216      725.648        1.292        0.169      149.851       24.481        0.027      321.906      -16.000      870.747
12/09/2013  02:44:00     -115.810      -33.073       -6.270       47.742       44.186       17.969     2279.255     1952.381      322.870        0.955        0.228      120.440       12.503        0.011      321.915      -15.986      870.737
12/09/2013  02:45:00      -73.749      -25.919        4.291       31.059       29.902       17.710      964.656      894.154      313.660        0.415        0.109       78.171       14.476        0.034      322.023      -15.812      870.731
12/09/2013  02:46:00      -97.793      -13.905       -0.625       25.975       26.943       21.174      674.692      725.934      448.320        0.580        0.092       98.776       16.641        0.028      322.054      -15.764      870.736
12/09/2013  02:47:00      -95.201      -19.027       -2.783       25.746       17.223       19.939      662.869      296.623      397.551        0.539        0.068       97.084       13.961        0.021      322.133      -15.639      870.745
12/09/2013  02:48:00      -91.303      -25.289       -8.968       33.813       26.365       18.183     1143.296      695.105      330.608        0.561        0.108       94.741       20.489        0.047      322.078      -15.726      870.730
12/09/2013  02:49:00      -50.499      -26.643        0.792       47.390       33.080       24.280     2245.832     1094.261      589.498        0.359        0.196       57.097       16.814        0.087      322.327      -15.328      870.715
12/09/2013  02:50:00      -49.621      -14.871        8.208       33.703       24.803       25.773     1135.910      615.189      664.235        0.258        0.121       51.802       25.161        0.236      322.255      -15.442      870.706
12/09/2013  02:51:00      -98.823      -37.651      -11.139       18.583       19.082       13.046      345.344      364.116      170.193        0.609        0.044      105.752        8.797        0.007      322.295      -15.378      870.691
12/09/2013  02:52:00     -118.586      -36.941      -19.945       18.519       22.239       13.633      342.963      494.565      185.865        0.842        0.051      124.206        5.230        0.002      322.322      -15.335      870.659
12/09/2013  02:53:00     -111.060      -41.477       -8.702       19.827       23.300       12.551      393.123      542.911      157.530        0.761        0.055      118.552       10.443        0.008      322.380      -15.242      870.613
12/09/2013  02:54:00      -92.341       -8.580       -3.306       30.828       18.124       15.816      950.395      328.497      250.153        0.507        0.076       92.738       15.699        0.029      322.409      -15.197      870.586
12/09/2013  02:55:00      -54.248       -2.561        8.710       25.039       22.593       19.566      626.955      510.447      382.838        0.227        0.076       54.309       18.728        0.119      322.355      -15.284      870.598
12/09/2013  02:56:00      -52.099       -9.002       -2.178       18.061       12.961        8.590      326.217      167.986       73.793        0.168        0.028       52.871        6.762        0.016      322.468      -15.102      870.645
12/09/2013  02:57:00      -55.613      -10.969       -3.120       15.692       20.166       12.406      246.247      406.654      153.899        0.201        0.040       56.685        9.959        0.031      322.539      -14.988      870.682
12/09/2013  02:58:00      -38.877      -19.527        2.207       22.472       10.510       13.009      505.003      110.469      169.244        0.134        0.039       43.506       10.312        0.056      322.558      -14.957      870.697
12/09/2013  02:59:00      -56.529      -15.023       -7.975       13.446       15.014       10.633      180.808      225.425      113.058        0.200        0.026       58.491        4.624        0.006      322.524      -15.012      870.685
12/09/2013  03:00:00      -43.950       -6.825       -8.749       13.244       14.260        8.787      175.411      203.347       77.216        0.126        0.023       44.477        3.372        0.006      322.570      -14.938      870.676
12/09/2013  03:01:00      -93.257        3.186      -12.971       16.444        8.851       10.209      270.406       78.345      104.214        0.466        0.023       93.311        6.000        0.004      322.467      -15.104      870.665
12/09/2013  03:02:00     -106.476       -8.948      -11.532       17.558       19.802       13.230      308.291      392.108      175.028        0.621        0.044      106.851       10.134        0.009      322.449      -15.134      870.652
12/09/2013  03:03:00     -116.198      -14.468       -5.468       23.881       20.482       15.633      570.290      419.524      244.402        0.749        0.062      117.096       13.647        0.014      322.380      -15.242      870.629
12/09/2013  03:04:00     -109.707        1.306       -9.817       34.933       19.767       20.973     1220.291      390.743      439.847        0.709        0.103      109.715       20.381        0.035      322.328      -15.327      870.607
12/09/2013  03:05:00      -92.789       -0.472       -2.282       49.603       22.094       20.812     2460.482      488.154      433.151        0.600        0.169       92.790       23.906        0.066      322.295      -15.377      870.591
12/09/2013  03:06:00     -132.397        3.411       -8.132       20.744       17.235       16.562      430.316      297.036      274.315        0.930        0.050      132.441       12.470        0.009      322.175      -15.569      870.594
12/09/2013  03:07:00     -109.578        3.325      -11.115       31.529       18.897       18.240      994.104      357.101      332.690        0.691        0.084      109.628       19.433        0.031      322.165      -15.585      870.623
12/09/2013  03:08:00      -74.485       -1.772       -5.815       29.895       24.906       16.894      893.686      620.322      285.397        0.369        0.090       74.506       12.446        0.028      322.215      -15.504      870.660
12/09/2013  03:09:00      -51.011      -14.122       -4.019       19.260       16.505       13.860      370.957      272.411      192.087        0.183        0.042       52.930        9.342        0.031      322.289      -15.387      870.687
12/09/2013  03:10:00      -51.216      -14.395       -4.414       29.663       19.594       13.494      879.891      383.914      182.087        0.215        0.072       53.201        7.237        0.019      322.304      -15.364      870.716
12/09/2013  03:11:00      -70.353      -21.413      -16.880       18.591       16.861       14.558      345.641      284.310      211.931        0.327        0.042       73.540       10.466        0.020      322.187      -15.550      870.735
12/09/2013  03:12:00      -71.582      -16.062      -10.562       24.595       17.554       17.177      604.919      308.127      295.051        0.335        0.060       73.362        8.460        0.013      322.209      -15.516      870.737
12/09/2013  03:13:00      -71.037      -23.580       -6.227       17.135       25.173       14.175      293.604      633.668      200.929        0.338        0.056       74.848        7.507        0.010      322.193      -15.540      870.733
12/09/2013  03:14:00      -57.051       -5.586      -11.034       18.699       12.076       11.862      349.644      145.820      140.705        0.202        0.032       57.324        7.446        0.017      322.243      -15.460      870.734
12/09/2013  03:15:00      -38.799      -17.432      -15.511       10.368       11.441        8.172      107.489      130.898       66.779        0.118        0.015       42.535        5.621        0.017      322.274      -15.411      870.738
12/09/2013  03:16:00      -49.163       -5.616       -5.026       10.427       12.486        9.572      108.725      155.893       91.619        0.141        0.018       49.483        7.153        0.021      322.129      -15.643      870.722
12/09/2013  03:17:00      -38.482       -3.704       -6.940       22.219        9.728        7.830      493.673       94.643       61.302        0.110        0.032       38.660        3.575        0.009      322.093      -15.702      870.710
12/09/2013  03:18:00      -12.998       -2.243       -0.168       18.764       12.431       10.106      352.103      154.535      102.138        0.039        0.030       13.190        9.688        0.539      322.324      -15.331      870.722
12/09/2013  03:19:00       17.217       19.049        6.349       25.731       22.967       12.819      662.094      527.506      164.332        0.103        0.068       25.677       11.728        0.209      322.589      -14.908      870.743
12/09/2013  03:20:00       -9.786       47.684       -1.973       17.147       22.918       12.858      294.035      525.232      165.325        0.168        0.049       48.678       12.385        0.065      322.648      -14.813      870.755
12/09/2013  03:21:00      -10.010       68.929       -4.909       13.980       15.220        8.451      195.434      231.660       71.426        0.269        0.025       69.652        9.673        0.019      322.701      -14.728      870.747
12/09/2013  03:22:00       -2.369       78.225       -4.471       11.360       13.879       10.830      129.046      192.618      117.283        0.329        0.022       78.261        8.915        0.013      322.728      -14.684      870.750
12/09/2013  03:23:00       -1.499       83.110       -5.008       16.464       13.946       12.650      271.048      194.500      160.020        0.378        0.031       83.123       11.220        0.018      322.684      -14.755      870.757
12/09/2013  03:24:00      -20.160       55.269       -3.851       19.330       20.762       14.234      373.633      431.068      202.612        0.224        0.050       58.831       13.498        0.053      322.535      -14.993      870.752
12/09/2013  03:25:00       -4.483       67.076        0.229       13.019       13.338       13.546      169.495      177.902      183.506        0.253        0.027       67.226        9.338        0.019      322.708      -14.717      870.738
12/09/2013  03:26:00        0.790       62.286       -0.832       16.134       13.006        8.137      260.300      169.164       66.207        0.219        0.025       62.291        8.694        0.019      322.782      -14.599      870.736
12/09/2013  03:27:00       -0.100       25.032        6.539       18.374       21.487       12.303      337.618      461.673      151.376        0.081        0.048       25.033       10.922        0.190      322.523      -15.014      870.754
12/09/2013  03:28:00      -15.844       22.893       -1.589       13.804       24.702       13.258      190.554      610.213      175.783        0.088        0.049       27.841        6.576        0.056      322.418      -15.183      870.777
12/09/2013  03:29:00      -30.493       -1.877       -0.106       11.954       10.783        8.658      142.902      116.281       74.957        0.063        0.017       30.551        3.861        0.016      322.266      -15.423      870.791
12/09/2013  03:30:00      -55.284       -6.921       -7.151       15.815       12.192       10.342      250.103      148.642      106.952        0.183        0.025       55.716        5.506        0.010      322.033      -15.798      870.795
12/09/2013  03:31:00      -44.332       -6.606      -10.125       19.791       16.142       11.029      391.702      260.578      121.643        0.144        0.039       44.822        7.558        0.028      322.173      -15.574      870.810
12/09/2013  03:32:00      -21.926       -2.658       -4.937       30.379       13.995       12.612      922.898      195.860      159.054        0.089        0.064       22.086       10.077        0.208      322.267      -15.423      870.821
12/09/2013  03:33:00       -6.378        5.269       -1.874       32.001       11.154       13.219     1024.068      124.421      174.745        0.070        0.066        8.273       11.865        2.057      322.472      -15.093      870.832
12/09/2013  03:34:00       11.134       13.044       -7.819       20.931       16.329       17.402      438.120      266.639      302.836        0.068        0.050       17.150       10.009        0.341      322.510      -15.034      870.843
12/09/2013  03:35:00      -43.482      -16.997       -4.654       24.044       12.843       10.095      578.092      164.949      101.907        0.152        0.042       46.686        5.620        0.014      322.221      -15.497      870.853
12/09/2013  03:36:00      -84.666      -10.608      -10.829        7.438       14.744        7.929       55.324      217.377       62.875        0.387        0.017       85.328        2.840        0.001      321.979      -15.882      870.868
12/09/2013  03:37:00      -66.082      -10.469      -10.275       12.672       10.909        8.664      160.580      119.013       75.064        0.247        0.018       66.907        3.340        0.002      322.143      -15.621      870.906
12/09/2013  03:38:00      -65.844       -7.390      -12.624       11.462        9.707        8.825      131.376       94.228       77.879        0.243        0.015       66.257        6.208        0.009      322.058      -15.758      870.941
12/09/2013  03:39:00      -63.909       -7.779      -13.697       11.690       11.716        8.116      136.663      137.259       65.866        0.234        0.017       64.381        1.674        0.001      322.055      -15.763      870.954
12/09/2013  03:40:00      -46.620       -9.376       -6.652       24.543       17.599       13.673      602.337      309.732      186.954        0.170        0.055       47.553       10.782        0.051      322.039      -15.789      870.966
12/09/2013  03:41:00      -91.867        6.588      -16.333       20.077       10.600       11.076      403.070      112.361      122.668        0.469        0.032       92.103        7.588        0.007      322.034      -15.797      870.983
12/09/2013  03:42:00      -64.944       -4.253      -14.068       19.586       14.909       14.728      383.620      222.287      216.900        0.263        0.041       65.083       10.411        0.026      322.025      -15.810      871.004
12/09/2013  03:43:00      -99.284        3.482       -8.279       17.009       13.339       10.432      289.295      177.933      108.828        0.526        0.029       99.345        7.713        0.006      321.953      -15.924      871.020
12/09/2013  03:44:00     -100.572        7.401      -13.798       25.618       17.410       13.349      656.271      303.123      178.183        0.575        0.057      100.844        8.707        0.007      321.929      -15.963      871.034
12/09/2013  03:45:00      -67.241      -15.601       -8.691       23.192       13.730       13.033      537.855      188.523      169.860        0.287        0.045       69.027       12.354        0.032      322.010      -15.833      871.055
12/09/2013  03:46:00      -76.724      -12.240       -8.435       19.117       20.409       14.069      365.442      416.531      197.927        0.354        0.049       77.694       11.010        0.020      321.977      -15.886      871.087
12/09/2013  03:47:00      -91.885      -25.564       -6.685       17.129       16.157       11.932      293.399      261.050      142.381        0.492        0.035       95.375        6.249        0.004      322.051      -15.770      871.119
12/09/2013  03:48:00      -89.688      -17.345       -7.922       17.411       18.851       15.506      303.138      355.342      240.428        0.465        0.045       91.350       12.080        0.017      322.007      -15.839      871.154
12/09/2013  03:49:00      -72.524      -13.398       -6.299       22.198       19.774       10.954      492.762      390.999      119.988        0.324        0.050       73.751        8.903        0.015      321.997      -15.856      871.195
12/09/2013  03:50:00      -65.624       -4.643       -8.658       16.148       11.526       12.662      260.760      132.860      160.317        0.248        0.028       65.788       11.334        0.030      322.067      -15.744      871.230
12/09/2013  03:51:00      -71.738        4.109      -12.558        9.543        7.379        6.835       91.064       54.455       46.722        0.276        0.010       71.856        5.653        0.006      322.072      -15.736      871.266
12/09/2013  03:52:00      -87.094        2.983       -6.338       12.389        6.779        9.240      153.495       45.952       85.371        0.396        0.014       87.145        4.533        0.003      322.106      -15.680      871.302
12/09/2013  03:53:00      -81.825       -3.974      -10.567       12.989       10.932       11.121      168.727      119.516      123.666        0.362        0.021       81.921        7.617        0.009      322.086      -15.711      871.316
12/09/2013  03:54:00      -79.812        4.790      -12.390       17.566        9.388       12.484      308.564       88.127      155.862        0.355        0.028       79.955        9.527        0.014      322.110      -15.673      871.316
12/09/2013  03:55:00      -90.170       -3.932      -16.253       21.389       10.803       10.853      457.504      116.699      117.793        0.455        0.035       90.256        9.431        0.011      322.088      -15.708      871.290
12/09/2013  03:56:00      -66.163       -2.965       -9.684       19.502       17.948       13.445      380.314      322.127      180.770        0.268        0.044       66.230        9.516        0.021      322.109      -15.676      871.265
12/09/2013  03:57:00      -67.630        0.726       -6.141       25.276        8.727        8.991      638.883       76.159       80.845        0.270        0.040       67.634        7.992        0.014      322.067      -15.744      871.248
12/09/2013  03:58:00      -35.958        1.380       -2.944       17.574        9.096        7.856      308.834       82.742       61.718        0.088        0.023       35.985        8.567        0.057      322.121      -15.657      871.249
12/09/2013  03:59:00      -75.985        1.143       -6.127       10.078       10.111        5.271      101.566      102.235       27.785        0.302        0.012       75.993        3.624        0.002      322.243      -15.460      871.252
12/09/2013  04:00:00      -62.509        8.085       -4.852        7.274        6.123        6.095       52.907       37.488       37.143        0.206        0.006       63.030        3.001        0.002      322.280      -15.403      871.255
12/09/2013  04:01:00      -54.068        3.831       -7.939        9.831       10.618        7.547       96.639      112.747       56.959        0.163        0.013       54.204        2.403        0.002      322.316      -15.345      871.266
12/09/2013  04:02:00      -42.862      -14.184       -3.502       12.532       16.308       12.657      157.044      265.956      160.206        0.132        0.029       45.148        9.647        0.046      322.313      -15.349      871.289
12/09/2013  04:03:00      -62.309      -12.989       -7.917       11.549       13.070        8.203      133.375      170.833       67.283        0.224        0.019       63.648        6.440        0.010      322.360      -15.276      871.297
12/09/2013  04:04:00      -51.825       -5.938      -13.583       11.172       10.040        6.623      124.815      100.795       43.864        0.159        0.013       52.164        3.716        0.005      322.325      -15.329      871.293
12/09/2013  04:05:00      -59.788      -14.390      -11.837       15.318       12.079        9.811      234.627      145.890       96.256        0.220        0.024       61.495        6.339        0.011      322.291      -15.384      871.296
12/09/2013  04:06:00      -58.663       -8.092       -9.070       12.129       11.097        9.152      147.104      123.144       83.751        0.197        0.018       59.218        4.099        0.005      322.186      -15.552      871.316
12/09/2013  04:07:00      -73.399       -4.593       -3.921       22.750       14.642       13.690      517.560      214.392      187.416        0.317        0.046       73.542       11.244        0.023      322.181      -15.561      871.347
12/09/2013  04:08:00      -82.622      -17.822       -5.222       21.284       17.563       14.259      453.024      308.472      203.322        0.407        0.048       84.522       12.639        0.022      322.161      -15.593      871.340
12/09/2013  04:09:00      -93.425      -13.902       -9.197       23.966       13.516       12.913      574.352      182.679      166.753        0.496        0.046       94.454       10.288        0.012      322.048      -15.773      871.323
12/09/2013  04:10:00      -97.020       -2.978       -9.292       38.726       14.385       18.345     1499.712      206.940      336.528        0.578        0.102       97.066       21.924        0.051      322.056      -15.761      871.320
12/09/2013  04:11:00     -118.292       -3.379      -15.136       13.067       13.436        9.632      170.748      180.520       92.767        0.734        0.022      118.340        4.935        0.002      322.060      -15.755      871.332
12/09/2013  04:12:00     -107.163       -6.012       -9.187       19.927       12.202       10.851      397.073      148.901      117.751        0.613        0.033      107.332        8.951        0.007      322.168      -15.582      871.338
12/09/2013  04:13:00      -98.616       -6.103       -9.558       21.799       23.372       15.469      475.204      546.268      239.303        0.556        0.063       98.804       12.780        0.017      322.192      -15.542      871.343
12/09/2013  04:14:00      -92.195      -19.553       -4.305       26.021       20.408       17.505      677.094      416.499      306.422        0.515        0.070       94.246       10.587        0.013      322.174      -15.572      871.349
12/09/2013  04:15:00      -89.844      -13.738       -2.663       25.118       16.240       14.054      630.895      263.737      197.501        0.468        0.055       90.888       14.348        0.025      322.127      -15.648      871.360
12/09/2013  04:16:00      -81.395        0.748        2.042       34.558       14.075       17.628     1194.224      198.105      310.755        0.417        0.085       81.399       21.221        0.068      322.198      -15.533      871.376
12/09/2013  04:17:00      -83.533       -4.470       -7.235       33.266       15.694       17.202     1106.656      246.307      295.915        0.435        0.082       83.652       19.095        0.052      322.244      -15.460      871.396
12/09/2013  04:18:00      -80.621       -9.923       -4.472       18.470       17.678       13.576      341.129      312.507      184.297        0.373        0.042       81.229       11.596        0.020      322.277      -15.407      871.435
12/09/2013  04:19:00      -84.517      -17.341       -0.062       20.501       16.982       11.337      420.288      288.384      128.529        0.414        0.042       86.278        7.929        0.008      322.340      -15.307      871.461
12/09/2013  04:20:00     -112.171      -28.134       -5.188       10.885       12.516        6.883      118.490      156.647       47.375        0.686        0.016      115.646        5.527        0.002      322.306      -15.359      871.463
12/09/2013  04:21:00     -100.642      -21.308       -0.790       22.161       20.082       15.312      491.101      403.295      234.466        0.586        0.056      102.873       12.380        0.014      322.278      -15.405      871.449
12/09/2013  04:22:00     -113.085      -12.948      -11.696       24.648       16.990       18.245      607.500      288.672      332.877        0.716        0.061      113.824       14.871        0.017      322.125      -15.650      871.449
12/09/2013  04:23:00     -127.020      -17.856      -11.464       16.248       12.331       11.867      263.984      152.047      140.833        0.857        0.028      128.269       10.466        0.007      322.042      -15.783      871.454
12/09/2013  04:24:00     -110.269       -5.894       -6.912       31.394       23.277       15.370      985.554      541.826      236.233        0.700        0.088      110.426       14.794        0.018      321.998      -15.854      871.462
12/09/2013  04:25:00      -99.300       -7.515       -3.578       28.909       24.736       21.320      835.739      611.875      454.534        0.592        0.095       99.584       21.579        0.047      322.020      -15.818      871.473
12/09/2013  04:26:00     -117.882       -4.159       -4.297       35.449       16.018       18.285     1256.657      256.569      334.359        0.789        0.092      117.955       18.280        0.024      321.967      -15.904      871.478
12/09/2013  04:27:00      -94.196       -9.791       -0.200       39.710       24.258       22.363     1576.855      588.446      500.083        0.582        0.133       94.703       22.695        0.057      322.023      -15.813      871.473
12/09/2013  04:28:00     -123.194       -8.307       -8.399       40.762       26.045       23.096     1661.549      678.346      533.403        0.909        0.144      123.474       23.377        0.036      322.048      -15.774      871.460
12/09/2013  04:29:00     -105.870       -5.652       -7.853       41.803       29.088       19.554     1747.463      846.111      382.341        0.714        0.149      106.021       22.425        0.045      322.012      -15.831      871.463
12/09/2013  04:30:00      -64.259      -24.952       -1.255       29.028       29.665       17.291      842.618      880.038      298.967        0.339        0.101       68.933        9.128        0.018      322.050      -15.770      871.464
12/09/2013  04:31:00      -70.897      -11.607       -2.777       35.041       36.165       23.551     1227.855     1307.883      554.653        0.413        0.155       71.841       21.498        0.090      321.980      -15.882      871.459
12/09/2013  04:32:00     -102.211        9.850       -4.245       47.837       36.674       26.776     2288.381     1345.005      716.951        0.746        0.218      102.685       25.166        0.060      321.928      -15.964      871.470
12/09/2013  04:33:00      -50.345       -1.674        6.902       49.543       46.229       22.606     2454.540     2137.141      511.015        0.384        0.255       50.373       26.795        0.283      321.916      -15.985      871.481
12/09/2013  04:34:00      -58.759      -13.325        3.929       44.508       28.705       24.756     1980.960      824.004      612.843        0.353        0.171       60.251       24.093        0.160      321.931      -15.960      871.498
12/09/2013  04:35:00      -81.040       10.007       -2.402       55.380       35.236       23.365     3066.903     1241.602      545.927        0.576        0.243       81.656       25.097        0.094      321.897      -16.014      871.516
12/09/2013  04:36:00      -69.509      -10.578       -4.898       44.965       36.001       21.978     2021.891     1296.089      483.030        0.438        0.190       70.309       18.354        0.068      321.883      -16.036      871.511
12/09/2013  04:37:00     -116.000        8.571       -4.649       60.078       43.426       27.968     3609.358     1885.848      782.191        0.991        0.314      116.317       30.831        0.070      321.834      -16.116      871.492
12/09/2013  04:38:00     -105.158       -6.010       -1.492       60.352       28.301       27.731     3642.411      800.960      769.014        0.815        0.261      105.329       32.919        0.098      321.812      -16.151      871.506
12/09/2013  04:39:00     -101.317        0.587       -5.770       58.571       24.973       24.618     3430.587      623.641      606.040        0.748        0.233      101.319       29.356        0.084      321.780      -16.202      871.537
12/09/2013  04:40:00      -80.556      -13.904       -6.873       36.127       33.940       18.108     1305.196     1151.924      327.907        0.476        0.139       81.747       16.392        0.040      321.784      -16.196      871.563
12/09/2013  04:41:00      -81.263       -7.737      -11.091       24.189       26.311       16.290      585.086      692.256      265.379        0.416        0.077       81.630       10.389        0.016      321.898      -16.013      871.568
12/09/2013  04:42:00      -60.899      -31.467       -6.798       27.221       23.015       21.251      740.978      529.670      451.622        0.323        0.086       68.549       18.325        0.071      321.934      -15.956      871.566
12/09/2013  04:43:00      -81.444      -27.299       -0.912       32.488       30.026       17.359     1055.445      901.553      301.335        0.482        0.113       85.897       15.710        0.033      321.845      -16.098      871.581
12/09/2013  04:44:00      -42.771      -13.356      -10.238       31.379       23.914       14.573      984.631      571.898      212.371        0.194        0.088       44.808       17.822        0.158      321.836      -16.112      871.612
12/09/2013  04:45:00       -2.994      -11.950        0.626       16.617       19.859       13.229      276.112      394.396      174.995        0.050        0.042       12.319       10.413        0.715      321.982      -15.878      871.613
12/09/2013  04:46:00      -44.120      -13.988       -6.044       20.593       16.052       12.365      424.074      257.656      152.906        0.151        0.042       46.284       10.969        0.056      322.068      -15.742      871.583
12/09/2013  04:47:00      -86.998      -29.107       -2.482       27.680       20.236       18.932      766.209      409.481      358.437        0.498        0.077       91.738        9.598        0.011      321.939      -15.949      871.551
12/09/2013  04:48:00     -115.879      -15.344      -13.486       15.439       11.656        9.998      238.365      135.852       99.959        0.716        0.024      116.890        7.677        0.004      321.743      -16.262      871.547
12/09/2013  04:49:00     -104.553      -23.322      -10.735       18.267       21.787       14.293      333.665      474.660      204.291        0.630        0.051      107.122        9.469        0.008      321.777      -16.206      871.547
12/09/2013  04:50:00     -123.118      -13.743      -17.233       23.470       17.507       15.028      550.858      306.479      225.836        0.836        0.054      123.883       15.153        0.015      321.754      -16.244      871.537
12/09/2013  04:51:00     -132.352      -13.930      -16.431       18.615       13.890       12.641      346.525      192.927      159.789        0.934        0.035      133.083        7.821        0.003      321.768      -16.220      871.522
12/09/2013  04:52:00     -111.113      -24.068      -17.677       17.475       18.738       14.995      305.378      351.104      224.858        0.706        0.044      113.690        5.725        0.003      321.825      -16.129      871.509
12/09/2013  04:53:00      -90.154      -10.918      -18.719       15.159       22.038       13.722      229.783      485.666      188.305        0.475        0.045       90.812       11.267        0.015      321.834      -16.116      871.525
12/09/2013  04:54:00      -86.961      -16.633      -16.543       13.152       14.797       10.018      172.970      218.958      100.364        0.430        0.025       88.538        7.391        0.007      321.771      -16.217      871.540
12/09/2013  04:55:00      -92.429       -8.199       -8.174       17.681       13.852       12.447      312.624      191.869      154.932        0.467        0.033       92.792        9.314        0.010      321.811      -16.152      871.546
12/09/2013  04:56:00      -71.890      -25.969       -7.674       21.834       22.793       17.844      476.708      519.520      318.416        0.361        0.066       76.437       15.217        0.040      321.871      -16.055      871.533
12/09/2013  04:57:00      -67.286      -32.193       -3.416       36.235       22.691       16.838     1312.962      514.894      283.520        0.384        0.106       74.591       14.295        0.037      321.965      -15.906      871.521
12/09/2013  04:58:00      -54.566      -10.566        2.864       33.128       23.930       14.713     1097.450      572.665      216.476        0.249        0.094       55.579       16.065        0.084      321.973      -15.893      871.502
12/09/2013  04:59:00      -65.226      -21.551       -3.723       28.776       19.926       17.652      828.047      397.054      311.593        0.313        0.077       68.694       15.404        0.050      321.932      -15.960      871.503
12/09/2013  05:00:00      -67.524      -10.490        5.807       31.471       18.773       18.964      990.412      352.423      359.629        0.320        0.085       68.334       13.827        0.041      321.905      -16.002      871.534
12/09/2013  05:01:00      -54.031      -22.847        9.025       39.074       27.319       14.932     1526.803      746.305      222.955        0.301        0.125       58.663       18.382        0.098      322.057      -15.760      871.568
12/09/2013  05:02:00      -60.345      -33.161        3.913       41.803       25.390       19.296     1747.472      644.658      372.347        0.376        0.138       68.856       18.743        0.074      322.068      -15.742      871.597
12/09/2013  05:03:00     -121.742      -40.702      -13.355       25.247       28.213       16.923      637.392      795.957      286.394        0.919        0.086      128.366       10.673        0.007      322.016      -15.826      871.623
12/09/2013  05:04:00     -106.078        6.581       -9.930       37.652       20.085       16.498     1417.686      403.418      272.181        0.674        0.105      106.281       17.343        0.027      321.915      -15.986      871.641
12/09/2013  05:05:00     -117.785       -7.650      -11.938       32.059       23.957       18.438     1027.790      573.924      339.943        0.801        0.097      118.033       17.942        0.023      321.941      -15.943      871.647
12/09/2013  05:06:00     -106.942      -29.367       -3.912       33.127       24.096       18.281     1097.369      580.601      334.206        0.716        0.101      110.901       17.119        0.024      321.969      -15.899      871.638
12/09/2013  05:07:00     -127.682      -49.929      -10.085       26.053       22.359       15.007      678.756      499.930      225.220        1.015        0.070      137.097       11.423        0.007      322.044      -15.780      871.634
12/09/2013  05:08:00      -83.859      -64.960        0.346       34.364       35.267       21.864     1180.916     1243.772      478.015        0.708        0.145      106.076       14.471        0.019      322.148      -15.613      871.635
12/09/2013  05:09:00      -96.619      -86.286        2.449       41.793       44.267       25.328     1746.670     1959.532      641.486        1.057        0.217      129.540       18.676        0.021      322.174      -15.572      871.655
12/09/2013  05:10:00     -108.436     -105.896       -7.296       44.836       35.322       24.904     2010.249     1247.632      620.228        1.345        0.194      151.567       23.952        0.025      322.159      -15.596      871.680
12/09/2013  05:11:00     -124.435     -102.580       -7.941       34.528       29.449       24.800     1192.170      867.253      615.052        1.437        0.134      161.266       22.289        0.019      322.204      -15.523      871.711
12/09/2013  05:12:00     -128.488      -88.909       -3.865       41.669       30.252       23.009     1736.318      915.166      529.422        1.380        0.159      156.250       21.118        0.018      322.209      -15.517      871.707
12/09/2013  05:13:00     -130.343      -73.483       -7.930       48.176       33.537       21.574     2320.901     1124.745      465.424        1.318        0.196      149.630       21.125        0.020      322.086      -15.714      871.690
12/09/2013  05:14:00     -145.416      -20.646       -6.123       49.171       37.936       21.554     2417.782     1439.158      464.574        1.296        0.216      146.875       23.789        0.026      321.969      -15.900      871.676
12/09/2013  05:15:00     -104.612      -20.356        3.539       45.327       30.929       29.378     2054.494      956.605      863.086        0.762        0.194      106.574       28.722        0.073      321.948      -15.932      871.667
12/09/2013  05:16:00     -148.638      -48.442       -1.695       27.171       30.751       16.183      738.281      945.608      261.897        1.319        0.097      156.333        8.680        0.003      322.064      -15.747      871.677
12/09/2013  05:17:00     -119.205      -47.801       -2.838       34.658       33.766       17.253     1201.187     1140.134      297.661        0.957        0.132      128.432       11.192        0.008      322.092      -15.702      871.695
12/09/2013  05:18:00      -75.796      -16.269       -6.332       40.884       23.752       18.219     1671.490      564.175      331.933        0.431        0.128       77.522       15.848        0.042      322.009      -15.835      871.707
12/09/2013  05:19:00      -59.991      -12.566        0.127       42.081       19.092       17.185     1770.836      364.494      295.312        0.309        0.122       61.293       20.894        0.116      322.054      -15.764      871.717
12/09/2013  05:20:00     -106.763      -29.990       -5.520       26.535       27.564       14.786      704.096      759.748      218.611        0.700        0.084      110.895       14.122        0.016      322.054      -15.763      871.708
12/09/2013  05:21:00     -101.598      -13.276       -2.340       27.991       21.041       16.055      783.496      442.720      257.761        0.599        0.074      102.462       11.958        0.014      322.092      -15.704      871.698
12/09/2013  05:22:00      -97.332        1.060       -2.528       32.860       20.497       18.104     1079.753      420.118      327.757        0.565        0.091       97.338       18.991        0.038      321.960      -15.913      871.704
12/09/2013  05:23:00      -90.952        9.555       -5.583       38.941       25.264       21.598     1516.432      638.256      466.482        0.551        0.131       91.453       21.759        0.057      321.951      -15.929      871.717
12/09/2013  05:24:00      -89.334      -15.806       -4.697       31.048       24.413       13.491      963.960      596.014      182.010        0.500        0.087       90.721       13.023        0.021      322.028      -15.806      871.729
12/09/2013  05:25:00      -87.154      -26.857       -3.219       23.210       20.935       12.442      538.688      438.265      154.807        0.473        0.057       91.198       12.507        0.019      321.998      -15.853      871.742
12/09/2013  05:26:00     -114.235      -18.550      -12.042       31.410       19.122       18.521      986.616      365.660      343.009        0.762        0.085      115.731       15.759        0.019      322.006      -15.840      871.740
12/09/2013  05:27:00     -111.043      -14.547       -8.526       33.678       23.814       15.884     1134.224      567.087      252.316        0.728        0.098      111.992       16.545        0.022      322.022      -15.816      871.752
12/09/2013  05:28:00      -91.451       -3.999       -8.331       33.459       27.052       22.326     1119.489      731.826      498.447        0.540        0.117       91.539       20.998        0.053      321.978      -15.886      871.795
12/09/2013  05:29:00      -97.420        0.628       -9.957       28.265       27.783       16.664      798.911      771.908      277.679        0.572        0.092       97.422       13.676        0.020      322.019      -15.819      871.831
12/09/2013  05:30:00     -136.625       13.869       -8.436       30.226       20.168       16.368      913.597      406.736      267.906        1.026        0.079      137.327       16.043        0.014      322.120      -15.660      871.856
12/09/2013  05:31:00     -138.175       14.384       -9.561       35.282       29.950       17.848     1244.794      896.982      318.566        1.093        0.123      138.922       13.860        0.010      322.183      -15.558      871.850
12/09/2013  05:32:00     -107.827       -7.370       -7.917       33.757       34.434       19.870     1139.525     1185.700      394.804        0.723        0.136      108.078       20.100        0.035      322.048      -15.773      871.861
12/09/2013  05:33:00      -92.014       -8.437       -9.960       30.660       30.714       17.377      940.032      943.367      301.966        0.541        0.109       92.400       11.418        0.015      321.962      -15.912      871.897
12/09/2013  05:34:00      -88.289      -18.107       -4.098       30.597       36.560       22.900      936.202     1336.657      524.398        0.547        0.140       90.126       18.551        0.042      321.898      -16.011      871.931
12/09/2013  05:35:00     -110.754      -26.828      -12.194       27.618       32.792       20.560      762.774     1075.296      422.702        0.770        0.113      113.957       11.366        0.010      321.862      -16.070      871.963
12/09/2013  05:36:00      -60.355      -47.178       -9.589       29.534       22.198       22.690      872.275      492.747      514.834        0.392        0.094       76.606       17.967        0.055      321.868      -16.061      871.992
12/09/2013  05:37:00      -39.840      -10.566       -3.162       38.068       28.179       20.778     1449.198      794.051      431.713        0.219        0.134       41.217        7.763        0.035      321.871      -16.055      872.010
12/09/2013  05:38:00      -80.463      -18.803        0.100       39.437       22.945       19.319     1555.266      526.458      373.229        0.464        0.123       82.631       18.349        0.049      321.756      -16.241      872.000
12/09/2013  05:39:00     -120.479      -35.980       -6.391       20.370       23.420       18.842      414.948      548.489      355.018        0.858        0.066      125.736       12.950        0.011      321.658      -16.396      871.984
12/09/2013  05:40:00     -102.806      -25.687       -2.330       23.213       21.855       13.231      538.849      477.626      175.047        0.621        0.060      105.967       12.612        0.014      321.603      -16.486      871.974
12/09/2013  05:41:00      -78.239       -9.763       -8.569       27.618       17.380       12.904      762.758      302.060      166.503        0.376        0.062       78.845       11.410        0.021      321.637      -16.431      871.978
12/09/2013  05:42:00      -89.414       -4.628       -7.321       18.826       15.892       11.659      354.415      252.556      135.921        0.441        0.037       89.534       10.672        0.014      321.690      -16.346      871.993
12/09/2013  05:43:00      -99.288       -7.153       -6.658       15.007       16.860       11.533      225.206      284.275      133.010        0.530        0.032       99.546        9.287        0.009      321.716      -16.306      871.997
12/09/2013  05:44:00     -109.140       -4.944      -12.901       24.089       12.925       12.622      580.286      167.066      159.317        0.650        0.045      109.252        8.821        0.007      321.685      -16.354      872.013
12/09/2013  05:45:00     -115.870      -16.644      -16.818       10.748       11.003        7.371      115.509      121.069       54.335        0.714        0.015      117.059        3.116        0.001      321.595      -16.498      872.034
12/09/2013  05:46:00     -110.138      -22.035      -14.993       27.216       16.038       14.452      740.719      257.213      208.859        0.702        0.060      112.321        8.611        0.006      321.551      -16.569      872.037
12/09/2013  05:47:00     -105.929       -4.610      -12.349       26.772       14.577       12.680      716.760      212.502      160.788        0.624        0.055      106.029       11.532        0.012      321.535      -16.594      872.035
12/09/2013  05:48:00     -115.944      -21.602      -10.351       18.530       18.961       10.809      343.375      359.519      116.830        0.742        0.041      117.940       10.028        0.007      321.557      -16.558      872.049
12/09/2013  05:49:00     -100.880      -36.737       -7.000       27.499       27.629       16.752      756.194      763.371      280.639        0.669        0.090      107.361       15.340        0.020      321.568      -16.540      872.077
12/09/2013  05:50:00     -116.820      -23.935      -12.692       26.888       27.276       21.355      722.942      743.985      456.024        0.815        0.096      119.247       14.751        0.015      321.509      -16.635      872.092
12/09/2013  05:51:00     -115.349      -32.074      -13.201       20.151       20.729       14.382      406.067      429.678      206.852        0.778        0.052      119.725       11.261        0.009      321.404      -16.803      872.110
12/09/2013  05:52:00     -103.753      -10.221      -11.017       25.573       26.399       19.865      653.984      696.932      394.626        0.637        0.087      104.255       14.888        0.020      321.438      -16.748      872.119
12/09/2013  05:53:00      -92.649      -16.808      -12.029       33.676       23.288       17.933     1134.053      542.341      321.592        0.550        0.100       94.162       14.807        0.025      321.476      -16.686      872.124
12/09/2013  05:54:00      -65.863      -14.210      -11.650       18.893       15.049       13.260      356.958      226.473      175.818        0.272        0.038       67.378        9.004        0.018      321.413      -16.787      872.146
12/09/2013  05:55:00      -60.008      -35.908      -11.894       14.947       12.470       11.924      223.416      155.494      142.188        0.278        0.026       69.931        4.728        0.005      321.427      -16.764      872.165
12/09/2013  05:56:00      -80.159      -30.536       -7.766       15.409       15.323       12.252      237.430      234.809      150.105        0.402        0.031       85.779        6.008        0.005      321.448      -16.731      872.169
12/09/2013  05:57:00      -76.841      -24.382       -9.442       13.740       16.193       12.391      188.795      262.222      153.528        0.360        0.030       80.617        7.843        0.009      321.451      -16.727      872.153
12/09/2013  05:58:00      -85.483      -18.816      -13.171       18.965       12.552       11.685      359.665      157.545      136.534        0.424        0.033       87.530        3.044        0.001      321.389      -16.825      872.134
12/09/2013  05:59:00     -103.715      -14.696      -13.933       15.885       17.794       14.171      252.347      316.618      200.824        0.597        0.038      104.751        8.185        0.006      321.365      -16.865      872.112
12/09/2013  06:00:00     -120.237       -0.724      -10.743       21.831       16.692       15.093      476.606      278.630      227.796        0.778        0.049      120.239       10.067        0.007      321.320      -16.936      872.083
12/09/2013  06:01:00      -94.040      -20.138      -15.619       17.628       14.812       16.300      310.742      219.391      265.687        0.514        0.040       96.172        5.618        0.003      321.362      -16.869      872.075
12/09/2013  06:02:00      -80.917      -18.190      -14.344       16.923       12.818       15.187      286.379      164.311      230.631        0.388        0.034       82.936        1.533        0.000      321.398      -16.811      872.065
12/09/2013  06:03:00      -82.651      -12.216      -18.952       13.832       13.855       13.398      191.336      191.968      179.517        0.395        0.028       83.549        1.691        0.000      321.456      -16.717      872.057
12/09/2013  06:04:00      -92.973      -13.979      -15.459       13.264       15.262       10.226      175.936      232.920      104.574        0.480        0.026       94.018        4.655        0.002      321.469      -16.696      872.053
12/09/2013  06:05:00      -73.919      -28.443       -9.635       20.149       20.617       12.943      405.965      425.055      167.522        0.368        0.050       79.202       10.311        0.017      321.558      -16.557      872.054
12/09/2013  06:06:00      -94.566        3.105       -5.221       11.445       15.717       10.749      130.981      247.033      115.537        0.474        0.025       94.617        6.627        0.005      321.460      -16.712      872.075
12/09/2013  06:07:00      -94.080       -3.086       -8.331       14.657       14.838       13.744      214.828      220.180      188.905        0.478        0.031       94.131       10.349        0.012      321.513      -16.629      872.094
12/09/2013  06:08:00      -93.112       -4.019      -16.020       15.229       18.416       12.445      231.918      339.158      154.879        0.483        0.036       93.199        7.403        0.006      321.510      -16.633      872.110
12/09/2013  06:09:00      -99.388      -17.830       -9.324       20.299       20.462       15.743      412.055      418.673      247.838        0.568        0.054      100.975       12.937        0.016      321.552      -16.566      872.125
12/09/2013  06:10:00     -130.652        0.468      -19.403       16.972       13.745       15.959      288.045      188.915      254.684        0.909        0.037      130.652        9.260        0.005      321.447      -16.733      872.119
12/09/2013  06:11:00     -155.470        1.370      -16.943       32.365       18.547       18.337     1047.470      343.979      336.261        1.309        0.086      155.476       15.805        0.010      321.411      -16.790      872.121
12/09/2013  06:12:00     -124.722        1.221      -11.603       43.633       25.176       24.591     1903.801      633.856      604.737        0.942        0.157      124.728       22.924        0.034      321.449      -16.729      872.128
12/09/2013  06:13:00     -140.823       11.294      -16.190       42.311       29.471       23.823     1790.232      868.539      567.538        1.172        0.161      141.275       24.315        0.030      321.483      -16.676      872.139
12/09/2013  06:14:00     -140.937        6.176       -8.423       46.892       34.134       24.621     2198.826     1165.115      606.216        1.197        0.199      141.072       25.076        0.032      321.447      -16.734      872.140
12/09/2013  06:15:00     -150.382      -11.601       -9.459       44.368       32.784       25.726     1968.503     1074.768      661.842        1.327        0.185      150.828       24.595        0.027      321.433      -16.756      872.135
12/09/2013  06:16:00     -119.777      -16.781       -9.939       49.653       23.107       20.222     2465.439      533.913      408.940        0.907        0.170      120.946       21.797        0.032      321.410      -16.791      872.115
12/09/2013  06:17:00     -125.538      -29.004      -12.899       25.030       19.322       18.796      626.515      373.332      353.301        0.906        0.068      128.845       14.153        0.012      321.454      -16.722      872.110
12/09/2013  06:18:00     -107.431      -16.670       -4.966       36.203       26.006       22.081     1310.661      676.321      487.553        0.716        0.124      108.716       22.323        0.042      321.425      -16.769      872.132
12/09/2013  06:19:00     -122.172       -3.655      -12.264       28.938       19.848       20.459      837.410      393.954      418.586        0.837        0.082      122.227       17.998        0.022      321.362      -16.869      872.154
12/09/2013  06:20:00      -91.300       -7.790       -3.765       35.985       22.271       18.740     1294.914      496.013      351.179        0.528        0.107       91.632       17.507        0.037      321.385      -16.831      872.166
12/09/2013  06:21:00      -82.491      -20.313       -5.376       32.893       28.487       18.346     1081.930      811.491      336.561        0.474        0.111       84.955       17.522        0.043      321.405      -16.800      872.170
12/09/2013  06:22:00      -93.137      -16.079       -5.636       22.829       19.683       14.579      521.172      387.433      212.546        0.504        0.056       94.515       13.304        0.020      321.339      -16.908      872.174
12/09/2013  06:23:00      -63.720       -7.385       -6.414       21.421       13.273       12.882      458.869      176.167      165.950        0.248        0.040       64.147       11.017        0.029      321.375      -16.849      872.210
12/09/2013  06:24:00      -39.075       -5.066       -1.628       11.217        7.388        7.830      125.811       54.576       61.313        0.090        0.012       39.402        3.634        0.009      321.439      -16.747      872.253
12/09/2013  06:25:00       -4.692       -3.448        3.402        8.981        9.898       12.233       80.650       97.962      149.651        0.019        0.016        5.822        7.622        1.714      321.713      -16.309      872.289
12/09/2013  06:26:00       -3.509       36.048       -4.286       16.243       26.268       14.711      263.833      690.018      216.426        0.125        0.059       36.219       12.703        0.123      321.787      -16.191      872.315
12/09/2013  06:27:00        2.587       78.791       -3.789        8.391       11.957       11.111       70.412      142.963      123.456        0.328        0.017       78.833        7.774        0.010      321.915      -15.986      872.317
12/09/2013  06:28:00       11.246       66.167       -7.007        9.525       12.798        9.580       90.717      163.788       91.774        0.245        0.017       67.116        5.517        0.007      321.949      -15.930      872.319
12/09/2013  06:29:00       18.636       43.102       -1.513        8.810       22.202        9.459       77.614      492.936       89.476        0.143        0.033       46.958       11.738        0.062      321.933      -15.956      872.327
12/09/2013  06:30:00       14.696       56.259       -2.083       10.611       16.303       12.310      112.589      265.797      151.538        0.196        0.026       58.147       10.922        0.035      321.915      -15.985      872.338
12/09/2013  06:31:00       22.079       47.484       -6.240        9.647       13.347        8.269       93.065      178.133       68.377        0.156        0.017       52.367        6.170        0.014      321.882      -16.037      872.368
12/09/2013  06:32:00       18.012       64.760       -9.573        7.378        8.889        5.608       54.439       79.012       31.448        0.239        0.008       67.219        3.521        0.003      321.932      -15.957      872.403
12/09/2013  06:33:00       22.197       66.623       -7.763       10.329       10.434        6.968      106.678      108.871       48.549        0.263        0.013       70.223        2.944        0.002      321.961      -15.911      872.421
12/09/2013  06:34:00       22.462       55.564       -5.488       12.990       11.964       11.984      168.739      143.127      143.610        0.204        0.023       59.933        9.986        0.028      321.944      -15.940      872.438
12/09/2013  06:35:00       29.086       58.926       -1.965       11.763       21.246       15.072      138.363      451.388      227.179        0.257        0.041       65.713       15.174        0.053      322.025      -15.811      872.455
12/09/2013  06:36:00       30.801       52.919       -4.972       12.883       19.199       13.343      165.975      368.601      178.039        0.224        0.036       61.230       12.086        0.039      322.025      -15.809      872.475
12/09/2013  06:37:00       27.794       34.966       -5.644       17.396       19.515       12.724      302.621      380.841      161.893        0.144        0.042       44.666       12.476        0.078      322.017      -15.823      872.495
12/09/2013  06:38:00       37.882       43.455       -1.238       18.802       21.693       17.122      353.500      470.606      293.176        0.222        0.056       57.649       13.249        0.053      322.014      -15.828      872.512
12/09/2013  06:39:00       38.726       55.956       -1.777       18.745       26.092       19.291      351.359      680.788      372.158        0.302        0.070       68.050       17.494        0.066      321.994      -15.858      872.526
12/09/2013  06:40:00       39.047       43.055       -5.211       19.999       19.867       15.863      399.966      394.705      251.623        0.223        0.052       58.124        9.953        0.029      322.006      -15.842      872.535
12/09/2013  06:41:00       27.994       40.619       -1.354       15.869       22.246       12.897      251.810      494.883      166.321        0.167        0.046       49.331       10.544        0.046      321.999      -15.851      872.534
12/09/2013  06:42:00       30.412       43.192       -0.715       15.457       17.124       11.668      238.929      293.246      136.147        0.173        0.033       52.824       10.599        0.040      322.037      -15.790      872.543
12/09/2013  06:43:00       11.910       16.562        7.851       14.181       14.607       11.030      201.103      213.352      121.658        0.051        0.027       20.400        9.339        0.210      322.031      -15.799      872.549
12/09/2013  06:44:00       24.107       25.135       -5.268       16.043       15.121        8.537      257.373      228.644       72.875        0.090        0.028       34.827        4.865        0.020      322.048      -15.771      872.560
12/09/2013  06:45:00       16.186       26.659        0.474        9.289       10.288        8.043       86.286      105.846       64.683        0.061        0.013       31.188        6.148        0.039      322.077      -15.728      872.582
12/09/2013  06:46:00        0.373       -2.746       10.142        6.959        7.980        6.389       48.432       63.674       40.814        0.013        0.008        2.772        4.485        2.619      322.181      -15.561      872.603
12/09/2013  06:47:00       -0.058        6.747       17.151        8.866       12.165        9.098       78.609      147.978       82.773        0.032        0.015        6.747        4.517        0.448      322.094      -15.698      872.619
12/09/2013  06:48:00       13.079        3.181        9.176       14.282       13.671        9.512      203.970      186.894       90.475        0.037        0.024       13.461        7.984        0.352      322.101      -15.689      872.635
12/09/2013  06:49:00      -16.071       -0.081       12.221       10.773       13.254        8.726      116.052      175.666       76.147        0.039        0.018       16.071        8.705        0.293      321.809      -16.156      872.655
12/09/2013  06:50:00      -35.613       -5.771      -13.192       10.541        7.424        7.502      111.120       55.122       56.274        0.085        0.011       36.077        2.870        0.006      321.681      -16.362      872.677
12/09/2013  06:51:00      -44.667        9.074       -7.404       12.710       11.280       12.000      161.535      127.238      144.008        0.128        0.022       45.579        7.253        0.025      321.535      -16.593      872.699
12/09/2013  06:52:00      -43.986       -5.038       -5.825       10.988        9.936        8.404      120.727       98.717       70.629        0.114        0.015       44.273        5.786        0.017      321.554      -16.563      872.708
12/09/2013  06:53:00      -72.069       -0.210      -10.002        9.917       14.262        9.341       98.344      203.415       87.262        0.284        0.019       72.069        4.446        0.004      321.572      -16.534      872.702
12/09/2013  06:54:00      -61.982        4.787       -6.684       14.745        9.969        9.526      217.421       99.373       90.743        0.216        0.020       62.167        7.344        0.014      321.678      -16.365      872.716
12/09/2013  06:55:00      -59.407        5.537       -8.051       11.301       10.692       10.901      127.711      114.322      118.830        0.199        0.018       59.664        7.502        0.016      321.620      -16.458      872.743
12/09/2013  06:56:00      -46.127       -1.483       -9.954       14.309       12.164       15.144      204.759      147.967      229.329        0.141        0.029       46.151       13.086        0.080      321.741      -16.266      872.780
12/09/2013  06:57:00      -40.095       -8.151       -4.939       10.624       11.304        5.425      112.870      127.776       29.429        0.098        0.014       40.915        3.053        0.006      321.884      -16.034      872.806
12/09/2013  06:58:00      -57.088      -17.331       -5.784        9.167        9.463        7.493       84.028       89.555       56.139        0.191        0.011       59.661        5.796        0.009      321.742      -16.262      872.823
12/09/2013  06:59:00      -51.903       -3.144       -8.236       15.599       10.154        8.066      243.323      103.108       65.067        0.159        0.021       51.998        6.042        0.014      321.694      -16.341      872.835
12/09/2013  07:00:00      -27.994        2.513       -4.554       14.972       15.538       12.525      224.170      241.418      156.885        0.072        0.031       28.106        9.578        0.116      321.717      -16.304      872.841
12/09/2013  07:01:00      -35.838      -13.391       -5.012       18.657       14.698       10.734      348.079      216.017      115.226        0.108        0.034       38.258       11.583        0.092      321.692      -16.344      872.857
12/09/2013  07:02:00      -54.500       -1.159       -8.037       22.479        9.034       11.597      505.326       81.610      134.497        0.188        0.036       54.513       12.172        0.050      321.674      -16.371      872.886
12/09/2013  07:03:00      -73.680       -3.425       -7.392       18.359       12.317       10.285      337.049      151.702      105.790        0.304        0.030       73.760        8.708        0.014      321.758      -16.238      872.906
12/09/2013  07:04:00      -77.248      -14.421       -6.571       21.101       17.409       14.763      445.244      303.078      217.960        0.359        0.048       78.583       13.465        0.029      321.717      -16.303      872.907
12/09/2013  07:05:00      -71.818      -31.267      -12.609       26.203       22.393       11.573      686.592      501.468      133.939        0.381        0.066       78.329        3.490        0.002      321.710      -16.314      872.909
12/09/2013  07:06:00      -33.607      -32.224       -4.578       22.499       14.774       11.724      506.199      218.282      137.442        0.153        0.043       46.560       12.159        0.068      321.768      -16.222      872.923
12/09/2013  07:07:00      -55.756       -6.009       -7.694       18.912       14.993       12.413      357.646      224.788      154.079        0.197        0.037       56.079       11.297        0.041      321.714      -16.307      872.949
12/09/2013  07:08:00      -35.078       -2.877        2.969       23.817       18.882       12.050      567.263      356.525      145.194        0.116        0.053       35.195       10.738        0.093      321.632      -16.438      872.958
12/09/2013  07:09:00      -58.609       -4.615       -0.521       37.490       20.722       16.155     1405.534      429.403      260.968        0.278        0.105       58.790       20.394        0.120      321.682      -16.359      872.960
12/09/2013  07:10:00      -69.811       -2.254       -0.791       34.821       16.759       15.041     1212.503      280.853      226.242        0.330        0.086       69.847       14.914        0.046      321.571      -16.536      872.962
12/09/2013  07:11:00      -88.349      -13.215       -0.961       31.552       22.213       15.562      995.557      493.432      242.170        0.486        0.087       89.331       14.847        0.028      321.620      -16.459      872.960
12/09/2013  07:12:00      -86.616       -1.820       -3.006       30.954       18.910       19.664      958.164      357.571      386.680        0.461        0.085       86.635       16.974        0.038      321.624      -16.451      872.981
12/09/2013  07:13:00      -66.119      -15.184        0.516       25.525       24.350       17.052      651.501      592.941      290.767        0.307        0.077       67.840       13.304        0.038      321.645      -16.418      873.000
12/09/2013  07:14:00     -129.166        9.822      -16.230       44.545       34.195       21.991     1984.218     1169.295      483.597        1.034        0.182      129.539       21.030        0.026      321.486      -16.672      873.021
12/09/2013  07:15:00     -138.064       -7.355       -8.885       39.111       34.264       23.463     1529.675     1174.036      550.535        1.122        0.163      138.260       21.266        0.024      321.418      -16.779      873.040
12/09/2013  07:16:00     -141.597       -0.061      -15.284       44.820       31.093       25.855     2008.840      966.794      668.457        1.196        0.182      141.597       26.447        0.035      321.400      -16.808      873.061
12/09/2013  07:17:00     -113.446        5.250      -10.018       40.726       27.631       24.145     1658.607      763.476      583.001        0.800        0.150      113.567       22.702        0.040      321.427      -16.765      873.072
12/09/2013  07:18:00     -123.554        7.910      -16.653       33.437       31.857       22.087     1118.002     1014.837      487.856        0.911        0.131      123.807       18.779        0.023      321.466      -16.704      873.080
12/09/2013  07:19:00      -87.769       -9.682       -2.644       41.181       28.533       23.924     1695.863      814.133      572.374        0.544        0.154       88.301       24.912        0.080      321.493      -16.660      873.083
12/09/2013  07:20:00     -109.170       -8.619      -12.342       36.480       20.302       18.452     1330.775      412.182      340.466        0.711        0.104      109.509       19.105        0.030      321.542      -16.582      873.085
12/09/2013  07:21:00     -105.371       -6.330      -10.023       30.312       24.653       17.921      918.819      607.760      321.160        0.655        0.092      105.561       16.137        0.023      321.544      -16.579      873.088
12/09/2013  07:22:00      -96.684       -0.887       -9.000       39.560       23.277       26.005     1564.995      541.817      676.276        0.611        0.139       96.688       25.682        0.071      321.554      -16.563      873.105
12/09/2013  07:23:00     -125.985        7.113      -16.129       34.998       30.592       18.956     1224.884      935.860      359.335        0.935        0.126      126.185       13.505        0.011      321.528      -16.604      873.125
12/09/2013  07:24:00     -125.192        9.638      -20.138       41.243       28.663       19.548     1700.960      821.590      382.111        0.954        0.145      125.563       19.694        0.025      321.542      -16.581      873.147
12/09/2013  07:25:00     -102.868      -12.803      -11.949       40.523       30.461       21.908     1642.081      927.882      479.977        0.697        0.152      103.662       17.801        0.029      321.574      -16.533      873.185
12/09/2013  07:26:00     -108.366       -0.379      -14.174       45.936       36.070       23.147     2110.158     1301.044      535.771        0.794        0.197      108.367       22.760        0.044      321.532      -16.599      873.236
12/09/2013  07:27:00      -95.564        0.502       -9.601       38.837       29.870       19.749     1508.295      892.209      390.014        0.601        0.140       95.565       14.881        0.024      321.497      -16.656      873.302
12/09/2013  07:28:00      -71.801       -6.637      -12.063       32.204       27.137       18.304     1037.087      736.441      335.052        0.373        0.105       72.107        9.465        0.017      321.556      -16.560      873.355
12/09/2013  07:29:00      -72.094      -30.653       -7.799       23.987       23.955       15.888      575.356      573.851      252.426        0.380        0.070       78.340       11.492        0.022      321.684      -16.354      873.395
12/09/2013  07:30:00      -79.757      -46.512       -7.624       27.097       22.815       14.438      734.231      520.507      208.448        0.502        0.073       92.328        7.438        0.006      321.650      -16.409      873.419
12/09/2013  07:31:00      -71.609      -25.046       -4.347       26.546       20.950       18.228      704.715      438.917      332.277        0.362        0.074       75.863       17.487        0.053      321.648      -16.413      873.441
12/09/2013  07:32:00      -58.329      -14.159       -0.228       19.670       25.831       13.600      386.891      667.252      184.971        0.242        0.062       60.023        6.508        0.012      321.757      -16.241      873.448
12/09/2013  07:33:00      -28.990       -0.811       -6.184        9.571        8.161        8.390       91.603       66.607       70.397        0.055        0.011       29.002        5.219        0.032      321.741      -16.264      873.450
12/09/2013  07:34:00      -32.139       -4.542       -2.354       11.345       16.596        9.549      128.706      275.417       91.177        0.078        0.025       32.458        4.400        0.018      321.903      -16.006      873.453
12/09/2013  07:35:00      -19.065        9.116      -17.119        9.274        9.774        8.355       86.009       95.536       69.805        0.050        0.013       21.132        3.116        0.022      321.950      -15.929      873.458
12/09/2013  07:36:00      -26.449       -3.660      -14.226        7.512        5.120        8.384       56.427       26.217       70.285        0.053        0.008       26.701        5.115        0.037      321.941      -15.946      873.447
12/09/2013  07:37:00      -17.369       -5.308       -3.933       10.744        5.562        5.492      115.428       30.932       30.165        0.026        0.009       18.162        2.012        0.012      322.131      -15.642      873.452
12/09/2013  07:38:00      -10.471        2.734       -8.916        9.336        6.981        4.449       87.170       48.737       19.797        0.018        0.008       10.822        3.803        0.123      322.225      -15.489      873.469
12/09/2013  07:39:00      -17.199        0.238       -0.966        5.025        4.565        5.916       25.256       20.840       35.003        0.019        0.004       17.200        3.813        0.049      322.197      -15.534      873.471
12/09/2013  07:40:00      -27.733       -7.687       -3.835       13.524        6.452        7.182      182.900       41.634       51.584        0.056        0.014       28.779        6.707        0.054      322.223      -15.491      873.467
12/09/2013  07:41:00      -15.137       -2.543       -0.299       11.546        5.130        6.961      133.305       26.321       48.454        0.022        0.010       15.349        6.364        0.172      322.350      -15.290      873.473
12/09/2013  07:42:00       -5.008        2.243        9.649        7.725        4.980        8.201       59.682       24.805       67.261        0.014        0.008        5.488        5.857        1.139      322.697      -14.735      873.478
12/09/2013  07:43:00       -7.272        2.965       12.578        5.831        6.730        7.317       34.002       45.294       53.534        0.018        0.007        7.853        5.007        0.407      322.718      -14.702      873.497
12/09/2013  07:44:00        7.099       12.039       18.245       18.187       11.418       10.108      330.761      130.380      102.166        0.055        0.028       13.976        5.801        0.172      322.729      -14.684      873.508
12/09/2013  07:45:00       31.647       22.156        4.333       14.994       16.115        9.541      224.833      259.686       91.025        0.104        0.029       38.632        8.615        0.050      322.510      -15.033      873.512
12/09/2013  07:46:00       30.087       27.916        5.913       11.874       11.141       11.599      140.996      124.127      134.531        0.106        0.020       41.043        7.652        0.035      322.496      -15.057      873.507
12/09/2013  07:47:00      -10.131      -13.643        6.815       11.080        7.861       10.001      122.768       61.795      100.016        0.031        0.014       16.993        3.711        0.048      322.599      -14.893      873.504
12/09/2013  07:48:00      -36.571      -11.078       -1.982        9.055        9.032        6.637       81.995       81.568       44.054        0.084        0.010       38.212        3.696        0.009      322.407      -15.199      873.508
12/09/2013  07:49:00      -23.925       -0.786        3.146        8.587        8.118        6.076       73.739       65.894       36.921        0.038        0.009       23.938        5.455        0.052      322.436      -15.153      873.508
12/09/2013  07:50:00      -35.292        3.545       -2.512       10.375        7.244        6.607      107.633       52.474       43.658        0.073        0.010       35.470        4.812        0.018      322.422      -15.174      873.512
12/09/2013  07:51:00      -53.382        7.148       -4.043       13.310       11.785        8.052      177.146      138.886       64.841        0.165        0.019       53.858        6.040        0.013      322.435      -15.156      873.515
12/09/2013  07:52:00      -60.902       15.125       -5.356       14.587       12.554        8.466      212.781      157.615       71.681        0.220        0.022       62.752        3.927        0.004      322.453      -15.125      873.517
12/09/2013  07:53:00      -73.615        7.934       -6.583       20.637       17.227       13.758      425.876      296.753      189.288        0.322        0.046       74.041       12.419        0.028      322.493      -15.060      873.530
12/09/2013  07:54:00      -73.828        3.428       -6.792       23.851       17.534       11.653      568.866      307.445      135.803        0.326        0.051       73.908       10.670        0.021      322.488      -15.069      873.567
12/09/2013  07:55:00      -75.356       -1.984       -9.283       19.044       18.485       12.534      362.686      341.688      157.100        0.331        0.043       75.383        6.995        0.009      322.440      -15.147      873.608
12/09/2013  07:56:00      -57.096       25.189       -5.219       19.602       19.564       16.251      384.244      382.759      264.097        0.248        0.052       62.405       12.462        0.040      322.399      -15.212      873.644
12/09/2013  07:57:00      -61.556        7.123       -2.768       21.064       17.410       11.939      443.685      303.112      142.529        0.237        0.044       61.967        7.157        0.013      322.386      -15.234      873.664
12/09/2013  07:58:00      -56.283       -4.121       -5.050       22.727       19.007       11.551      516.538      361.264      133.428        0.211        0.051       56.434        3.256        0.003      322.447      -15.136      873.663
12/09/2013  07:59:00      -70.903      -15.053      -11.535       14.304       14.232       12.957      204.591      202.563      167.884        0.298        0.029       72.483        7.873        0.012      322.493      -15.062      873.651
12/09/2013  08:00:00      -82.798      -26.489       -3.609       30.276       19.752       18.186      916.666      390.157      330.739        0.460        0.082       86.932       17.188        0.039      322.530      -15.003      873.642
12/09/2013  08:01:00      -61.391      -11.027       -1.841       24.205       18.502       13.617      585.889      342.330      185.418        0.250        0.056       62.373       13.531        0.047      322.591      -14.905      873.638
12/09/2013  08:02:00      -37.647      -14.145       -2.035       19.702       20.110       11.265      388.176      404.421      126.904        0.127        0.046       40.217        7.582        0.036      322.644      -14.819      873.643
12/09/2013  08:03:00      -42.745      -15.543        1.131       14.107       16.393       13.059      199.019      268.726      170.550        0.135        0.032       45.483       10.250        0.051      322.719      -14.700      873.644
12/09/2013  08:04:00      -39.805      -13.993       -2.924       14.637       13.355       11.416      214.250      178.352      130.330        0.116        0.026       42.193        8.507        0.041      322.765      -14.625      873.636
12/09/2013  08:05:00      -56.439      -26.639       -8.496       14.418       17.350       10.877      207.890      301.015      118.310        0.230        0.031       62.409        8.789        0.020      322.817      -14.543      873.615
12/09/2013  08:06:00      -32.807      -24.520        1.292       19.847        9.449       10.158      393.923       89.292      103.191        0.113        0.029       40.958        5.127        0.016      322.940      -14.346      873.602
12/09/2013  08:07:00      -25.636      -13.677        2.631       25.378       10.546       12.314      644.064      111.227      151.636        0.088        0.045       29.056       14.215        0.239      323.108      -14.076      873.617
12/09/2013  08:08:00      -23.918      -15.621       -3.000        8.901       10.925       11.383       79.234      119.358      129.574        0.058        0.016       28.567        3.853        0.018      322.984      -14.276      873.644
12/09/2013  08:09:00      -24.716       -1.917        0.845       19.657       17.343        8.921      386.415      300.786       79.583        0.069        0.038       24.790        7.896        0.101      323.019      -14.219      873.657
12/09/2013  08:10:00      -30.909      -36.385       -4.034       35.679       22.553       13.612     1273.006      508.647      185.278        0.213        0.098       47.742       15.889        0.111      322.973      -14.292      873.653
12/09/2013  08:11:00      -33.548      -43.081        1.944       29.008       26.289       17.439      841.456      691.119      304.105        0.241        0.092       54.602       15.896        0.085      322.989      -14.268      873.641
12/09/2013  08:12:00      -50.978      -35.209        3.690       34.722       35.999       21.159     1205.597     1295.956      447.710        0.340        0.147       61.955       14.465        0.055      322.833      -14.518      873.620
12/09/2013  08:13:00      -68.710      -60.215       -8.841       34.154       24.462       17.831     1166.503      598.367      317.928        0.525        0.104       91.362       16.356        0.032      322.841      -14.505      873.589
12/09/2013  08:14:00      -86.188      -49.523      -10.849       26.935       31.467       22.255      725.508      990.189      495.265        0.610        0.111       99.403       15.951        0.026      322.765      -14.626      873.577
12/09/2013  08:15:00      -74.737      -41.391       -2.703       33.474       41.630       18.202     1120.522     1733.095      331.298        0.524        0.159       85.433       15.829        0.034      322.808      -14.558      873.585
12/09/2013  08:16:00      -87.978      -55.635        3.609       33.699       30.251       21.973     1135.607      915.132      482.791        0.669        0.127      104.093       16.441        0.025      322.843      -14.501      873.608
12/09/2013  08:17:00      -90.658      -65.285       -1.575       39.701       30.196       21.093     1576.156      911.796      444.932        0.771        0.147      111.718       19.160        0.029      322.856      -14.481      873.648
12/09/2013  08:18:00      -36.202      -29.005       13.820       49.993       31.842       27.254     2499.327     1013.909      742.779        0.330        0.213       46.389       24.041        0.269      323.066      -14.144      873.696
12/09/2013  08:19:00      -91.819      -79.931       -9.674       36.798       29.302       18.336     1354.062      858.636      336.217        0.873        0.127      121.736       10.914        0.008      322.851      -14.487      873.729
12/09/2013  08:20:00      -65.800      -58.306       -6.096       33.889       26.942       23.504     1148.460      725.855      552.417        0.510        0.121       87.916       18.696        0.045      322.894      -14.420      873.747
12/09/2013  08:21:00      -81.004      -87.396       -4.698       34.259       34.473       22.280     1173.707     1188.420      496.392        0.854        0.143      119.162       21.234        0.032      322.790      -14.588      873.760
12/09/2013  08:22:00      -61.240      -66.774       -4.479       37.991       36.504       23.323     1443.308     1332.566      543.947        0.577        0.166       90.604       19.756        0.048      322.935      -14.354      873.748
12/09/2013  08:23:00      -56.302      -66.804       -2.644       46.120       43.514       25.745     2127.091     1893.430      662.818        0.616        0.234       87.365       20.423        0.055      322.982      -14.279      873.713
12/09/2013  08:24:00      -77.965      -76.072       -2.348       55.280       34.203       27.572     3055.844     1169.857      760.214        0.843        0.249      108.929       26.565        0.059      322.873      -14.452      873.671
12/09/2013  08:25:00     -106.608      -70.307       -3.112       48.134       38.296       26.581     2316.929     1466.591      706.557        1.040        0.225      127.704       17.426        0.019      322.914      -14.389      873.628
12/09/2013  08:26:00      -75.986      -71.737       -9.180       66.189       40.918       32.236     4381.046     1674.267     1039.129        0.905        0.355      104.499       30.146        0.083      322.996      -14.255      873.603
12/09/2013  08:27:00     -104.637      -65.760       -7.387       54.953       40.440       29.615     3019.873     1635.381      877.052        1.043        0.277      123.586       27.484        0.049      322.908      -14.397      873.580
12/09/2013  08:28:00      -78.766      -44.853        7.649       64.507       36.568       30.434     4161.208     1337.204      926.242        0.735        0.321       90.641       29.522        0.106      322.956      -14.321      873.575
12/09/2013  08:29:00      -57.802      -31.409       11.378       58.842       34.814       27.575     3462.430     1212.014      760.367        0.494        0.272       65.785       31.510        0.229      323.157      -13.999      873.576
12/09/2013  08:30:00      -49.885      -16.894       12.519       48.634       45.144       24.669     2365.239     2037.982      608.582        0.397        0.251       52.668       20.217        0.147      323.151      -14.006      873.594
12/09/2013  08:31:00      -46.108      -89.617       -5.033       42.374       49.259       28.157     1795.558     2426.485      792.824        0.760        0.251      100.782       29.567        0.086      323.152      -14.005      873.600
12/09/2013  08:32:00     -113.359      -84.594       -6.349       35.101       34.679       24.311     1232.108     1202.660      591.048        1.154        0.151      141.444       21.239        0.023      323.062      -14.151      873.600
12/09/2013  08:33:00      -55.354      -29.270       13.440       49.252       31.009       22.983     2425.734      961.564      528.226        0.401        0.196       62.616       29.922        0.228      323.274      -13.810      873.616
12/09/2013  08:34:00      -28.866      -10.802        0.630       20.899       14.878       18.755      436.767      221.348      351.755        0.098        0.050       30.821        9.897        0.103      323.357      -13.678      873.634
12/09/2013  08:35:00      -29.620      -34.111       11.446       26.836       35.402       19.466      720.171     1253.312      378.940        0.226        0.118       45.177       18.968        0.176      323.370      -13.658      873.666
12/09/2013  08:36:00       49.956       10.909       26.998       52.575       51.211       27.167     2764.087     2622.605      738.068        0.473        0.306       51.133       35.940        0.494      323.497      -13.454      873.706
12/09/2013  08:37:00       56.149       41.423       11.110       20.110       19.192       21.058      404.414      368.336      443.425        0.310        0.061       69.775       10.732        0.024      323.446      -13.535      873.737
12/09/2013  08:38:00       11.555       28.422       45.855       26.169       21.845       21.499      684.798      477.206      462.207        0.233        0.081       30.681       14.462        0.222      323.936      -12.748      873.731
12/09/2013  08:39:00        2.984       47.939       68.832       29.692       28.458       25.023      881.608      809.854      626.135        0.468        0.116       48.032       23.619        0.242      323.895      -12.813      873.693
12/09/2013  08:40:00       55.231       49.265       28.394       30.472       22.861       22.659      928.517      522.622      513.432        0.412        0.098       74.010       18.241        0.061      323.305      -13.762      873.651
12/09/2013  08:41:00       54.496       58.739       48.292       38.322       29.396       30.458     1468.599      864.103      927.699        0.601        0.163       80.125       26.599        0.110      323.658      -13.196      873.635
12/09/2013  08:42:00       56.661       75.974       62.694       42.182       34.969       24.268     1779.313     1222.859      588.951        0.825        0.180       94.776        8.057        0.007      323.577      -13.324      873.647
12/09/2013  08:43:00       56.013       59.480       59.470       45.527       37.406       34.967     2072.741     1399.231     1222.685        0.745        0.235       81.703       30.807        0.142      323.636      -13.230      873.675
12/09/2013  08:44:00      104.971       56.224       29.821       34.062       27.298       28.765     1160.225      745.165      827.416        0.890        0.137      119.080       19.947        0.028      323.444      -13.538      873.695
12/09/2013  08:45:00       90.686       62.107        7.609       24.853       12.011       14.756      617.686      144.264      217.742        0.656        0.049      109.914        3.936        0.001      323.256      -13.837      873.693
12/09/2013  08:46:00       42.842       58.833       34.143       32.247       28.283       31.340     1039.889      799.917      982.214        0.464        0.141       72.779       24.349        0.112      323.535      -13.393      873.691
12/09/2013  08:47:00       60.460       68.501       43.383       46.126       33.000       30.891     2127.609     1089.028      954.258        0.720        0.209       91.366       26.435        0.084      323.761      -13.030      873.692
12/09/2013  08:48:00       33.495       63.267       65.483       54.329       31.708       34.270     2951.598     1005.406     1174.451        0.727        0.257       71.586       34.245        0.229      323.809      -12.952      873.701
12/09/2013  08:49:00       92.918       59.609       17.933       36.804       31.460       33.157     1354.539      989.744     1099.381        0.798        0.172      110.395       17.961        0.026      323.540      -13.385      873.751
12/09/2013  08:50:00       38.476       59.193        4.258       31.673       29.004       27.816     1003.178      841.204      773.737        0.381        0.131       70.599       20.851        0.087      323.703      -13.122      873.806
12/09/2013  08:51:00       86.287       58.172        4.531       53.217       41.455       26.611     2832.004     1718.493      708.145        0.805        0.263      104.064       12.157        0.014      323.788      -12.985      873.845
12/09/2013  08:52:00      103.563       61.217        8.666       38.424       27.011       35.237     1476.417      729.589     1241.678        0.900        0.172      120.303       25.597        0.045      323.585      -13.312      873.851
12/09/2013  08:53:00       94.591       67.653        2.466       22.933       19.063       23.865      525.937      363.398      569.558        0.749        0.073      116.294       12.883        0.012      323.517      -13.420      873.821
12/09/2013  08:54:00       36.064       46.245        2.292       24.376       20.811       21.368      594.203      433.098      456.571        0.246        0.074       58.645       12.075        0.042      323.713      -13.104      873.782
12/09/2013  08:55:00       78.522       73.802       44.501       53.980       30.126       31.705     2913.844      907.590     1005.213        0.921        0.241      107.761       20.026        0.035      323.792      -12.980      873.758
12/09/2013  08:56:00       52.002       91.919       84.192       45.278       41.877       30.595     2050.112     1753.709      936.029        1.149        0.237      105.610       25.125        0.057      323.970      -12.693      873.778
12/09/2013  08:57:00       91.239       82.649       47.989       51.003       34.075       43.347     2601.257     1161.124     1878.954        1.155        0.282      123.107       33.981        0.076      323.753      -13.042      873.819
12/09/2013  08:58:00       81.600      119.083       76.860       51.178       36.957       53.052     2619.233     1365.802     2814.463        1.677        0.340      144.358       41.400        0.082      323.770      -13.014      873.848
12/09/2013  08:59:00       40.528       83.464       49.064       50.074       32.494       31.481     2507.435     1055.859      991.047        0.778        0.228       92.784       16.099        0.030      323.832      -12.914      873.855
12/09/2013  09:00:00       50.262       35.384       60.995       50.744       39.042       35.898     2574.938     1524.305     1288.681        0.644        0.269       61.468       25.128        0.167      323.987      -12.666      873.849
12/09/2013  09:01:00       88.237       56.422       42.273       45.565       33.730       50.016     2076.167     1137.738     2501.580        0.923        0.286      104.734       33.107        0.100      323.820      -12.934      873.856
12/09/2013  09:02:00       92.748       65.850       47.576       41.201       41.250       43.144     1697.482     1701.558     1861.364        1.023        0.263      113.748       29.154        0.066      323.826      -12.924      873.868
12/09/2013  09:03:00       38.139       85.477       94.719       47.417       76.324       44.691     2248.357     5825.379     1997.319        1.390        0.504       93.599       50.365        0.290      323.952      -12.722      873.891
12/09/2013  09:04:00       75.984       92.122       99.689       38.491       53.253       29.093     1481.522     2835.915      846.383        1.468        0.258      119.415       24.643        0.043      323.862      -12.866      873.905
12/09/2013  09:05:00       77.041       49.374       41.047       64.510       47.884       35.311     4161.476     2292.905     1246.847        0.888        0.385       91.505       35.309        0.149      323.835      -12.911      873.892
12/09/2013  09:06:00       17.245       70.882       52.459       41.355       42.002       35.312     1710.221     1764.135     1246.970        0.640        0.236       72.949       29.114        0.159      324.257      -12.230      873.859
12/09/2013  09:07:00       32.304       36.274       40.636       37.105       37.919       27.383     1376.762     1437.856      749.808        0.379        0.178       48.573       16.122        0.110      324.146      -12.409      873.824
12/09/2013  09:08:00       10.676       -1.511       25.764       28.231       77.501       27.946      796.982     6006.345      780.958        0.418        0.379       10.783       25.608        5.640      324.330      -12.115      873.807
12/09/2013  09:09:00       30.312      -25.871       38.049       41.341       96.345       38.167     1709.103     9282.327     1456.684        0.774        0.622       39.852       53.712        1.817      324.337      -12.102      873.793
12/09/2013  09:10:00        9.481       -3.179       48.941       31.255       42.009       30.694      976.898     1764.770      942.102        0.309        0.184       10.000       10.411        1.084      324.527      -11.796      873.790
12/09/2013  09:11:00       15.629       16.398       46.872       26.648       67.961       33.323      710.136     4618.693     1110.455        0.457        0.322       22.653       43.568        3.699      324.334      -12.106      873.786
12/09/2013  09:12:00        1.631       10.980       46.761       20.068       56.199       31.658      402.720     3158.329     1002.218        0.344        0.228       11.100       38.316       11.915      324.400      -12.001      873.789
12/09/2013  09:13:00       13.342       33.946       44.377       29.985       24.723       23.282      899.101      611.238      542.073        0.268        0.103       36.474       18.899        0.268      324.459      -11.907      873.776
12/09/2013  09:14:00       21.915      -19.098       42.139       40.890       56.062       33.861     1672.015     3142.960     1146.549        0.429        0.298       29.069       42.105        2.098      324.591      -11.693      873.764
12/09/2013  09:15:00       20.074       -5.874       21.887       36.423       43.063       36.899     1326.602     1854.464     1361.562        0.273        0.227       20.916       28.665        1.878      324.612      -11.660      873.761
12/09/2013  09:16:00        3.466      -50.598       23.954       53.384       61.700       33.065     2849.812     3806.877     1093.264        0.545        0.387       50.716       34.715        0.469      324.482      -11.869      873.783
12/09/2013  09:17:00       54.361      -66.328        3.483       66.785       94.854       50.201     4460.240     8997.192     2520.158        1.167        0.799       85.759       60.587        0.499      324.480      -11.874      873.796
12/09/2013  09:18:00       14.268       96.938      122.107       40.087       56.160       33.117     1606.949     3153.946     1096.750        1.518        0.293       97.982       35.342        0.130      324.249      -12.243      873.811
12/09/2013  09:19:00       29.202        4.007       75.100       37.597       79.861       44.505     1413.504     6377.834     1980.730        0.814        0.489       29.476       52.502        3.173      324.437      -11.942      873.797
12/09/2013  09:20:00       43.348       66.834       93.583       41.584       43.239       22.982     1729.246     1869.603      528.183        0.961        0.206       79.661       19.200        0.058      324.266      -12.216      873.766
12/09/2013  09:21:00       16.939       52.022       60.334       26.539       36.623       26.098      704.343     1341.226      681.105        0.468        0.136       54.710       24.121        0.194      324.291      -12.176      873.728
12/09/2013  09:22:00       -5.567       23.649       26.078       12.485       22.467       21.496      155.868      504.748      462.068        0.120        0.056       24.295       12.173        0.251      324.731      -11.468      873.715
12/09/2013  09:23:00       13.173       27.169       12.604       24.990       27.733       28.002      624.495      769.115      784.104        0.162        0.109       30.195       17.903        0.352      324.703      -11.513      873.728
12/09/2013  09:24:00      -41.213        9.930       10.614       23.447       26.437       19.133      549.769      698.928      366.066        0.176        0.081       42.393       17.738        0.175      324.466      -11.894      873.749
12/09/2013  09:25:00      -25.629       12.508       -1.025       21.376       28.297       21.081      456.930      800.735      444.417        0.126        0.085       28.519       19.575        0.471      324.409      -11.987      873.768
12/09/2013  09:26:00      -45.576      -50.378        9.315       25.874       30.632       21.938      669.474      938.322      481.281        0.340        0.104       67.935       19.023        0.078      324.398      -12.006      873.784
12/09/2013  09:27:00       -3.925       21.676       54.744       21.873       35.900       37.756      478.445     1288.841     1425.518        0.334        0.160       22.029       23.882        1.175      324.772      -11.401      873.796
12/09/2013  09:28:00        6.376        5.037       55.024       23.495       23.553       14.492      552.038      554.732      210.011        0.220        0.066        8.125       10.237        1.588      324.825      -11.316      873.795
12/09/2013  09:29:00       64.205       38.310        9.700       40.715       39.407       28.499     1657.678     1552.879      812.184        0.485        0.201       74.766       21.152        0.080      324.445      -11.928      873.799
12/09/2013  09:30:00      151.406       94.661       20.637       54.613       43.259       37.353     2982.535     1871.335     1395.218        1.928        0.312      178.562       21.778        0.015      324.149      -12.406      873.802
12/09/2013  09:31:00      101.365       86.890       23.014       41.245       32.650       30.683     1701.169     1066.008      941.430        1.103        0.185      133.509       11.625        0.008      324.280      -12.194      873.817
12/09/2013  09:32:00      163.991       92.676       23.255       56.949       46.429       39.523     3243.184     2155.611     1562.078        2.149        0.348      188.366       18.624        0.010      324.299      -12.164      873.829
12/09/2013  09:33:00      152.329       93.756       33.758       62.297       52.191       45.363     3880.922     2723.925     2057.840        2.090        0.433      178.870       34.666        0.038      324.185      -12.348      873.844
12/09/2013  09:34:00      120.673       62.932       22.295       63.366       39.444       36.477     4015.227     1555.839     1330.564        1.296        0.345      136.097       22.131        0.026      324.341      -12.096      873.850
12/09/2013  09:35:00      153.413      100.243       34.037       44.093       44.397       38.418     1944.170     1971.126     1475.919        2.007        0.270      183.260       21.876        0.014      324.136      -12.427      873.831
12/09/2013  09:36:00       52.895       53.097       35.738       60.510       52.478       31.106     3661.402     2753.967      967.554        0.714        0.369       74.947       30.703        0.168      324.513      -11.819      873.812
12/09/2013  09:37:00      100.858       58.332        9.900       37.802       23.266       25.472     1428.998      541.325      648.838        0.815        0.131      116.512       13.714        0.014      324.244      -12.251      873.813
12/09/2013  09:38:00       29.694       54.744       28.558       33.213       29.919       28.406     1103.079      895.175      806.883        0.375        0.140       62.278       20.306        0.106      324.664      -11.577      873.800
12/09/2013  09:39:00       51.574       71.926       37.908       37.402       23.117       38.516     1398.920      534.403     1483.506        0.634        0.171       88.505       31.626        0.128      324.422      -11.966      873.813
12/09/2013  09:40:00       61.110       36.353       12.220       33.139       26.077       28.781     1098.215      679.984      828.362        0.391        0.130       71.105       15.101        0.045      324.512      -11.820      873.823
12/09/2013  09:41:00       71.985       77.279       14.699       77.950       65.533       32.371     6076.141     4294.546     1047.907        1.139        0.571      105.612       28.691        0.074      324.660      -11.581      873.821
12/09/2013  09:42:00       98.639       62.450       23.905       45.480       27.912       28.829     2068.404      779.086      831.115        0.894        0.184      116.746       14.632        0.016      324.412      -11.982      873.816
12/09/2013  09:43:00       33.480       11.177       21.528       34.277       59.625       42.167     1174.946     3555.165     1778.090        0.411        0.325       35.297       30.530        0.748      324.780      -11.388      873.801
12/09/2013  09:44:00       90.166      101.374       72.873       61.495       46.918       46.917     3781.604     2201.265     2201.215        1.595        0.409      135.671       37.765        0.077      324.487      -11.862      873.781
12/09/2013  09:45:00       60.840       75.703       71.525       50.717       45.423       34.318     2572.238     2063.263     1177.723        1.018        0.291       97.121       29.749        0.094      324.420      -11.970      873.784
12/09/2013  09:46:00       71.237       67.748       50.405       58.226       35.170       40.342     3390.273     1236.928     1627.439        0.923        0.313       98.308       36.634        0.139      324.508      -11.827      873.797
12/09/2013  09:47:00       97.107       86.058       63.619       55.814       29.517       34.702     3115.200      871.233     1204.204        1.304        0.260      129.752       31.251        0.058      324.440      -11.935      873.797
12/09/2013  09:48:00       56.178       48.166       13.470       50.946       32.047       38.307     2595.500     1027.016     1467.390        0.537        0.254       74.000       33.914        0.210      324.459      -11.907      873.795
12/09/2013  09:49:00        5.956       41.464       65.251       33.846       38.889       29.464     1145.526     1512.334      868.114        0.477        0.176       41.889       21.075        0.253      325.138      -10.811      873.776
12/09/2013  09:50:00       74.680       87.677       40.051       63.461       36.978       53.701     4027.348     1367.347     2883.777        1.157        0.414      115.171       33.090        0.083      324.582      -11.707      873.771
12/09/2013  09:51:00       39.064       74.042       12.291       37.662       44.164       30.117     1418.398     1950.438      907.036        0.572        0.214       83.715       25.023        0.089      324.702      -11.514      873.770
12/09/2013  09:52:00       -0.157       40.633       72.571       28.173       57.558       42.774      793.732     3312.947     1829.603        0.643        0.297       40.633       40.484        0.993      325.125      -10.831      873.767
12/09/2013  09:53:00       74.146       98.952       91.019       51.147       56.993       46.422     2616.057     3248.213     2155.017        1.579        0.401      123.650       40.391        0.107      324.547      -11.764      873.771
12/09/2013  09:54:00       49.167      109.791      111.674       37.312       49.641       31.010     1392.149     2464.235      961.637        1.588        0.241      120.297       24.171        0.040      324.647      -11.604      873.769
12/09/2013  09:55:00      108.638       96.832       85.114       36.657       51.943       50.986     1343.762     2698.109     2599.585        1.753        0.332      145.529       41.122        0.080      324.541      -11.776      873.782
12/09/2013  09:56:00       72.297       57.561       33.251       49.416       33.225       34.146     2441.971     1103.882     1165.954        0.718        0.236       92.413       28.035        0.092      324.621      -11.645      873.779
12/09/2013  09:57:00       41.814       31.810       20.407       45.559       28.510       28.760     2075.624      812.795      827.157        0.345        0.186       52.539       15.969        0.092      324.890      -11.211      873.767
12/09/2013  09:58:00      125.109       79.460       25.962       68.752       28.256       37.601     4726.813      798.379     1413.868        1.479        0.347      148.210       40.301        0.074      324.712      -11.498      873.755
12/09/2013  09:59:00      140.251       81.548        5.984       57.402       34.597       37.420     3294.976     1196.976     1400.257        1.612        0.295      162.236       27.763        0.029      324.419      -11.971      873.758
12/09/2013  10:00:00      134.421      109.430       26.105       28.902       30.181       29.530      835.354      910.893      872.049        1.667        0.131      173.332       11.374        0.004      324.450      -11.922      873.764
12/09/2013  10:01:00       67.134       60.745        0.985       33.626       21.076       19.489     1130.683      444.184      379.815        0.508        0.098       90.536       18.358        0.041      324.475      -11.882      873.762
12/09/2013  10:02:00       78.312       69.535       22.908       48.126       43.155       31.157     2316.068     1862.334      970.774        0.832        0.257      104.728       24.874        0.056      324.789      -11.374      873.734
12/09/2013  10:03:00      140.646      103.549       10.189       36.579       34.445       34.124     1338.050     1186.451     1164.469        1.715        0.184      174.653       26.148        0.022      324.603      -11.674      873.733
12/09/2013  10:04:00      124.146      106.091       18.701       46.940       45.924       32.483     2203.323     2109.057     1055.114        1.619        0.268      163.302       16.393        0.010      324.634      -11.625      873.730
12/09/2013  10:05:00      120.907       82.922        3.233       36.288       30.413       26.098     1316.823      924.923      681.126        1.221        0.146      146.610       15.827        0.012      324.650      -11.599      873.734
12/09/2013  10:06:00      127.116       91.520       16.413       49.089       27.094       39.032     2409.767      734.110     1523.494        1.473        0.233      156.634       16.894        0.012      324.711      -11.501      873.749
12/09/2013  10:07:00       19.276       55.175       39.825       58.991       43.945       28.598     3479.966     1931.120      817.832        0.561        0.311       58.445       24.337        0.173      325.300      -10.550      873.771
12/09/2013  10:08:00       77.071       67.906       -0.255       34.322       41.992       33.412     1178.027     1763.292     1116.351        0.730        0.203      102.719       23.593        0.053      324.890      -11.211      873.795
12/09/2013  10:09:00       61.085       46.107       14.223       47.191       33.141       34.903     2227.032     1098.343     1218.227        0.530        0.227       76.532       26.898        0.124      325.113      -10.851      873.807
12/09/2013  10:10:00       94.968       81.832        5.661       44.815       32.733       34.468     2008.345     1071.470     1188.041        1.001        0.213      125.361       18.975        0.023      324.819      -11.325      873.819
12/09/2013  10:11:00       29.335       66.459       71.753       53.314       37.450       41.101     2842.337     1402.526     1689.283        0.818        0.297       72.646       30.599        0.177      325.258      -10.617      873.831
12/09/2013  10:12:00        5.808       72.228       56.444       34.607       47.421       39.435     1197.673     2248.754     1555.147        0.672        0.250       72.461       17.316        0.057      325.567      -10.119      873.847
12/09/2013  10:13:00       13.565       41.891       53.572       43.831       31.266       28.380     1921.136      977.538      805.429        0.426        0.185       44.032       26.565        0.364      325.566      -10.121      873.861
12/09/2013  10:14:00       47.373       60.115       -5.225       41.748       37.264       39.178     1742.865     1388.614     1534.910        0.527        0.233       76.538       22.739        0.088      325.124      -10.834      873.855
12/09/2013  10:15:00       33.579       76.767       83.667       35.836       46.439       23.165     1284.203     2156.612      536.598        0.900        0.199       83.790       26.639        0.101      325.362      -10.450      873.823
12/09/2013  10:16:00       51.700       47.647       51.433       61.069       40.601       36.456     3729.481     1648.407     1329.064        0.715        0.335       70.308       25.940        0.136      325.331      -10.498      873.811
12/09/2013  10:17:00       39.399       83.726       80.839       45.217       39.552       32.847     2044.534     1564.341     1078.953        0.989        0.234       92.532       25.716        0.077      325.250      -10.630      873.806
12/09/2013  10:18:00      102.168      108.014       62.402       50.438       29.429       42.254     2543.943      866.048     1785.400        1.560        0.260      148.678       35.563        0.057      325.073      -10.916      873.802
12/09/2013  10:19:00      126.362       76.767       24.891       36.499       31.247       36.791     1332.193      976.391     1353.543        1.307        0.183      147.853       23.689        0.026      324.978      -11.069      873.796
12/09/2013  10:20:00       58.885       51.120       14.456       33.210       29.276       34.917     1102.878      857.092     1219.170        0.473        0.159       77.979       11.232        0.021      325.322      -10.513      873.798
12/09/2013  10:21:00       79.399       60.972       43.129       57.256       35.894       38.047     3278.278     1288.355     1447.543        0.895        0.301      100.109       30.070        0.090      325.313      -10.527      873.782
12/09/2013  10:22:00       37.105       57.234       39.771       43.284       27.496       19.392     1873.475      756.020      376.057        0.462        0.150       68.209       21.643        0.101      325.197      -10.714      873.766
12/09/2013  10:23:00       61.837       45.398       43.149       33.732       35.604       39.806     1137.851     1267.652     1584.510        0.587        0.200       76.712       26.438        0.119      325.442      -10.320      873.742
12/09/2013  10:24:00       57.804       73.341       37.076       49.260       35.495       31.959     2426.503     1259.908     1021.381        0.740        0.235       93.383       24.248        0.067      325.484      -10.250      873.722
12/09/2013  10:25:00       41.164       47.603       49.326       48.843       48.072       32.837     2385.596     2310.875     1078.279        0.608        0.289       62.933       26.555        0.178      325.844       -9.670      873.699
12/09/2013  10:26:00       59.082       78.583       71.335       50.675       39.435       38.927     2567.926     1555.101     1515.291        1.020        0.282       98.315       32.731        0.111      325.494      -10.236      873.685
12/09/2013  10:27:00        4.620       38.291       89.143       28.547       47.699       31.306      814.949     2275.160      980.057        0.675        0.204       38.569       28.600        0.550      326.036       -9.360      873.667
12/09/2013  10:28:00       10.264       68.159      108.404       41.004       50.971       32.461     1681.287     2598.013     1053.706        1.092        0.267       68.927       32.407        0.221      325.640      -10.000      873.647
12/09/2013  10:29:00       52.299       33.874       42.723       55.579       36.430       33.417     3088.975     1327.173     1116.687        0.562        0.277       62.311       22.475        0.130      325.898       -9.584      873.646
12/09/2013  10:30:00       -9.654       52.271       20.006       21.952       48.577       31.277      481.885     2359.725      978.245        0.352        0.191       53.155       30.611        0.332      326.136       -9.199      873.633
12/09/2013  10:31:00        6.496       39.857       21.995       31.235       32.435       22.206      975.609     1052.034      493.117        0.232        0.126       40.383       22.550        0.312      326.225       -9.054      873.628
12/09/2013  10:32:00       70.205       68.606       18.986       38.230       44.908       32.312     1461.555     2016.738     1044.094        0.726        0.226       98.160       11.394        0.013      325.704       -9.897      873.616
12/09/2013  10:33:00       44.820       53.592        2.812       34.452       38.014       26.230     1186.951     1445.096      688.010        0.410        0.166       69.864       19.279        0.076      325.531      -10.177      873.580
12/09/2013  10:34:00       36.786       74.367       68.914       44.689       47.297       41.234     1997.065     2237.042     1700.222        0.878        0.297       82.968       25.168        0.092      325.609      -10.050      873.563
12/09/2013  10:35:00       58.495       90.897       87.341       62.927       36.666       41.829     3959.806     1344.365     1749.704        1.318        0.353      108.093       39.482        0.133      325.577      -10.102      873.556
12/09/2013  10:36:00      108.793       51.686       10.968       60.705       49.230       33.704     3685.051     2423.612     1135.931        1.093        0.362      120.446       30.914        0.066      325.407      -10.378      873.550
12/09/2013  10:37:00       85.268       51.584       19.777       42.894       42.498       36.266     1839.894     1806.113     1315.215        0.764        0.248       99.658       24.717        0.062      325.399      -10.389      873.552
12/09/2013  10:38:00       90.987       80.505       12.098       56.521       58.749       30.873     3194.671     3451.469      953.164        1.125        0.380      121.489       17.076        0.020      325.529      -10.180      873.539
12/09/2013  10:39:00      110.397       89.202       21.475       50.510       47.681       47.222     2551.308     2273.432     2229.937        1.383        0.353      141.931       27.176        0.037      325.801       -9.740      873.527
12/09/2013  10:40:00      111.282       64.685       11.110       54.507       57.940       36.313     2970.969     3357.034     1318.637        1.217        0.382      128.716       34.690        0.073      325.649       -9.987      873.499
12/09/2013  10:41:00       92.255       45.199       17.603       29.132       44.176       32.074      848.660     1951.551     1028.725        0.735        0.191      102.733       24.625        0.057      325.295      -10.558      873.493
12/09/2013  10:42:00      103.268       62.788       32.187       44.262       40.516       37.838     1959.081     1641.562     1431.738        1.034        0.252      120.857       22.329        0.034      325.648       -9.989      873.477
12/09/2013  10:43:00      111.999       97.683       67.058       57.939       48.194       55.877     3356.905     2322.663     3122.229        1.769        0.440      148.613       46.763        0.099      325.620      -10.032      873.458
12/09/2013  10:44:00       58.036      109.044       94.514       60.325       43.514       38.341     3639.164     1893.506     1470.049        1.560        0.350      123.527       37.173        0.091      325.773       -9.785      873.454
12/09/2013  10:45:00       70.852       94.492       89.666       86.074       53.165       39.049     7408.745     2826.494     1524.792        1.687        0.588      118.105       37.555        0.101      325.672       -9.950      873.456
12/09/2013  10:46:00      117.801       76.625       37.955       42.306       42.497       39.344     1789.800     1806.030     1547.972        1.317        0.257      140.530       25.074        0.032      325.689       -9.921      873.451
12/09/2013  10:47:00       89.901       73.590       24.407       50.353       48.566       41.556     2535.439     2358.614     1726.898        1.036        0.331      116.179       26.507        0.052      325.647       -9.989      873.428
12/09/2013  10:48:00       46.696       70.466       74.843       62.370       61.167       50.163     3890.048     3741.405     2516.365        1.145        0.507       84.534       46.040        0.297      326.090       -9.274      873.400
12/09/2013  10:49:00      118.121       90.977       59.224       37.187       37.357       43.817     1382.874     1395.533     1919.964        1.522        0.235      149.096       30.436        0.042      325.570      -10.114      873.395
12/09/2013  10:50:00       86.004       76.503       65.210       50.259       54.531       49.661     2525.976     2973.584     2466.222        1.273        0.398      115.106       37.260        0.105      325.770       -9.791      873.385
12/09/2013  10:51:00       22.627       26.745       71.028       35.685       58.068       30.978     1273.398     3371.861      959.613        0.594        0.280       35.032       21.818        0.388      326.327       -8.888      873.369
12/09/2013  10:52:00       16.051       23.579       60.111       39.403       32.962       28.893     1552.589     1086.468      834.792        0.395        0.174       28.524       19.289        0.457      326.407       -8.761      873.367
12/09/2013  10:53:00       38.738      -25.950       22.970       53.446       87.284       49.235     2856.485     7618.471     2424.044        0.780        0.645       46.626       57.419        1.516      326.224       -9.058      873.345
12/09/2013  10:54:00       54.867       -8.093       17.347       52.382       78.791       54.420     2743.909     6208.000     2961.541        0.764        0.596       55.461       57.898        1.090      326.100       -9.257      873.330
12/09/2013  10:55:00       70.333     -123.883        9.331       69.088      107.090       52.613     4773.125    11468.282     2768.114        1.969        0.950      142.455       62.854        0.195      325.925       -9.542      873.301
12/09/2013  10:56:00       13.538        1.449       38.980       28.411       54.353       29.353      807.187     2954.235      861.597        0.316        0.231       13.615       31.485        5.347      326.280       -8.965      873.290
12/09/2013  10:57:00       34.627       44.321       55.462       49.997       46.045       36.111     2499.737     2120.166     1303.982        0.608        0.296       56.244       24.892        0.196      326.415       -8.746      873.261
12/09/2013  10:58:00       34.408       84.321      102.164       75.365       74.985       47.486     5679.869     5622.812     2254.923        1.614        0.678       91.072       42.515        0.218      326.417       -8.745      873.243
12/09/2013  10:59:00      117.611      131.934      101.172       48.612       36.328       38.883     2363.156     1319.723     1511.921        2.333        0.260      176.745       25.067        0.020      325.753       -9.818      873.234
12/09/2013  11:00:00      111.508       69.351       76.488       86.802       56.612       58.850     7534.553     3204.864     3463.301        1.865        0.710      131.315       54.062        0.169      325.884       -9.606      873.244
12/09/2013  11:01:00       33.551       89.737       83.760       57.013       52.039       57.810     3250.519     2708.054     3341.956        1.275        0.465       95.804       53.327        0.310      325.969       -9.470      873.224
12/09/2013  11:02:00      149.477      102.053       27.304       51.277       41.423       51.930     2629.378     1715.829     2696.686        2.027        0.352      180.993       28.914        0.026      325.772       -9.788      873.206
12/09/2013  11:03:00      108.540       91.696       24.176       35.984       23.371       38.155     1294.883      546.219     1455.795        1.203        0.165      142.088       16.831        0.014      325.658       -9.972      873.188
12/09/2013  11:04:00      164.063      105.369       31.073       40.171       38.567       34.340     1613.704     1487.408     1179.249        2.163        0.214      194.985       22.868        0.014      325.723       -9.867      873.157
12/09/2013  11:05:00      152.051       99.470       45.966       68.833       42.580       56.156     4737.918     1813.039     3153.538        2.241        0.485      181.697       43.340        0.057      325.703       -9.900      873.132
12/09/2013  11:06:00       94.916       43.639       13.588       54.824       61.772       38.809     3005.688     3815.786     1506.167        0.971        0.416      104.467       30.254        0.084      325.760       -9.807      873.088
12/09/2013  11:07:00       89.315       46.353       17.378       52.389       45.708       25.327     2744.594     2089.233      641.445        0.795        0.274      100.627       21.679        0.046      325.717       -9.876      873.058
12/09/2013  11:08:00      128.821      116.899       83.763       69.859       66.962       72.418     4880.289     4483.876     5244.353        2.594        0.730      173.955       61.860        0.126      326.041       -9.353      873.015
12/09/2013  11:09:00       70.026      149.361      118.968       82.630       55.541       52.197     6827.786     3084.834     2724.539        2.700        0.632      164.962       30.406        0.034      325.938       -9.520      872.991
12/09/2013  11:10:00       85.703      118.645      111.923       62.042       71.405       59.865     3849.213     5098.698     3583.804        2.324        0.627      146.361       46.169        0.100      326.057       -9.328      872.962
12/09/2013  11:11:00      156.570      129.341       78.529       69.392       55.364       65.742     4815.274     3065.209     4321.992        2.980        0.610      203.084       46.076        0.051      325.950       -9.501      872.923
12/09/2013  11:12:00       99.251      104.689       89.976       79.315       49.446       56.870     6290.869     2444.885     3234.202        2.044        0.598      144.259       48.719        0.114      326.002       -9.417      872.891
12/09/2013  11:13:00       72.744       25.378       29.878       63.740      102.553       56.741     4062.778    10517.164     3219.586        1.231        0.890       77.043       62.848        0.665      325.969       -9.468      872.847
12/09/2013  11:14:00      125.211     -108.002       12.377       73.740      100.599       64.284     5437.584    10120.091     4132.378        2.359        0.985      165.355       78.560        0.226      325.935       -9.525      872.830
12/09/2013  11:15:00       51.479       82.984       85.322       48.138       40.344       31.937     2317.245     1627.637     1019.962        1.089        0.248       97.655       26.570        0.074      326.141       -9.191      872.836
12/09/2013  11:16:00       35.341       26.835       48.998       43.511       61.446       40.791     1893.211     3775.658     1663.921        0.585        0.367       44.375       24.597        0.307      326.696       -8.292      872.834
12/09/2013  11:17:00       38.439      -25.558       75.439       56.961      163.865       83.760     3244.503    26851.691     7015.751        2.246        1.856       46.160      108.683        5.544      326.252       -9.011      872.862
12/09/2013  11:18:00       79.884       85.286       87.572       69.266       67.518       58.316     4797.775     4558.698     3400.721        1.704        0.638      116.855       55.549        0.226      326.222       -9.060      872.893
12/09/2013  11:19:00      151.135      109.298       69.021       78.122       53.091       76.872     6103.017     2818.656     5909.375        2.719        0.742      186.515       62.569        0.113      326.129       -9.212      872.921
12/09/2013  11:20:00      178.045      113.792       50.429       61.610       53.426       56.039     3795.783     2854.390     3140.389        2.849        0.490      211.303       29.804        0.020      326.138       -9.196      872.946
12/09/2013  11:21:00      110.285       63.222       64.367       69.154       61.345       51.267     4782.319     3763.159     2628.275        1.574        0.559      127.121       32.455        0.065      326.414       -8.748      873.001
12/09/2013  11:22:00       91.737       62.480       28.947       66.783       49.867       41.263     4459.955     2486.747     1702.617        1.090        0.432      110.993       13.021        0.014      326.357       -8.841      873.005
12/09/2013  11:23:00      135.700      101.936        5.907       42.925       55.031       43.620     1842.585     3028.452     1902.678        1.781        0.339      169.721       16.233        0.009      326.076       -9.297      873.000
12/09/2013  11:24:00       30.994       51.070       28.160       36.357       48.742       31.425     1321.825     2375.787      987.544        0.452        0.234       59.740       22.585        0.143      326.466       -8.663      872.988
12/09/2013  11:25:00       48.058       86.883       46.196       60.444       57.730       49.726     3653.483     3332.762     2472.711        1.072        0.473       99.288       33.126        0.111      326.557       -8.515      872.960
12/09/2013  11:26:00       57.699      100.174      -10.506       49.170       72.895       48.883     2417.722     5313.659     2389.560        1.180        0.506      115.603       44.080        0.145      326.180       -9.127      872.952
12/09/2013  11:27:00      120.478       86.348        8.540       42.425       36.472       31.639     1799.917     1330.187     1001.033        1.309        0.207      148.226        8.037        0.003      326.210       -9.078      872.925
12/09/2013  11:28:00       47.717       82.980       56.296       52.900       54.434       52.808     2798.379     2963.099     2788.647        1.044        0.428       95.721       35.865        0.140      326.840       -8.057      872.910
12/09/2013  11:29:00       98.145      106.515       92.041       72.757       40.013       49.909     5293.520     1601.042     2490.949        1.942        0.469      144.838       44.715        0.095      326.368       -8.823      872.903
12/09/2013  11:30:00       -7.081       39.760       85.316       36.048       46.268       40.982     1299.440     2140.758     1679.559        0.701        0.256       40.385       35.351        0.766      326.647       -8.370      872.881
12/09/2013  11:31:00       14.817        2.274        7.971       30.026       25.529       24.663      901.589      651.748      608.249        0.122        0.108       14.990       11.579        0.597      326.832       -8.071      872.850
12/09/2013  11:32:00        7.287       13.834       -4.316       33.938       32.827       22.297     1151.777     1077.587      497.134        0.149        0.136       15.635        3.834        0.060      326.988       -7.817      872.841
12/09/2013  11:33:00       54.751      138.057      -21.132       42.797       57.510       36.863     1831.549     3307.401     1358.863        1.450        0.325      148.518       29.904        0.041      326.384       -8.797      872.848
12/09/2013  11:34:00       20.609       42.468        5.929       30.574       44.729       30.866      934.762     2000.692      952.688        0.307        0.194       47.204       31.283        0.439      326.533       -8.556      872.850
12/09/2013  11:35:00       30.440       47.042       12.449       34.042       35.497       28.109     1158.857     1260.051      790.095        0.325        0.160       56.032       22.376        0.159      326.424       -8.732      872.845
12/09/2013  11:36:00       27.038       76.900        8.996       36.943       55.271       38.303     1364.797     3054.835     1467.134        0.631        0.294       81.515       34.965        0.184      326.590       -8.463      872.839
12/09/2013  11:37:00       37.986      132.087       -7.519       44.520       71.405       40.681     1982.029     5098.677     1654.966        1.384        0.437      137.440       41.688        0.092      326.370       -8.819      872.843
12/09/2013  11:38:00      106.546      109.481       -2.528       88.037       66.744       53.079     7750.561     4454.713     2817.330        1.918        0.751      152.768       42.034        0.076      326.336       -8.876      872.844
12/09/2013  11:39:00      142.724      102.939       12.211       60.318       26.405       47.623     3638.309      697.212     2267.930        1.886        0.330      175.973       24.444        0.019      326.240       -9.031      872.849
12/09/2013  11:40:00       82.910       50.195        6.783       41.088       32.775       31.553     1688.217     1074.183      995.606        0.660        0.188       96.920       22.243        0.053      326.375       -8.811      872.845
12/09/2013  11:41:00       40.643       47.415        7.023       47.577       28.103       25.438     2263.592      789.780      647.112        0.382        0.185       62.451       14.309        0.052      326.576       -8.486      872.843
12/09/2013  11:42:00       11.605       15.746       13.911       20.909       25.710       27.235      437.205      661.003      741.763        0.121        0.092       19.561       10.268        0.276      326.980       -7.831      872.836
12/09/2013  11:43:00       15.673       83.945       86.471       31.452       38.512       24.979      989.258     1483.159      623.962        0.893        0.155       85.396       16.755        0.038      326.810       -8.106      872.834
12/09/2013  11:44:00        4.671       71.722       38.461       35.351       44.963       44.274     1249.662     2021.697     1960.206        0.594        0.262       71.874       32.716        0.207      327.066       -7.692      872.833
12/09/2013  11:45:00       59.705       51.303       16.189       38.228       37.367       40.822     1461.369     1396.268     1666.466        0.549        0.226       78.719       24.822        0.099      326.620       -8.414      872.819
12/09/2013  11:46:00       16.378      -11.143       25.263       27.916       42.933       29.414      779.284     1843.237      865.204        0.226        0.174       19.809       11.231        0.321      327.084       -7.662      872.773
12/09/2013  11:47:00       89.568       67.818       11.646       63.169       50.729       41.203     3990.333     2573.406     1697.666        1.051        0.413      112.346       22.799        0.041      326.724       -8.245      872.740
12/09/2013  11:48:00      171.433       99.532        9.830       66.845       50.368       51.657     4468.213     2536.973     2668.491        2.453        0.484      198.232       30.709        0.024      326.483       -8.640      872.705
12/09/2013  11:49:00        4.756      144.585       -8.195       50.003       52.586       35.273     2500.279     2765.242     1244.175        1.375        0.325      144.663       28.818        0.040      326.595       -8.454      872.697
12/09/2013  11:50:00       30.034       52.750        2.955       30.093       49.118       27.067      905.602     2412.574      732.645        0.387        0.203       60.701       24.784        0.167      326.666       -8.340      872.676
12/09/2013  11:51:00       83.650       76.472       -3.917       40.052       27.590       29.769     1604.174      761.183      886.187        0.806        0.163      113.337       15.506        0.019      326.592       -8.461      872.652
12/09/2013  11:52:00      137.811      115.830       24.794       71.808       48.531       50.638     5156.423     2355.291     2564.247        2.155        0.504      180.024       31.435        0.030      326.721       -8.253      872.640
12/09/2013  11:53:00      145.108       92.667       41.492       51.315       42.789       50.112     2633.280     1830.884     2511.239        1.917        0.349      172.173       29.962        0.030      326.466       -8.665      872.638
12/09/2013  11:54:00      173.296      110.903        7.198       44.884       36.131       36.550     2014.557     1305.472     1335.899        2.352        0.233      205.745       23.260        0.013      326.313       -8.913      872.633
12/09/2013  11:55:00      124.628       81.463       23.981       57.621       40.062       33.660     3320.167     1604.966     1133.010        1.440        0.303      148.890       10.088        0.005      326.504       -8.602      872.640
12/09/2013  11:56:00       40.013       45.515      -10.659       44.305       36.739       24.061     1962.893     1349.736      578.955        0.384        0.195       60.602       25.921        0.183      326.594       -8.456      872.636
12/09/2013  11:57:00       34.293       19.751       17.151       23.897       18.606       16.297      571.060      346.176      265.597        0.152        0.059       39.574       11.067        0.078      326.867       -8.014      872.631
12/09/2013  11:58:00        4.934       34.956       10.780       21.832       22.326       24.363      476.637      498.455      593.552        0.147        0.078       35.302        8.327        0.056      326.839       -8.059      872.610
12/09/2013  11:59:00        9.162      -11.876       24.188       19.049       40.032       21.190      362.871     1602.566      449.013        0.161        0.121       14.999       14.587        0.946      327.104       -7.628      872.602
12/09/2013  12:00:00       57.711       34.059       58.925       54.720       45.189       40.149     2994.294     2042.031     1611.979        0.730        0.332       67.012       41.872        0.390      327.107       -7.624      872.581
12/09/2013  12:01:00       16.563       95.972      116.959       46.387       57.290       30.979     2151.792     3282.183      959.690        1.478        0.320       97.391       32.107        0.109      326.971       -7.846      872.581
12/09/2013  12:02:00      113.709       80.643       39.105       52.783       33.335       30.335     2786.097     1111.235      920.204        1.289        0.241      139.402       30.289        0.047      326.526       -8.567      872.580
12/09/2013  12:03:00       28.813      -25.013       19.998       49.756       28.811       17.940     2475.627      830.074      321.827        0.274        0.181       38.156       16.072        0.177      326.897       -7.966      872.573
12/09/2013  12:04:00       98.499       58.430       15.134       62.573       43.789       32.224     3915.343     1917.515     1038.361        1.011        0.344      114.525       25.671        0.050      326.976       -7.837      872.547
12/09/2013  12:05:00       20.849       59.590       75.107       52.812       49.265       33.191     2789.082     2427.071     1101.674        0.797        0.316       63.132       27.820        0.194      327.235       -7.416      872.533
12/09/2013  12:06:00       68.009       53.204       68.931       72.497       84.478       48.283     5255.747     7136.557     2331.276        1.346        0.736       86.347       44.245        0.263      327.068       -7.688      872.507
12/09/2013  12:07:00      126.703      143.025      102.137       61.964       47.362       46.743     3839.598     2243.115     2184.929        2.760        0.413      191.075       42.405        0.049      326.744       -8.217      872.501
12/09/2013  12:08:00      114.366       80.221       72.290       58.623       51.750       43.105     3436.600     2678.093     1858.038        1.636        0.399      139.696       39.850        0.081      326.761       -8.188      872.513
12/09/2013  12:09:00       37.739       16.500       51.555       32.207       43.359       35.790     1037.264     1880.007     1280.891        0.428        0.210       41.188       34.254        0.692      326.978       -7.834      872.522
12/09/2013  12:10:00       54.236       29.977       52.327       39.107       44.196       31.624     1529.370     1953.322     1000.069        0.553        0.224       61.969       26.425        0.182      327.030       -7.750      872.523
12/09/2013  12:11:00       48.811       44.848       51.317       36.872       29.359       26.168     1359.513      861.939      684.776        0.497        0.145       66.286       19.731        0.089      326.886       -7.984      872.499
12/09/2013  12:12:00       32.163       19.395       44.690       37.853       46.434       28.697     1432.852     2156.077      823.520        0.391        0.221       37.558       28.143        0.561      327.137       -7.575      872.499
12/09/2013  12:13:00       27.609       27.339       23.291       36.462       26.718       29.388     1329.498      713.863      863.650        0.248        0.145       38.855       26.136        0.452      327.396       -7.156      872.484
12/09/2013  12:14:00      -21.550       12.178      -10.437       28.901       27.477       18.548      835.295      754.994      344.032        0.133        0.097       24.753       13.382        0.292      326.948       -7.882      872.490
12/09/2013  12:15:00       14.164       14.321        8.358       23.335       16.355       15.095      544.534      267.496      227.860        0.076        0.052       20.142        6.417        0.101      327.141       -7.569      872.498
12/09/2013  12:16:00       -3.574       23.690        9.562       47.031       25.358       22.484     2211.900      643.032      505.553        0.201        0.168       23.958       18.676        0.608      327.073       -7.679      872.498
12/09/2013  12:17:00      -19.827       38.369       10.566       30.854       44.888       21.621      951.967     2014.897      467.485        0.270        0.172       43.189       25.059        0.337      327.394       -7.158      872.507
12/09/2013  12:18:00       20.772       37.586       46.986       38.290       38.265       31.769     1466.108     1464.175     1009.273        0.399        0.197       42.944       20.238        0.222      327.399       -7.150      872.507
12/09/2013  12:19:00       38.269       76.341      109.766       56.768       46.360       34.104     3222.591     2149.242     1163.089        1.294        0.327       85.396       36.324        0.181      327.203       -7.469      872.494
12/09/2013  12:20:00        6.942       98.668      108.519       45.872       56.430       47.779     2104.256     3184.369     2282.818        1.456        0.379       98.912       38.616        0.152      327.193       -7.484      872.457
12/09/2013  12:21:00       77.107       75.882       21.038       66.592       40.211       39.840     4434.499     1616.910     1587.199        0.989        0.382      108.183       31.190        0.083      327.374       -7.192      872.455
12/09/2013  12:22:00       34.985      106.509      -13.676       46.040       53.364       33.771     2119.668     2847.762     1140.509        0.943        0.305      112.108       31.186        0.077      327.024       -7.759      872.467
12/09/2013  12:23:00      -22.944       93.642      -13.122       46.079       37.167       31.566     2123.259     1381.400      996.431        0.698        0.225       96.412       34.032        0.125      326.990       -7.813      872.459
12/09/2013  12:24:00       99.002       51.424       20.539       43.204       32.152       27.818     1866.602     1033.738      773.827        0.827        0.184      111.561       20.115        0.033      326.980       -7.831      872.468
12/09/2013  12:25:00      118.364       83.776       34.794       49.689       36.665       48.181     2468.948     1344.316     2321.385        1.419        0.307      145.012       36.262        0.063      327.051       -7.714      872.455
12/09/2013  12:26:00       68.810       75.466       60.588       83.718       54.475       38.595     7008.661     2967.563     1489.588        1.278        0.573      102.127       21.948        0.046      327.357       -7.219      872.452
12/09/2013  12:27:00       84.656       78.755       13.572       32.969       38.334       35.645     1086.946     1469.478     1270.566        0.869        0.191      115.624       21.987        0.036      327.170       -7.523      872.442
12/09/2013  12:28:00       99.988       68.981       11.758       33.726       24.554       34.194     1137.453      602.912     1169.233        0.890        0.145      121.475       15.808        0.017      327.089       -7.654      872.432
12/09/2013  12:29:00       54.339       -0.231        4.908       30.817       44.198       29.248      949.708     1953.502      855.464        0.337        0.188       54.340       27.874        0.263      327.090       -7.653      872.412
12/09/2013  12:30:00       16.121        2.556        8.284       27.075       29.884       23.840      733.038      893.025      568.363        0.126        0.110       16.322       12.211        0.560      327.515       -6.961      872.379
12/09/2013  12:31:00       20.154      -31.577       17.045       26.608       37.067       20.663      707.996     1373.946      426.949        0.210        0.125       37.461        6.642        0.031      327.648       -6.745      872.372
12/09/2013  12:32:00       23.331       29.586       45.106       34.733       37.669       25.757     1206.372     1418.973      663.436        0.337        0.164       37.678       23.749        0.397      327.597       -6.829      872.370
12/09/2013  12:33:00       42.506       31.874       39.475       45.559       41.482       38.230     2075.654     1720.791     1461.518        0.482        0.263       53.129       34.016        0.410      327.443       -7.079      872.404
12/09/2013  12:34:00        7.766       14.280       25.122       18.656       24.431       16.174      348.051      596.867      261.609        0.105        0.060       16.255       12.333        0.576      327.673       -6.705      872.428
12/09/2013  12:35:00       -6.570       57.242       -8.674       22.790       72.285       27.928      519.362     5225.181      779.997        0.496        0.326       57.618       31.675        0.302      327.546       -6.911      872.455
12/09/2013  12:36:00       -7.815       69.230      -22.305       31.396       49.012       27.670      985.738     2402.157      765.648        0.475        0.208       69.670       28.067        0.162      327.388       -7.168      872.467
12/09/2013  12:37:00       54.414       47.110       10.461       41.805       33.795       41.928     1747.658     1142.113     1757.957        0.497        0.232       71.974       26.290        0.133      327.458       -7.055      872.476
12/09/2013  12:38:00       24.213       28.278       18.543       45.670       32.584       28.405     2085.738     1061.748      806.844        0.284        0.198       37.228       21.289        0.327      327.681       -6.692      872.477
12/09/2013  12:39:00       36.325       24.890       15.048       58.569       40.382       34.436     3430.382     1630.718     1185.827        0.420        0.312       44.034       20.529        0.217      327.745       -6.587      872.475
12/09/2013  12:40:00       41.724      122.337      117.793       68.535       61.791       63.202     4696.989     3818.162     3994.483        2.154        0.625      129.257       59.387        0.211      327.687       -6.683      872.463
12/09/2013  12:41:00      104.681       94.729       79.486       58.031       61.924       53.629     3367.552     3834.627     2876.122        1.816        0.504      141.179       42.043        0.089      327.450       -7.069      872.453
12/09/2013  12:42:00       76.013       76.658       64.548       54.384       51.271       35.139     2957.606     2628.742     1234.755        1.132        0.341      107.956       30.354        0.079      327.500       -6.986      872.456
12/09/2013  12:43:00       15.990      -87.834        2.744       35.543       64.245       31.409     1263.320     4127.466      986.541        0.718        0.319       89.278       25.252        0.080      327.720       -6.628      872.461
12/09/2013  12:44:00       73.143       76.366       31.157       44.838       34.175       30.242     2010.450     1167.963      914.590        0.812        0.205      105.744       24.370        0.053      327.574       -6.867      872.483
12/09/2013  12:45:00       19.584       14.994       58.483       38.102       47.392       22.668     1451.748     2245.980      513.841        0.412        0.211       24.665       29.432        1.424      328.019       -6.141      872.484
12/09/2013  12:46:00       -7.273       54.752       79.177       21.616       58.653       39.512      467.257     3440.188     1561.232        0.739        0.273       55.233       40.666        0.542      327.927       -6.291      872.489
12/09/2013  12:47:00       89.012       68.029       39.314       66.199       45.230       47.778     4382.325     2045.786     2282.702        1.140        0.436      112.032       40.631        0.132      327.549       -6.906      872.495
12/09/2013  12:48:00       35.310       64.718       71.085       48.027       68.729       55.058     2306.556     4723.641     3031.422        1.027        0.503       73.724       43.531        0.349      327.795       -6.508      872.485
12/09/2013  12:49:00      112.913       77.707       42.832       35.462       32.824       32.208     1257.520     1077.420     1037.326        1.200        0.169      137.069       22.263        0.026      327.309       -7.296      872.483
12/09/2013  12:50:00       42.956       34.839       25.651       43.938       32.453       25.401     1930.548     1053.203      645.234        0.367        0.181       55.308       20.375        0.136      327.498       -6.989      872.457
12/09/2013  12:51:00       79.742       33.065        8.457       55.474       44.352       23.551     3077.324     1967.076      554.671        0.656        0.280       86.325       26.979        0.098      327.373       -7.192      872.433
12/09/2013  12:52:00       89.100       11.122        8.107       54.996       43.204       28.160     3024.524     1866.553      792.980        0.691        0.284       89.791       12.743        0.020      327.660       -6.726      872.390
12/09/2013  12:53:00        6.523       39.385       12.983       36.890       45.124       30.525     1360.839     2036.137      931.798        0.304        0.216       39.922       24.096        0.364      327.767       -6.551      872.368
12/09/2013  12:54:00       74.494      111.965       89.610       75.856       48.435       53.551     5754.139     2345.973     2867.750        1.854        0.548      134.483       55.750        0.172      327.567       -6.877      872.347
12/09/2013  12:55:00       90.225       82.704       96.209       65.793       57.629       63.884     4328.778     3321.145     4081.215        1.798        0.587      122.395       43.408        0.126      327.526       -6.945      872.356
12/09/2013  12:56:00       97.301      106.369       79.220       70.483       37.298       34.055     4967.894     1391.172     1159.753        1.729        0.376      144.159       27.732        0.037      327.555       -6.896      872.366
12/09/2013  12:57:00       54.010       90.644      105.283       63.228       58.016       46.454     3997.719     3365.846     2158.011        1.587        0.476      105.515       41.540        0.155      327.805       -6.491      872.359
12/09/2013  12:58:00       15.326       89.312      112.320       46.160       66.350       48.151     2130.721     4402.370     2318.498        1.484        0.443       90.618       51.080        0.318      327.638       -6.762      872.369
12/09/2013  12:59:00       47.840       72.547       86.282       50.205       37.505       47.559     2520.555     1406.617     2261.870        1.059        0.309       86.901       36.026        0.172      327.669       -6.712      872.362
12/09/2013  13:00:00       34.860      -16.412       51.794       56.986       79.501       53.206     3247.455     6320.460     2830.890        0.828        0.620       38.530       53.823        1.951      328.032       -6.121      872.344
12/09/2013  13:01:00       37.348      -81.040       18.168       57.856       72.621       36.233     3347.296     5273.854     1312.835        0.911        0.497       89.232       47.773        0.287      327.802       -6.494      872.347
12/09/2013  13:02:00       69.545      -65.560       19.304       63.629       74.560       53.692     4048.625     5559.123     2882.823        1.100        0.625       95.575       62.111        0.422      327.717       -6.634      872.359
12/09/2013  13:03:00       80.292      -91.738       -9.902       34.402       39.593       36.063     1183.490     1567.586     1300.558        0.951        0.203      121.913       20.076        0.027      327.548       -6.908      872.356
12/09/2013  13:04:00      105.804     -141.922       -5.275       39.788       31.842       23.129     1583.110     1013.915      534.968        1.725        0.157      177.021       15.651        0.008      327.383       -7.177      872.358
12/09/2013  13:05:00       56.046      -16.947       34.416       56.129       99.691       66.782     3150.473     9938.201     4459.902        1.108        0.877       58.552       69.782        1.420      327.750       -6.580      872.359
12/09/2013  13:06:00       29.435      -45.689       -9.484       36.656       50.476       36.798     1343.699     2547.816     1354.099        0.414        0.262       54.350       31.922        0.345      327.589       -6.842      872.355
12/09/2013  13:07:00       32.959      -14.565       17.716       44.753       45.955       30.405     2002.847     2111.905      924.479        0.332        0.252       36.033       27.252        0.572      327.969       -6.224      872.369
12/09/2013  13:08:00       43.550       21.809       11.908       40.758       22.064       24.976     1661.255      486.812      623.788        0.264        0.139       48.706       18.076        0.138      327.898       -6.338      872.411
12/09/2013  13:09:00       98.947       55.160       10.318       38.439       30.909       30.227     1477.528      955.351      913.697        0.814        0.167      113.283       12.153        0.012      327.854       -6.411      872.445
12/09/2013  13:10:00       77.500       77.995       73.004       78.285       43.896       36.822     6128.510     1926.886     1355.884        1.341        0.471      109.952       34.496        0.098      328.117       -5.983      872.457
12/09/2013  13:11:00       54.552       74.924       71.479       70.880       50.188       41.695     5023.925     2518.805     1738.457        1.149        0.464       92.679       18.477        0.040      327.884       -6.362      872.464
12/09/2013  13:12:00       49.296        1.344       20.412       41.878       35.822       41.047     1753.762     1283.190     1684.822        0.378        0.236       49.314       28.841        0.342      327.776       -6.537      872.474
12/09/2013  13:13:00       53.340       46.433       50.935       67.040       69.973       50.470     4494.382     4896.181     2547.180        0.976        0.597       70.719       49.988        0.500      327.861       -6.399      872.476
12/09/2013  13:14:00      127.588      112.949       48.046       58.083       39.831       49.905     3373.688     1586.527     2490.539        1.940        0.373      170.400       45.546        0.071      327.531       -6.936      872.475
12/09/2013  13:15:00       87.588       80.974        7.362       32.609       27.104       35.283     1063.337      734.631     1244.873        0.866        0.152      119.283       16.643        0.019      327.580       -6.856      872.469
12/09/2013  13:16:00       99.847       66.808       11.915       51.182       35.871       31.959     2619.595     1286.718     1021.401        0.975        0.246      120.136       35.728        0.088      327.541       -6.921      872.455
12/09/2013  13:17:00       42.207       53.974       62.289       43.273       44.223       43.803     1872.573     1955.674     1918.688        0.716        0.287       68.517       36.382        0.282      328.004       -6.167      872.459
12/09/2013  13:18:00       61.427       38.533       12.734       42.828       34.263       44.283     1834.225     1173.937     1960.990        0.519        0.248       72.513       31.674        0.191      327.737       -6.601      872.463
12/09/2013  13:19:00       35.050       31.495       13.244       31.294       37.143       20.033      979.342     1379.632      401.318        0.258        0.138       47.122       17.163        0.133      327.899       -6.336      872.453
12/09/2013  13:20:00        0.731      -40.394        2.205       11.923       21.504       15.312      142.165      462.433      234.453        0.124        0.042       40.400        9.197        0.052      328.024       -6.134      872.439
12/09/2013  13:21:00       10.864       27.975       38.248       46.282       46.179       30.436     2141.995     2132.464      926.320        0.378        0.260       30.010       24.561        0.670      328.369       -5.571      872.434
12/09/2013  13:22:00       50.786      -11.168       12.816       59.578       44.083       31.837     3549.513     1943.335     1013.584        0.469        0.325       51.999       23.667        0.207      328.119       -5.978      872.429
12/09/2013  13:23:00       34.157       28.031       48.802       44.880       53.935       38.293     2014.189     2909.026     1466.318        0.536        0.319       44.186       43.777        0.982      328.141       -5.942      872.412
12/09/2013  13:24:00       48.428       85.498       87.899       45.864       40.507       36.385     2103.472     1640.802     1323.861        1.122        0.253       98.261       28.796        0.086      327.994       -6.182      872.386
12/09/2013  13:25:00       27.630       14.342       27.286       47.909       62.587       45.121     2295.225     3917.121     2035.910        0.498        0.412       31.130       26.171        0.707      328.011       -6.154      872.370
12/09/2013  13:26:00       27.697       53.995       75.473       50.220       52.194       43.093     2522.058     2724.240     1857.000        0.824        0.355       60.684       37.673        0.385      328.104       -6.003      872.354
12/09/2013  13:27:00       28.109       97.966      123.895       60.972       62.634       29.969     3717.541     3922.997      898.161        1.714        0.427      101.919       32.483        0.102      327.993       -6.185      872.337
12/09/2013  13:28:00      115.847       84.395       81.380       62.392       60.173       55.946     3892.739     3620.781     3130.003        1.890        0.532      143.328       40.408        0.079      327.798       -6.502      872.344
12/09/2013  13:29:00       60.956       58.807       73.677       37.176       44.830       31.627     1382.059     2009.685     1000.253        0.850        0.220       84.699       23.788        0.079      327.898       -6.339      872.367
12/09/2013  13:30:00       30.490        5.895       19.776       25.038       15.496       24.024      626.909      240.113      577.166        0.140        0.072       31.054       19.443        0.392      327.849       -6.418      872.363
12/09/2013  13:31:00       17.745        0.457        8.772       19.345       16.071       12.515      374.248      258.269      156.633        0.059        0.039       17.751        5.691        0.103      327.836       -6.438      872.350
12/09/2013  13:32:00       47.043        1.282       10.491       24.482       18.123       23.573      599.349      328.458      555.693        0.190        0.074       47.061       10.980        0.054      327.918       -6.306      872.344
12/09/2013  13:33:00       91.003        1.148       25.845       74.998       50.043       42.262     5624.665     2504.290     1786.107        0.943        0.496       91.010       43.916        0.233      327.983       -6.201      872.329
12/09/2013  13:34:00       48.771      130.875      119.349       44.729       33.955       28.652     2000.701     1152.960      820.940        1.886        0.199      139.667       24.205        0.030      327.861       -6.398      872.319
12/09/2013  13:35:00      124.417       95.457       32.822       36.365       26.123       36.430     1322.389      682.400     1327.147        1.450        0.167      156.817       21.489        0.019      327.705       -6.654      872.340
12/09/2013  13:36:00       51.167       41.885       55.241       45.374       52.126       51.003     2058.782     2717.116     2601.310        0.740        0.369       66.124       44.703        0.457      328.050       -6.091      872.362
12/09/2013  13:37:00       95.461       87.316       77.281       42.196       57.480       40.460     1780.520     3303.927     1636.989        1.471        0.336      129.371       31.109        0.058      327.952       -6.252      872.375
12/09/2013  13:38:00       98.638       95.071       63.971       61.199       39.536       34.619     3745.289     1563.097     1198.508        1.468        0.325      136.996       15.777        0.013      327.808       -6.486      872.394
12/09/2013  13:39:00       36.575       59.866       66.576       46.961       62.880       48.731     2205.314     3953.878     2374.738        0.894        0.427       70.155       53.289        0.577      328.036       -6.114      872.393
12/09/2013  13:40:00       29.447       61.725       58.749       46.479       45.461       47.040     2160.274     2066.661     2212.806        0.728        0.322       68.389       35.805        0.274      328.228       -5.801      872.381
12/09/2013  13:41:00       49.881      -66.390       30.550       54.827       90.928       51.908     3006.035     8267.953     2694.399        1.090        0.698       83.040       58.716        0.500      328.402       -5.518      872.374
12/09/2013  13:42:00       15.464       48.419       70.550       47.137       53.182       37.615     2221.899     2828.367     1414.868        0.701        0.323       50.829       39.338        0.599      328.320       -5.651      872.377
12/09/2013  13:43:00       42.190       37.091       74.342       48.862       66.074       41.846     2387.508     4365.798     1751.098        0.859        0.425       56.176       37.543        0.447      328.274       -5.726      872.379
12/09/2013  13:44:00        3.278       39.043       59.927       34.667       46.863       24.544     1201.826     2196.174      602.396        0.456        0.200       39.180       17.006        0.188      328.443       -5.450      872.373
12/09/2013  13:45:00       37.058        7.288       16.356       46.875       25.492       32.066     2197.234      649.818     1028.209        0.278        0.194       37.768        9.026        0.057      328.262       -5.747      872.364
12/09/2013  13:46:00       27.005       16.932       18.134       22.719       33.135       18.343      516.153     1097.925      336.477        0.165        0.098       31.874       18.924        0.352      328.243       -5.778      872.349
12/09/2013  13:47:00        3.182       22.330       39.967       23.548       28.495       16.919      554.517      811.963      286.246        0.188        0.083       22.555       12.749        0.319      328.613       -5.173      872.339
12/09/2013  13:48:00       24.241       48.515       51.671       41.265       32.629       31.652     1702.815     1064.628     1001.831        0.469        0.188       54.234       30.130        0.309      328.464       -5.417      872.327
12/09/2013  13:49:00       -7.780       28.250       41.910       25.930       37.394       36.219      672.380     1398.326     1311.803        0.300        0.169       29.302       21.805        0.554      328.670       -5.081      872.316
12/09/2013  13:50:00       25.000        5.490       28.398       41.686       53.599       32.527     1737.741     2872.848     1058.010        0.356        0.283       25.596       39.018        2.324      328.442       -5.453      872.311
12/09/2013  13:51:00       13.385       11.119       40.909       39.799       58.533       44.760     1583.987     3426.090     2003.496        0.449        0.351       17.401       48.106        7.643      328.635       -5.139      872.303
12/09/2013  13:52:00       36.839       47.734       45.810       31.652       30.621       30.424     1001.859      937.640      925.639        0.430        0.143       60.297       20.809        0.119      328.185       -5.872      872.303
12/09/2013  13:53:00       39.240      -37.203       35.888       45.040       71.413       46.041     2028.595     5099.748     2119.774        0.673        0.462       54.073       49.165        0.827      328.488       -5.378      872.302
12/09/2013  13:54:00       31.335     -130.757      -16.090       50.502       53.988       42.159     2550.474     2914.747     1777.414        1.279        0.362      134.459       40.901        0.093      328.286       -5.706      872.297
12/09/2013  13:55:00      149.620     -157.107      -59.559       35.477       50.968       25.197     1258.647     2597.771      634.908        2.755        0.225      216.953       22.777        0.011      327.966       -6.231      872.307
12/09/2013  13:56:00      103.695     -121.335      -30.145       65.314       73.047       39.365     4265.980     5335.863     1549.565        1.877        0.558      159.608       44.628        0.078      328.047       -6.097      872.339
12/09/2013  13:57:00       85.135     -141.769      -13.828       36.154       42.209       25.323     1307.085     1781.596      641.280        1.563        0.186      165.367       18.123        0.012      328.090       -6.026      872.364
12/09/2013  13:58:00       27.673      -78.031       19.817       54.741       76.818       40.012     2996.529     5900.969     1600.992        0.887        0.525       82.793       50.120        0.366      328.354       -5.596      872.367
12/09/2013  13:59:00       24.992      -35.563       17.561       28.851       53.580       34.312      832.383     2870.798     1177.303        0.354        0.244       43.466       20.819        0.229      328.493       -5.371      872.364
12/09/2013  14:00:00       85.342       59.744       59.062       62.656       75.394       50.199     3925.775     5684.198     2519.914        1.323        0.606      104.176       44.129        0.179      328.302       -5.680      872.359
12/09/2013  14:01:00       68.436       41.818       58.904       56.496       74.272       51.789     3191.787     5516.403     2682.095        1.064        0.570       80.201       51.076        0.406      328.354       -5.596      872.362
12/09/2013  14:02:00       -4.193       36.574       64.829       30.424       42.175       31.390      925.609     1778.699      985.330        0.462        0.184       36.814       29.890        0.659      328.796       -4.875      872.356
12/09/2013  14:03:00       33.503       44.844       30.538       42.166       42.347       34.765     1777.943     1793.260     1208.602        0.442        0.239       55.977       29.596        0.280      328.670       -5.082      872.365
12/09/2013  14:04:00       42.417       63.804       60.779       44.488       43.271       36.838     1979.177     1872.360     1357.016        0.739        0.260       76.617       28.840        0.142      328.460       -5.424      872.380
12/09/2013  14:05:00       29.061       40.670       51.343       54.375       36.091       29.577     2956.608     1302.575      874.822        0.513        0.257       49.986       28.006        0.314      328.408       -5.508      872.381
12/09/2013  14:06:00       42.900       46.294        5.901       38.769       29.984       26.756     1503.055      899.059      715.870        0.357        0.156       63.115       15.812        0.063      328.541       -5.291      872.373
12/09/2013  14:07:00        9.988       67.596       -0.177       39.884       55.653       28.185     1590.705     3097.273      794.406        0.507        0.274       68.330       31.808        0.217      328.537       -5.297      872.372
12/09/2013  14:08:00       55.624       72.314       69.344       48.123       40.476       40.203     2315.834     1638.294     1616.243        0.935        0.279       91.233       36.218        0.158      328.490       -5.375      872.377
12/09/2013  14:09:00       26.011       59.741       66.115       47.751       53.900       44.676     2280.163     2905.171     1995.919        0.790        0.359       65.158       39.444        0.366      328.572       -5.241      872.379
12/09/2013  14:10:00       27.859       51.394       63.450       48.729       48.198       39.434     2374.479     2323.013     1555.023        0.685        0.313       58.459       34.123        0.341      328.515       -5.332      872.398
12/09/2013  14:11:00       82.615       66.743       30.126       41.294       36.045       34.479     1705.178     1299.265     1188.812        0.819        0.210      106.207       23.156        0.048      328.499       -5.359      872.412
12/09/2013  14:12:00       12.338       15.805       12.344       35.043       37.485       27.272     1227.991     1405.114      743.779        0.196        0.169       20.050       20.471        1.042      328.660       -5.097      872.432
12/09/2013  14:13:00       89.874       87.222       59.579       91.983       64.966       64.054     8460.830     4220.551     4102.960        1.801        0.839      125.240       50.961        0.166      328.585       -5.221      872.440
12/09/2013  14:14:00      154.977       87.542       42.198       79.589       54.504       46.285     6334.448     2970.698     2142.342        2.245        0.572      177.993       35.808        0.040      328.242       -5.781      872.443
12/09/2013  14:15:00       33.668       49.620       13.835       61.062       48.553       52.729     3728.526     2357.418     2780.380        0.632        0.443       59.964       16.282        0.074      328.491       -5.373      872.449
12/09/2013  14:16:00      115.120       88.790       20.534       69.968       55.432       43.738     4895.583     3072.700     1912.978        1.572        0.494      145.383       13.420        0.009      328.444       -5.451      872.442
12/09/2013  14:17:00      170.609      103.961       45.971       67.619       44.800       52.109     4572.325     2007.046     2715.333        2.566        0.465      199.788       40.374        0.041      328.387       -5.543      872.442
12/09/2013  14:18:00       91.532      114.640       87.022       95.199       75.816       65.615     9062.931     5748.137     4305.342        2.410        0.956      146.698       64.193        0.191      328.493       -5.371      872.436
12/09/2013  14:19:00      201.815      122.438       30.065       81.385       78.302       50.424     6623.581     6131.130     2542.546        3.596        0.765      236.051       18.859        0.006      328.270       -5.736      872.460
12/09/2013  14:20:00       50.853       68.310       24.195       62.190       43.474       33.979     3867.601     1889.958     1154.595        0.737        0.346       85.160       28.842        0.115      328.517       -5.330      872.470
12/09/2013  14:21:00       17.714      109.772      -11.347       31.471       50.851       29.163      990.454     2585.808      850.495        0.846        0.221      111.192       28.732        0.067      328.286       -5.707      872.480
12/09/2013  14:22:00      125.530       90.887       20.502       57.501       46.022       38.819     3306.328     2117.984     1506.882        1.568        0.347      154.978       27.304        0.031      328.252       -5.762      872.478
12/09/2013  14:23:00      169.666       87.173       40.617       70.751       57.841       56.856     5005.767     3345.635     3232.549        2.481        0.579      190.750       30.126        0.025      328.240       -5.784      872.478
12/09/2013  14:24:00       69.625       65.555       36.684       63.195       38.160       37.104     3993.579     1456.190     1376.672        0.866        0.341       95.631       20.003        0.044      328.521       -5.324      872.477
12/09/2013  14:25:00      210.217      113.074       27.379      115.461       73.125       46.246    13331.287     5347.249     2138.661        3.927        1.041      238.698       20.192        0.007      328.373       -5.566      872.482
12/09/2013  14:26:00       93.930       98.995        5.418       62.659       73.029       42.853     3926.110     5333.278     1836.346        1.487        0.555      136.465       31.912        0.055      328.289       -5.702      872.489
12/09/2013  14:27:00       47.313      177.012      -22.436       55.647       71.474       45.306     3096.622     5108.474     2052.647        2.216        0.513      183.226       35.633        0.038      328.167       -5.902      872.485
12/09/2013  14:28:00       29.825      118.595       -2.352       40.768       66.607       39.369     1662.017     4436.548     1549.895        1.130        0.382      122.287       34.772        0.081      328.241       -5.779      872.468
12/09/2013  14:29:00      155.398      110.110       30.081       72.462       52.346       47.822     5250.692     2740.054     2286.945        2.373        0.514      190.455       21.613        0.013      328.324       -5.648      872.456
12/09/2013  14:30:00      176.366      112.701       21.640       63.477       60.512       51.162     4029.273     3661.726     2617.549        2.729        0.515      209.299       29.358        0.020      328.296       -5.694      872.454
12/09/2013  14:31:00       71.845       42.838       16.494       63.323       40.450       45.035     4009.747     1636.179     2028.112        0.747        0.384       83.647       18.225        0.047      328.525       -5.317      872.446
12/09/2013  14:32:00       31.735       68.053       -8.989       38.718       46.633       20.940     1499.118     2174.646      438.498        0.491        0.206       75.088       20.265        0.073      328.429       -5.475      872.449
12/09/2013  14:33:00       56.125      124.038      -12.458       56.853       85.294       40.912     3232.225     7275.036     1673.808        1.543        0.609      136.145       44.382        0.106      328.358       -5.590      872.453
12/09/2013  14:34:00       51.041      172.035      -24.314       42.233       56.103       36.545     1783.637     3147.512     1335.520        1.953        0.313      179.447       33.270        0.034      328.256       -5.759      872.463
12/09/2013  14:35:00       45.030      100.669       13.510       60.843       72.254       35.393     3701.914     5220.574     1252.670        1.126        0.509      110.281       36.497        0.110      328.356       -5.593      872.469
12/09/2013  14:36:00       19.407      100.120      -10.808       51.306       50.668       30.884     2632.280     2567.271      953.794        0.833        0.308      101.983       31.705        0.097      328.359       -5.588      872.473
12/09/2013  14:37:00       85.009       71.412        3.891      101.941       71.594       39.188    10391.969     5125.633     1535.724        1.469        0.853      111.024       45.082        0.165      328.449       -5.441      872.493
12/09/2013  14:38:00      155.706      123.130       44.320       59.659       36.848       50.391     3559.193     1357.798     2539.302        2.441        0.373      198.508       32.640        0.027      328.355       -5.598      872.508
12/09/2013  14:39:00       24.575       68.548       96.767       46.512       47.192       31.931     2163.383     2227.089     1019.605        1.004        0.271       72.820       28.242        0.150      328.516       -5.331      872.533
12/09/2013  14:40:00       14.689       24.323       47.450       56.479       42.374       41.703     3189.858     1795.518     1739.125        0.489        0.336       28.414       25.425        0.801      328.611       -5.176      872.560
12/09/2013  14:41:00      113.776       90.594        9.331       36.757       34.593       25.258     1351.057     1196.702      637.987        1.221        0.159      145.438       13.577        0.009      328.315       -5.660      872.578
12/09/2013  14:42:00       36.245      125.084       -1.628       58.457       49.005       35.032     3417.166     2401.510     1227.238        1.200        0.352      130.229       31.144        0.057      328.341       -5.618      872.600
12/09/2013  14:43:00        2.155      186.361      -34.428       48.534       70.725       29.222     2355.531     5002.022      853.901        2.206        0.411      186.374       34.456        0.034      328.403       -5.520      872.615
12/09/2013  14:44:00       40.734      104.542       -4.455       53.857      106.455       56.907     2900.590    11332.754     3238.414        1.504        0.874      112.197       54.053        0.232      328.507       -5.347      872.631
12/09/2013  14:45:00       39.595       88.696        1.704       45.630       55.223       45.783     2082.115     3049.615     2096.048        0.833        0.361       97.132       34.082        0.123      328.293       -5.696      872.656
12/09/2013  14:46:00      102.308       88.068        6.924       77.595       46.124       39.028     6021.029     2127.429     1523.179        1.397        0.484      134.992       32.363        0.057      328.299       -5.686      872.646
12/09/2013  14:47:00       65.371       42.590       -1.728       60.048       29.433       22.518     3605.760      866.291      507.047        0.553        0.249       78.021        9.463        0.015      328.514       -5.335      872.628
12/09/2013  14:48:00      130.662       75.107       17.628       61.459       40.222       38.235     3777.266     1617.814     1461.904        1.494        0.343      150.711       21.878        0.021      328.442       -5.453      872.620
12/09/2013  14:49:00      157.028       88.900       18.333       56.503       44.173       40.885     3192.582     1951.249     1671.616        1.986        0.341      180.447       31.418        0.030      328.386       -5.545      872.611
12/09/2013  14:50:00       91.047       48.819       15.390       68.219       52.778       34.856     4653.786     2785.516     1214.938        0.978        0.433      103.309       35.903        0.121      328.621       -5.161      872.592
12/09/2013  14:51:00       48.333       66.873        7.224       68.368       46.036       32.663     4674.202     2119.308     1066.857        0.736        0.393       82.511       27.426        0.110      328.614       -5.172      872.582
12/09/2013  14:52:00       79.333       71.683        8.547       63.879       56.692       36.339     4080.551     3213.932     1320.507        1.006        0.431      106.921       32.124        0.090      328.412       -5.501      872.580
12/09/2013  14:53:00       78.218       98.347        2.131       45.694       62.376       44.852     2087.974     3890.721     2011.743        1.189        0.400      125.659       44.587        0.126      328.296       -5.691      872.569
12/09/2013  14:54:00       63.663       60.879       11.562       48.525       51.024       42.727     2354.694     2603.464     1825.594        0.734        0.339       88.086       32.947        0.140      328.362       -5.583      872.556
12/09/2013  14:55:00       76.914       74.379       -3.148       59.615       67.896       39.335     3553.974     4609.821     1547.271        1.058        0.486      106.996       40.942        0.146      328.295       -5.692      872.546
12/09/2013  14:56:00       18.098       99.883       -2.837       38.984       77.750       32.371     1519.765     6045.104     1047.908        0.946        0.431      101.509       27.970        0.076      328.328       -5.639      872.533
12/09/2013  14:57:00       90.572       99.988       20.350       82.506       63.522       45.974     6807.243     4035.043     2113.571        1.578        0.648      134.911       35.627        0.070      328.459       -5.426      872.521
12/09/2013  14:58:00       41.169      102.734      -14.277       32.835       62.403       32.850     1078.163     3894.083     1079.144        0.925        0.303      110.676       16.937        0.023      328.298       -5.688      872.525
12/09/2013  14:59:00       77.173       65.496       -2.796       41.823       31.417       34.276     1749.141      987.022     1174.821        0.708        0.196      101.220       15.222        0.023      328.460       -5.422      872.513
12/09/2013  15:00:00      104.891       66.041        7.865       56.964       43.815       33.946     3244.890     1919.733     1152.340        1.087        0.316      123.949       12.805        0.011      328.412       -5.501      872.520
12/09/2013  15:01:00      120.033       74.243       50.102       62.849       62.479       57.598     3949.956     3903.614     3317.561        1.680        0.559      141.138       38.714        0.075      328.442       -5.453      872.519
12/09/2013  15:02:00       97.935       65.697       19.467       75.393       41.353       41.813     5684.041     1710.042     1748.300        1.171        0.457      117.929       14.749        0.016      328.445       -5.447      872.520
12/09/2013  15:03:00       79.719       72.750       15.019       54.334       45.332       38.877     2952.186     2054.967     1511.455        0.919        0.326      107.925       27.794        0.066      328.364       -5.580      872.511
12/09/2013  15:04:00       89.658       83.470        3.872       59.414       47.333       46.645     3530.012     2240.453     2175.748        1.148        0.397      122.498       36.729        0.090      328.325       -5.644      872.492
12/09/2013  15:05:00      106.491       64.492       38.725       52.746       59.396       44.073     2782.126     3527.842     1942.449        1.262        0.413      124.498       27.699        0.049      328.451       -5.437      872.480
12/09/2013  15:06:00       64.551       14.406        6.909       54.694       74.307       23.351     2991.487     5521.590      545.266        0.674        0.453       66.139       16.456        0.062      328.531       -5.307      872.473
12/09/2013  15:07:00       18.234        6.583       36.235       39.155       47.241       25.231     1533.117     2231.691      636.604        0.304        0.220       19.386       19.421        1.004      328.836       -4.810      872.464
12/09/2013  15:08:00       72.153       74.607       59.373       68.969       37.733       46.316     4756.696     1423.757     2145.181        1.131        0.416      103.789       37.137        0.128      328.621       -5.162      872.476
12/09/2013  15:09:00       86.435       65.668       50.180       54.426       40.200       42.878     2962.216     1616.018     1838.511        1.036        0.321      108.551       33.844        0.097      328.499       -5.360      872.486
12/09/2013  15:10:00      115.398       67.843       46.196       59.295       45.137       43.412     3515.936     2037.335     1884.567        1.374        0.372      133.863       28.844        0.046      328.450       -5.439      872.487
12/09/2013  15:11:00      123.949       97.970       10.538       53.730       39.790       35.899     2886.868     1583.220     1288.724        1.541        0.288      157.992       14.281        0.008      328.350       -5.602      872.497
12/09/2013  15:12:00      120.882       66.510       18.522       67.207       35.180       32.150     4516.760     1237.638     1033.607        1.308        0.339      137.971        7.370        0.003      328.432       -5.469      872.504
12/09/2013  15:13:00      185.228       90.130       27.830       62.101       63.700       45.536     3856.495     4057.636     2073.547        2.660        0.499      205.993       31.356        0.023      328.336       -5.629      872.499
12/09/2013  15:14:00      111.301       85.020       24.479       57.450       43.464       38.964     3300.467     1889.120     1518.208        1.346        0.335      140.058       10.679        0.006      328.324       -5.645      872.496
12/09/2013  15:15:00       19.903       34.378       13.776       59.408       38.357       29.056     3529.273     1471.282      844.230        0.381        0.292       39.724       31.042        0.611      328.511       -5.340      872.484
12/09/2013  15:16:00       37.950       65.390       39.872       35.941       33.360       31.395     1291.722     1112.915      985.656        0.535        0.170       75.604       17.999        0.057      328.578       -5.231      872.490
12/09/2013  15:17:00       87.360       77.398       11.386       53.209       54.911       43.148     2831.223     3015.227     1861.710        1.073        0.385      116.714       39.583        0.115      328.521       -5.325      872.494
12/09/2013  15:18:00      132.158       85.930       10.132       50.699       42.772       34.395     2570.359     1829.403     1183.012        1.527        0.279      157.638       28.702        0.033      328.399       -5.523      872.494
12/09/2013  15:19:00       49.675       58.611       25.838       42.973       33.713       49.180     1846.693     1136.555     2418.636        0.599        0.270       76.830       41.207        0.288      328.588       -5.215      872.487
12/09/2013  15:20:00       40.648       98.485       89.271       46.130       46.016       47.005     2128.019     2117.432     2209.495        1.289        0.323      106.544       36.235        0.116      328.511       -5.340      872.476
12/09/2013  15:21:00       85.987       73.583       42.811       65.647       46.269       49.694     4309.465     2140.811     2469.458        1.178        0.446      113.173       46.087        0.166      328.417       -5.494      872.476
12/09/2013  15:22:00      120.335       89.843       12.232       49.756       36.676       38.334     2475.680     1345.158     1469.471        1.400        0.265      150.174        9.849        0.004      328.355       -5.595      872.482
12/09/2013  15:23:00      106.530       30.399       31.862       78.186       59.221       48.075     6112.998     3507.131     2311.188        1.261        0.597      110.782       32.485        0.086      328.478       -5.394      872.482
12/09/2013  15:24:00      138.747       48.552       19.826       65.844       49.665       46.441     4335.441     2466.585     2156.787        1.548        0.448      146.997       38.262        0.068      328.349       -5.605      872.478
12/09/2013  15:25:00      160.134       61.221       27.277       55.634       49.409       39.295     3095.119     2441.285     1544.067        1.861        0.354      171.437       22.807        0.018      328.331       -5.635      872.481
12/09/2013  15:26:00      148.702       93.519       45.390       52.428       44.957       37.711     2748.701     2021.119     1422.091        1.955        0.310      175.664       29.530        0.028      328.386       -5.544      872.476
12/09/2013  15:27:00      147.775       73.716       22.613       42.658       40.065       36.962     1819.668     1605.176     1366.176        1.629        0.240      165.141       18.042        0.012      328.355       -5.595      872.480
12/09/2013  15:28:00      100.505       49.605       50.867       69.414       49.552       45.234     4818.314     2455.392     2046.148        1.223        0.466      112.080       35.659        0.101      328.432       -5.471      872.476
12/09/2013  15:29:00       80.509       85.918      100.341       66.777       62.113       43.197     4459.122     3858.070     1865.988        1.706        0.509      117.743       49.282        0.175      328.357       -5.591      872.456
12/09/2013  15:30:00       73.138       86.536       92.907       51.408       54.922       39.517     2642.735     3016.398     1561.613        1.434        0.361      113.303       34.521        0.093      328.321       -5.650      872.450
12/09/2013  15:31:00       88.940      102.813       82.733       48.742       39.023       32.317     2375.818     1522.759     1044.410        1.513        0.247      135.944       26.679        0.039      328.324       -5.644      872.451
12/09/2013  15:32:00       35.711       59.977       75.263       37.828       37.093       23.641     1430.940     1375.891      558.878        0.695        0.168       69.803       19.394        0.077      328.523       -5.321      872.441
12/09/2013  15:33:00       61.437       49.373       41.148       41.143       31.343       29.472     1692.742      982.398      868.603        0.572        0.177       78.818       22.192        0.079      328.472       -5.404      872.439
12/09/2013  15:34:00       88.613       57.595       45.461       51.869       38.347       39.236     2690.342     1470.479     1539.443        0.947        0.285      105.686       33.626        0.101      328.425       -5.481      872.447
12/09/2013  15:35:00      103.317       52.905       43.148       48.955       42.371       40.071     2396.635     1795.270     1605.662        1.057        0.290      116.075       18.547        0.026      328.429       -5.475      872.448
12/09/2013  15:36:00      112.556       73.923       54.171       45.948       38.908       38.479     2111.180     1513.863     1480.598        1.309        0.255      134.661       26.966        0.040      328.366       -5.577      872.451
12/09/2013  15:37:00       68.952       28.781       21.766       46.861       34.388       34.817     2195.995     1182.539     1212.255        0.532        0.230       74.717       23.186        0.096      328.449       -5.443      872.455
12/09/2013  15:38:00       36.274       -0.375       16.870       29.289       40.737       22.022      857.870     1659.525      484.987        0.230        0.150       36.276       20.724        0.326      328.496       -5.366      872.456
12/09/2013  15:39:00       29.494      -25.384        1.909       20.579       30.535       21.235      423.480      932.392      450.927        0.166        0.090       38.913       22.597        0.337      328.557       -5.265      872.458
12/09/2013  15:40:00       53.387       52.509       -4.320       26.011       21.931       13.448      676.565      480.969      180.852        0.348        0.067       74.883        7.380        0.010      328.418       -5.491      872.448
12/09/2013  15:41:00       40.950       56.920       42.829       30.993       24.717       35.534      960.588      610.931     1262.682        0.479        0.142       70.120       26.975        0.148      328.444       -5.449      872.433
12/09/2013  15:42:00       56.067       90.133       80.030       39.766       49.828       27.019     1581.302     2482.823      730.053        1.123        0.240      106.149       21.081        0.039      328.471       -5.405      872.415
12/09/2013  15:43:00       83.065       85.576       62.552       46.232       31.987       32.156     2137.417     1023.172     1034.029        1.116        0.210      119.261       15.987        0.018      328.450       -5.439      872.397
12/09/2013  15:44:00       90.498       90.871       73.915       38.818       32.449       39.891     1506.872     1052.909     1591.321        1.303        0.208      128.247       28.544        0.050      328.417       -5.495      872.388
12/09/2013  15:45:00       71.324       58.917       43.499       37.224       28.347       31.726     1385.598      803.555     1006.513        0.682        0.160       92.511       14.434        0.024      328.456       -5.430      872.386
12/09/2013  15:46:00       28.957       46.916       53.809       26.503       23.680       19.179      702.424      560.745      367.831        0.378        0.082       55.133       11.192        0.041      328.553       -5.271      872.383
12/09/2013  15:47:00       65.632       79.972       79.822       49.484       44.799       31.240     2448.680     2006.969      975.909        1.125        0.272      103.456       23.803        0.053      328.501       -5.356      872.368
12/09/2013  15:48:00       51.614       63.949       59.576       61.700       51.121       46.091     3806.862     2613.390     2124.387        0.942        0.427       82.179       43.732        0.283      328.549       -5.278      872.351
12/09/2013  15:49:00       98.868       61.345       23.715       42.823       28.969       34.015     1833.792      839.216     1156.991        0.896        0.191      116.354       26.974        0.054      328.410       -5.505      872.366
12/09/2013  15:50:00       52.337       37.940       19.784       30.137       24.386       26.551      908.240      594.667      704.936        0.339        0.110       64.642       10.140        0.025      328.464       -5.419      872.361
12/09/2013  15:51:00      109.140       70.948        7.301       36.087       27.974       24.744     1302.267      782.540      612.262        0.985        0.135      130.173       14.013        0.012      328.354       -5.597      872.356
12/09/2013  15:52:00       12.430       48.953       -6.374       29.588       17.286       13.832      875.440      298.821      191.316        0.198        0.068       50.506       12.198        0.058      328.351       -5.601      872.358
12/09/2013  15:53:00       60.380       44.503       21.906       34.015       26.933       27.510     1157.037      725.406      756.813        0.437        0.132       75.009       13.522        0.032      328.373       -5.566      872.362
12/09/2013  15:54:00      123.758       55.925       22.687       40.054       25.868       32.525     1604.302      669.153     1057.902        1.114        0.167      135.807       22.765        0.028      328.344       -5.613      872.347
12/09/2013  15:55:00       74.104       56.405       29.965       40.631       32.799       26.863     1650.877     1075.773      721.608        0.651        0.172       93.129       20.901        0.050      328.395       -5.529      872.338
12/09/2013  15:56:00       46.663       73.835       38.504       51.338       31.608       41.420     2635.614      999.095     1715.630        0.723        0.268       87.345       39.861        0.208      328.463       -5.417      872.341
12/09/2013  15:57:00      100.226       68.091       18.372       18.589       19.349       22.949      345.541      374.399      526.660        0.813        0.062      121.168        3.796        0.001      328.339       -5.620      872.349
12/09/2013  15:58:00       82.016       65.984       14.570       23.100       24.801       22.163      533.608      615.098      491.188        0.647        0.082      105.264       15.938        0.023      328.279       -5.719      872.351
12/09/2013  15:59:00       74.834       66.230       10.010       26.348       22.429       24.928      694.200      503.066      621.399        0.595        0.091       99.933       16.539        0.027      328.314       -5.660      872.357
12/09/2013  16:00:00       71.793       52.489        6.879       26.235       30.116       18.707      688.301      906.987      349.938        0.495        0.097       88.935       11.014        0.015      328.286       -5.707      872.372
12/09/2013  16:01:00       63.263       61.122        1.330       32.255       22.402       22.208     1040.373      501.865      493.194        0.489        0.102       87.966       13.403        0.023      328.317       -5.656      872.387
12/09/2013  16:02:00       50.496       55.765       16.333       28.702       29.394       27.634      823.784      864.023      763.620        0.419        0.123       75.230       18.407        0.060      328.333       -5.631      872.391
12/09/2013  16:03:00       71.154       47.858       22.042       30.821       28.050       25.424      949.905      786.798      646.392        0.511        0.119       85.751       20.212        0.056      328.348       -5.606      872.393
12/09/2013  16:04:00       38.197       24.122       26.195       37.570       25.839       18.279     1411.536      667.647      334.109        0.257        0.121       45.177       22.737        0.253      328.406       -5.511      872.392
12/09/2013  16:05:00       -1.525       18.231       49.078       14.148       26.207       14.425      200.156      686.817      208.069        0.192        0.055       18.295        9.016        0.243      328.505       -5.349      872.381
12/09/2013  16:06:00        8.083        7.230       43.491       15.909       26.665       12.031      253.106      711.025      144.734        0.156        0.055       10.845       14.048        1.678      328.491       -5.372      872.381
12/09/2013  16:07:00       15.728       44.730       36.399       20.973       15.776       17.438      439.872      248.891      304.078        0.228        0.050       47.414       11.781        0.062      328.437       -5.459      872.394
12/09/2013  16:08:00       64.782       37.789       14.446       31.219       14.518       16.382      974.599      210.772      268.377        0.364        0.073       74.998       12.062        0.026      328.332       -5.631      872.399
12/09/2013  16:09:00       81.899       50.705        6.731       23.107       22.449       21.175      533.917      503.959      448.360        0.540        0.074       96.325       10.986        0.013      328.292       -5.697      872.404
12/09/2013  16:10:00       80.011       40.212       24.553       22.721       15.598       18.609      516.231      243.299      346.276        0.486        0.055       89.548       11.891        0.018      328.309       -5.668      872.412
12/09/2013  16:11:00       63.849       49.035       11.344       13.271       11.122       15.161      176.115      123.698      229.857        0.357        0.026       80.505        4.266        0.003      328.264       -5.742      872.412
12/09/2013  16:12:00       74.195       47.327       13.559       22.268       16.158       21.913      495.878      261.084      480.165        0.458        0.062       88.004       14.835        0.028      328.274       -5.725      872.411
12/09/2013  16:13:00       75.996       32.508       19.254       30.093       23.241       20.363      905.602      540.133      414.663        0.453        0.093       82.657       14.506        0.031      328.318       -5.654      872.412
12/09/2013  16:14:00       48.153       49.857       32.068       29.525       21.941       29.501      871.719      481.396      870.318        0.403        0.111       69.314       24.937        0.129      328.332       -5.631      872.410
12/09/2013  16:15:00       43.474       25.591        4.922       25.216       21.911       19.338      635.853      480.074      373.964        0.203        0.074       50.447       12.577        0.062      328.292       -5.698      872.413
12/09/2013  16:16:00       73.778       47.525        5.130       26.514       17.224       23.091      703.002      296.674      533.217        0.463        0.077       87.760       16.379        0.035      328.276       -5.723      872.412
12/09/2013  16:17:00       60.716       40.453        5.377       19.843       15.793       17.742      393.735      249.404      314.768        0.315        0.048       72.958       12.340        0.029      328.239       -5.784      872.410
12/09/2013  16:18:00       62.475       46.767        5.489       28.031       28.166       20.786      785.762      793.317      432.070        0.407        0.101       78.040       16.611        0.045      328.237       -5.787      872.420
12/09/2013  16:19:00       93.380       49.282       11.478       33.482       29.019       22.920     1121.044      842.101      525.324        0.688        0.124      105.586       15.368        0.021      328.244       -5.775      872.415
12/09/2013  16:20:00       79.387       49.049        8.485       26.037       28.297       19.655      677.909      800.695      386.315        0.532        0.093       93.317       14.984        0.026      328.228       -5.802      872.410
12/09/2013  16:21:00       60.352       25.271        0.393       19.209       23.119       17.135      368.995      534.491      293.610        0.274        0.060       65.429       10.820        0.027      328.217       -5.820      872.408
12/09/2013  16:22:00      111.658       63.578       15.033       28.473       24.315       21.029      810.728      591.221      442.213        0.929        0.092      128.489       14.228        0.012      328.202       -5.844      872.399
12/09/2013  16:23:00       68.433       66.653       35.029       31.583       24.276       30.524      997.488      589.332      931.685        0.644        0.126       95.528       16.389        0.029      328.223       -5.810      872.395
12/09/2013  16:24:00       77.182       26.754       13.137       37.653       25.623       22.416     1417.757      656.545      502.476        0.471        0.129       81.687       16.816        0.042      328.198       -5.851      872.397
12/09/2013  16:25:00       83.656       59.915       22.454       28.259       17.108       26.151      798.580      292.695      683.891        0.643        0.089      102.899       12.476        0.015      328.254       -5.759      872.384
12/09/2013  16:26:00       91.624       66.786       29.710       14.243       13.702       18.350      202.860      187.749      336.716        0.723        0.036      113.382        6.240        0.003      328.215       -5.823      872.386
12/09/2013  16:27:00       77.826       66.840       46.940       24.683       14.320       21.741      609.238      205.052      472.679        0.701        0.064      102.589       10.510        0.010      328.217       -5.821      872.390
12/09/2013  16:28:00      103.067       55.267       17.456       20.648       20.705       20.906      426.320      428.716      437.061        0.764        0.065      116.950       10.830        0.009      328.146       -5.935      872.395
12/09/2013  16:29:00       71.172       36.745       25.545       25.334       21.844       28.676      641.794      477.157      822.302        0.450        0.097       80.098       18.053        0.051      328.080       -6.042      872.412
12/09/2013  16:30:00       60.073       50.999       14.706       32.400       14.764       20.052     1049.755      217.987      402.085        0.405        0.083       78.801       16.403        0.043      328.153       -5.924      872.418
12/09/2013  16:31:00       64.410       33.738        0.137       28.994       15.818       18.921      840.668      250.214      357.991        0.337        0.072       72.711       12.516        0.030      328.146       -5.935      872.421
12/09/2013  16:32:00       50.070       58.870       -0.470       37.503       31.297       19.274     1406.459      979.509      371.478        0.436        0.138       77.283       16.755        0.047      328.027       -6.129      872.416
12/09/2013  16:33:00       77.220       57.500        5.081       42.450       31.073       23.895     1801.974      965.521      570.962        0.632        0.167       96.277       16.048        0.028      328.009       -6.157      872.406
12/09/2013  16:34:00       82.400       67.847        6.726       28.768       24.848       25.208      827.609      617.448      635.430        0.676        0.104      106.738       15.222        0.020      327.975       -6.212      872.392
12/09/2013  16:35:00       42.769       60.055       -4.429       27.109       34.766       26.370      734.875     1208.703      695.357        0.405        0.132       73.728       22.628        0.094      327.933       -6.280      872.385
12/09/2013  16:36:00       44.829       56.952        8.892       23.281       33.802       31.079      542.015     1142.564      965.899        0.399        0.133       72.479       27.477        0.144      327.951       -6.252      872.386
12/09/2013  16:37:00       18.309       63.950       -6.784       21.658       30.460       20.239      469.090      927.836      409.602        0.314        0.090       66.519       14.593        0.048      327.908       -6.321      872.394
12/09/2013  16:38:00       11.415       82.233       -8.861       22.908       39.373       19.359      524.796     1550.252      374.769        0.471        0.122       83.022       23.902        0.083      327.901       -6.334      872.385
12/09/2013  16:39:00        3.967       37.994        1.933       19.932       22.770       20.399      397.289      518.456      416.137        0.140        0.067       38.201       15.878        0.173      327.839       -6.437      872.379
12/09/2013  16:40:00       24.897       43.664       -3.090       23.992       24.652       14.285      575.615      607.743      204.061        0.196        0.069       50.263        8.199        0.027      327.823       -6.461      872.377
12/09/2013  16:41:00       31.045       40.732       -3.243       26.925       30.774       19.545      724.946      947.026      381.988        0.234        0.103       51.214       18.933        0.137      327.830       -6.449      872.369
12/09/2013  16:42:00       43.480       66.483       -3.392       34.421       42.977       25.983     1184.792     1847.038      675.116        0.501        0.185       79.438       27.499        0.120      327.811       -6.481      872.354
12/09/2013  16:43:00       49.773       53.863       -2.274       33.589       42.027       28.581     1128.217     1766.307      816.870        0.455        0.186       73.339       29.500        0.162      327.813       -6.478      872.343
12/09/2013  16:44:00       29.131       62.954      -11.062       17.564       28.244       19.576      308.479      797.709      383.233        0.321        0.074       69.368       14.665        0.045      327.808       -6.487      872.333
12/09/2013  16:45:00       53.242       64.161       -5.952       27.221       30.600       25.366      741.000      936.371      643.439        0.465        0.116       83.374       21.149        0.064      327.793       -6.510      872.323
12/09/2013  16:46:00       26.873       41.128       -4.555       31.735       22.909       23.116     1007.092      524.840      534.333        0.225        0.103       49.129       22.176        0.204      327.753       -6.574      872.319
12/09/2013  16:47:00       27.308       60.932       -9.906       21.959       22.796       14.578      482.186      519.677      212.525        0.289        0.061       66.771       11.676        0.031      327.755       -6.571      872.307
12/09/2013  16:48:00       44.083       59.414       -3.777       29.056       31.195       21.564      844.235      973.123      465.025        0.388        0.114       73.982       18.120        0.060      327.677       -6.699      872.285
12/09/2013  16:49:00       34.135       65.977       -5.441       27.102       34.441       25.715      734.533     1186.165      661.254        0.406        0.129       74.284       21.400        0.083      327.712       -6.642      872.274
12/09/2013  16:50:00       36.751       54.728       -3.117       30.523       30.981       21.876      931.628      959.839      478.580        0.336        0.119       65.923       14.791        0.050      327.698       -6.664      872.257
12/09/2013  16:51:00       27.937       34.435       -0.975       23.621       30.279       19.001      557.956      916.845      361.054        0.190        0.092       44.342       16.172        0.133      327.703       -6.657      872.251
12/09/2013  16:52:00       31.822       43.637       -0.938       20.485       19.006       18.173      419.619      361.214      330.254        0.201        0.056       54.008       14.607        0.073      327.683       -6.689      872.261
12/09/2013  16:53:00        9.925       38.531       -3.919       22.899       28.198       13.791      524.351      795.144      190.179        0.155        0.075       39.789       13.428        0.114      327.642       -6.756      872.257
12/09/2013  16:54:00       21.709       25.290        2.180       24.137       16.311       13.408      582.577      266.064      179.776        0.107        0.051       33.330        8.168        0.060      327.633       -6.770      872.249
12/09/2013  16:55:00       19.151       71.954       -5.774       25.115       25.313       16.109      630.744      640.755      259.495        0.355        0.077       74.459       12.797        0.030      327.602       -6.819      872.222
12/09/2013  16:56:00       15.821       71.713       -5.173       27.755       29.328       16.236      770.351      860.160      263.598        0.366        0.095       73.438       12.669        0.030      327.621       -6.790      872.203
12/09/2013  16:57:00       14.741       37.182       -4.585       13.034       19.557       13.005      169.897      382.480      169.131        0.117        0.036       39.998       12.929        0.104      327.605       -6.816      872.187
12/09/2013  16:58:00       12.734       63.016       -7.404       15.023       32.000       13.679      225.701     1024.027      187.122        0.281        0.072       64.289       16.219        0.064      327.600       -6.823      872.178
12/09/2013  16:59:00       10.868       81.602      -16.508       11.534       19.179        6.909      133.040      367.837       47.736        0.380        0.027       82.322        4.927        0.004      327.616       -6.797      872.167
12/09/2013  17:00:00       -0.213       69.678       -8.381       13.478       18.320        8.537      181.652      335.620       72.888        0.276        0.030       69.678        5.872        0.007      327.632       -6.772      872.170
12/09/2013  17:01:00       10.446       81.808      -11.751       13.021       23.697       11.507      169.544      561.545      132.416        0.390        0.043       82.472       11.281        0.019      327.629       -6.778      872.174
12/09/2013  17:02:00        3.642       74.311      -14.068       15.065       32.980        8.960      226.969     1087.687       80.288        0.356        0.070       74.400        9.034        0.015      327.662       -6.725      872.181
12/09/2013  17:03:00       -2.570       87.569      -15.515        8.249       16.848        9.575       68.045      283.858       91.686        0.418        0.022       87.607        4.474        0.003      327.617       -6.796      872.186
12/09/2013  17:04:00        1.971       72.898      -12.361       11.882       12.328        9.512      141.191      151.987       90.471        0.293        0.019       72.924        7.035        0.009      327.620       -6.792      872.179
12/09/2013  17:05:00        5.043       81.596      -11.352        9.631       17.126        9.028       92.762      293.288       81.507        0.364        0.023       81.752        6.966        0.007      327.583       -6.849      872.174
12/09/2013  17:06:00       10.685       97.552      -10.632       12.416       24.482       10.176      154.156      599.359      103.549        0.530        0.043       98.136        7.205        0.005      327.557       -6.891      872.165
12/09/2013  17:07:00        5.488       68.650       -7.431       21.906       28.108       19.036      479.888      790.072      362.353        0.321        0.082       68.869       14.915        0.047      327.531       -6.935      872.173
12/09/2013  17:08:00      -50.864        2.032      -12.375       36.906       28.728       13.619     1362.021      825.299      185.464        0.256        0.119       50.904       14.280        0.079      327.577       -6.861      872.184
12/09/2013  17:09:00      -58.592       -2.193       -0.451       44.056       36.062       22.189     1940.954     1300.483      492.354        0.359        0.187       58.633       23.772        0.164      327.427       -7.106      872.190
12/09/2013  17:10:00     -116.658       -1.846      -16.888       41.006       36.273       27.921     1681.470     1315.727      779.596        0.884        0.189      116.673       17.855        0.023      327.132       -7.583      872.202
12/09/2013  17:11:00     -119.505       -1.277      -13.570       40.993       30.935       29.283     1680.392      956.984      857.478        0.898        0.175      119.512       26.837        0.050      327.072       -7.683      872.205
12/09/2013  17:12:00     -135.514       16.251      -12.968       44.852       28.307       17.762     2011.726      801.279      315.472        1.096        0.156      136.485       17.750        0.017      326.999       -7.799      872.200
12/09/2013  17:13:00     -165.318        4.995      -18.166       33.245       26.579       20.203     1105.211      706.433      408.147        1.495        0.111      165.394       16.368        0.010      326.967       -7.852      872.192
12/09/2013  17:14:00     -104.380       -3.851      -13.719       60.211       36.851       24.381     3625.337     1358.015      594.456        0.834        0.279      104.451       25.495        0.060      326.928       -7.915      872.175
12/09/2013  17:15:00      -80.876       -4.328      -10.477       45.157       30.510       18.252     2039.182      930.850      333.120        0.499        0.165       80.991       18.389        0.052      326.996       -7.804      872.170
12/09/2013  17:16:00     -105.346       19.635      -19.495       35.675       31.181       26.199     1272.738      972.273      686.394        0.740        0.147      107.160       19.592        0.033      326.962       -7.859      872.167
12/09/2013  17:17:00      -88.946       -1.937      -14.542       29.524       25.746       20.719      871.642      662.862      429.276        0.504        0.098       88.967        8.761        0.010      327.036       -7.740      872.162
12/09/2013  17:18:00      -84.175       -1.226       -3.757       58.388       39.898       25.056     3409.193     1591.859      627.822        0.636        0.281       84.184       26.507        0.099      326.932       -7.908      872.150
12/09/2013  17:19:00      -84.477       13.796       -7.831       56.121       39.140       28.135     3149.553     1531.906      791.567        0.643        0.274       85.596       25.286        0.087      326.857       -8.030      872.131
12/09/2013  17:20:00     -105.360       14.781       -7.700       62.437       41.207       28.945     3898.320     1698.051      837.794        0.891        0.322      106.392       32.139        0.091      326.832       -8.070      872.132
12/09/2013  17:21:00     -160.290       24.805      -12.617       54.916       39.379       23.951     3015.811     1550.688      573.671        1.580        0.257      162.198       21.778        0.018      326.815       -8.098      872.124
12/09/2013  17:22:00     -196.518       43.247      -20.747       46.564       37.341       25.413     2168.170     1394.329      645.822        2.256        0.210      201.220       13.984        0.005      326.759       -8.190      872.110
12/09/2013  17:23:00     -150.869       38.580      -10.833       49.302       33.551       21.536     2430.701     1125.681      463.781        1.419        0.201      155.723       17.889        0.013      326.714       -8.261      872.108
12/09/2013  17:24:00     -153.188       23.342      -18.141       44.940       35.618       22.868     2019.599     1268.607      522.957        1.408        0.191      154.956       16.865        0.012      326.706       -8.274      872.105
12/09/2013  17:25:00     -135.142        7.847      -19.614       49.470       32.931       23.722     2447.307     1084.419      562.712        1.140        0.205      135.369       23.089        0.029      326.736       -8.228      872.110
12/09/2013  17:26:00     -123.669        1.760       -5.034       51.696       44.792       33.480     2672.471     2006.341     1120.886        1.056        0.290      123.681       25.719        0.043      326.727       -8.242      872.123
12/09/2013  17:27:00     -110.017        1.669      -10.951       52.176       30.657       25.827     2722.323      939.833      667.038        0.828        0.216      110.030       26.968        0.060      326.726       -8.244      872.141
12/09/2013  17:28:00      -87.892       10.955      -15.359       37.039       32.806       23.279     1371.915     1076.210      541.929        0.553        0.150       88.573       14.988        0.029      326.774       -8.164      872.145
12/09/2013  17:29:00     -118.391      -24.403       -7.545       40.742       31.412       20.695     1659.949      986.696      428.280        0.887        0.154      120.879       18.303        0.023      326.813       -8.102      872.148
12/09/2013  17:30:00     -101.209      -16.862       -8.133       36.109       32.361       19.090     1303.837     1047.235      364.424        0.665        0.136      102.604       16.317        0.025      326.840       -8.057      872.150
12/09/2013  17:31:00     -115.638      -26.244      -11.543       44.206       37.126       20.448     1954.167     1378.356      418.103        0.897        0.188      118.579       18.014        0.023      326.783       -8.150      872.155
12/09/2013  17:32:00      -77.644      -14.763        0.419       42.944       35.401       17.715     1844.196     1253.255      313.805        0.483        0.171       79.035       14.557        0.034      326.812       -8.102      872.152
12/09/2013  17:33:00     -145.412      -16.002      -11.117       47.026       39.038       21.292     2211.448     1523.961      453.340        1.286        0.209      146.290       22.972        0.025      326.785       -8.147      872.146
12/09/2013  17:34:00     -110.433      -20.063       -8.147       36.687       38.441       22.733     1345.908     1477.683      516.797        0.800        0.167      112.241       19.230        0.029      326.766       -8.177      872.148
12/09/2013  17:35:00     -109.955      -31.213       -4.372       46.038       35.859       20.477     2119.527     1285.860      419.319        0.845        0.191      114.300       19.626        0.029      326.738       -8.225      872.138
12/09/2013  17:36:00      -66.246      -27.332       12.619       39.404       38.009       23.071     1552.675     1444.678      532.266        0.441        0.176       71.663       11.278        0.025      326.692       -8.298      872.124
12/09/2013  17:37:00      -48.063      -10.298        3.357       44.325       37.521       20.932     1964.671     1407.799      438.166        0.312        0.191       49.154       22.280        0.205      326.675       -8.327      872.118
12/09/2013  17:38:00      -64.640      -35.128       -8.540       35.828       26.864       17.287     1283.637      721.695      298.829        0.389        0.115       73.568       16.078        0.048      326.700       -8.285      872.114
12/09/2013  17:39:00      -25.007      -16.216       -4.207       28.353       21.838       15.059      803.915      476.878      226.780        0.121        0.075       29.805        9.030        0.092      326.706       -8.276      872.117
12/09/2013  17:40:00      -20.160      -15.312        9.539       34.129       32.676       18.311     1164.797     1067.711      335.300        0.165        0.128       25.315       17.876        0.499      326.688       -8.304      872.124
12/09/2013  17:41:00      -42.526       -9.011       -8.141       37.357       20.460       12.878     1395.515      418.609      165.843        0.197        0.099       43.470       17.774        0.167      326.670       -8.336      872.122
12/09/2013  17:42:00      -47.812       -2.141       -3.343       33.486       23.690       18.525     1121.280      561.235      343.178        0.216        0.101       47.860       16.689        0.122      326.708       -8.272      872.131
12/09/2013  17:43:00      -83.777      -18.802       -2.538       32.092       20.605       20.895     1029.904      424.566      436.608        0.463        0.095       85.861       20.097        0.055      326.666       -8.340      872.123
12/09/2013  17:44:00      -75.442      -19.487       -0.930       20.231       18.470       16.050      409.303      341.128      257.602        0.354        0.050       77.918       13.658        0.031      326.771       -8.169      872.129
12/09/2013  17:45:00      -76.920      -15.630       -6.611       26.979       20.045       15.007      727.870      401.792      225.197        0.378        0.068       78.492       12.214        0.024      326.682       -8.316      872.128
12/09/2013  17:46:00      -31.692      -12.301       -4.110       23.520       23.749       13.774      553.170      564.024      189.728        0.124        0.065       33.996       12.687        0.139      326.719       -8.255      872.124
12/09/2013  17:47:00      -43.006      -15.804       -2.268       23.026       17.672       13.976      530.195      312.309      195.342        0.157        0.052       45.818       12.912        0.079      326.675       -8.324      872.104
12/09/2013  17:48:00      -17.023       -9.658        6.738       29.986       21.273       16.212      899.139      452.521      262.829        0.102        0.081       19.572       16.651        0.724      326.671       -8.333      872.089
12/09/2013  17:49:00      -43.401       -5.391        1.891       39.442       16.211       16.686     1555.683      262.789      278.437        0.201        0.105       43.734       20.160        0.212      326.644       -8.378      872.063
12/09/2013  17:50:00      -85.717       -8.759       -7.578       23.085       25.348       14.316      532.937      642.539      204.935        0.443        0.069       86.163        6.872        0.006      326.570       -8.495      872.062
12/09/2013  17:51:00      -73.265       -8.590       -8.236       30.361       19.942       13.179      921.768      397.667      173.675        0.350        0.075       73.767       11.297        0.023      326.622       -8.410      872.058
12/09/2013  17:52:00      -60.954      -25.647      -12.254       22.000       13.868       10.085      484.017      192.331      101.709        0.265        0.039       66.130        8.599        0.017      326.590       -8.463      872.063
12/09/2013  17:53:00      -88.997      -17.649      -10.668       22.525       16.904       14.310      507.365      285.734      204.773        0.467        0.050       90.730       12.884        0.020      326.644       -8.375      872.079
12/09/2013  17:54:00      -62.144       -6.051       -6.151       20.779       12.965       13.647      431.750      168.092      186.245        0.236        0.039       62.438       12.216        0.038      326.632       -8.395      872.087
12/09/2013  17:55:00      -52.700      -10.889      -15.796       11.005       12.969        9.545      121.105      168.201       91.112        0.176        0.019       53.813        6.914        0.017      326.592       -8.460      872.095
12/09/2013  17:56:00      -75.325       -6.317      -11.891       16.803       12.720       11.959      282.332      161.804      143.007        0.322        0.029       75.589        3.408        0.002      326.582       -8.477      872.093
12/09/2013  17:57:00      -59.615      -19.640       -8.323       19.349       15.889       12.438      374.371      252.469      154.702        0.240        0.039       62.767        4.722        0.006      326.636       -8.389      872.102
12/09/2013  17:58:00      -69.138      -21.576       -7.711       17.405       17.399       11.909      302.918      302.721      141.816        0.303        0.037       72.426        9.454        0.017      326.653       -8.360      872.095
12/09/2013  17:59:00      -69.288       -3.280      -10.341       23.619       15.462       13.649      557.842      239.070      186.294        0.295        0.049       69.365       13.399        0.037      326.636       -8.389      872.090
12/09/2013  18:00:00      -74.668       -6.660      -10.658       14.533       10.852       10.579      211.220      117.766      111.908        0.309        0.022       74.964        7.373        0.010      326.618       -8.418      872.087
12/09/2013  18:01:00      -88.972      -13.503      -12.967       16.957       15.112       12.495      287.533      228.362      156.123        0.447        0.034       89.991       10.575        0.014      326.632       -8.394      872.072
12/09/2013  18:02:00      -80.583       -8.555       -9.624       13.592       13.105       12.980      184.752      171.737      168.481        0.359        0.026       81.036        8.794        0.012      326.592       -8.460      872.067
12/09/2013  18:03:00      -90.994      -11.088      -10.994       15.423       13.105       10.242      237.878      171.745      104.891        0.452        0.026       91.667        6.069        0.004      326.602       -8.443      872.074
12/09/2013  18:04:00      -86.493      -11.742      -10.195       20.983       14.975       14.326      440.267      224.255      205.241        0.430        0.043       87.287       12.042        0.019      326.585       -8.472      872.067
12/09/2013  18:05:00      -75.750      -10.767      -12.310       18.332       15.835       10.083      336.060      250.743      101.662        0.335        0.034       76.511        4.400        0.003      326.566       -8.503      872.077
12/09/2013  18:06:00      -59.173      -20.014       -9.716       11.237       10.310        9.614      126.277      106.290       92.431        0.216        0.016       62.466        1.784        0.001      326.538       -8.548      872.070
12/09/2013  18:07:00      -73.881       -8.776      -13.531       23.554       15.388       11.548      554.782      236.795      133.345        0.332        0.046       74.401        8.291        0.012      326.551       -8.527      872.061
12/09/2013  18:08:00      -90.962       -3.726      -11.374       15.635       12.101       10.340      244.460      146.445      106.906        0.446        0.025       91.038        4.619        0.003      326.553       -8.524      872.042
12/09/2013  18:09:00     -119.140        4.482      -14.239       23.638       13.157       13.351      558.774      173.100      178.251        0.766        0.046      119.224        9.838        0.007      326.521       -8.575      872.026
12/09/2013  18:10:00     -103.361       -0.193       -9.122       20.414       18.957       16.150      416.749      359.379      260.817        0.590        0.052      103.361       11.713        0.013      326.510       -8.594      872.015
12/09/2013  18:11:00     -108.410       -8.745      -15.155       17.853       19.820       13.206      318.723      392.849      174.396        0.647        0.044      108.762        5.181        0.002      326.502       -8.607      872.006
12/09/2013  18:12:00     -108.559       -1.000      -12.882       30.611       14.673       16.007      937.055      215.295      256.215        0.668        0.070      108.564       16.265        0.022      326.510       -8.592      872.007
12/09/2013  18:13:00     -101.057        3.165       -8.097       28.974       20.611       18.932      839.480      424.832      358.433        0.596        0.081      101.107       18.866        0.035      326.521       -8.576      872.008
12/09/2013  18:14:00     -129.918        6.947      -14.851       21.844       17.364       16.050      477.162      301.513      257.602        0.909        0.052      130.104       12.268        0.009      326.435       -8.715      872.009
12/09/2013  18:15:00      -94.848       -2.596       -7.507       23.430       17.763       13.425      548.944      315.532      180.242        0.505        0.052       94.883       10.620        0.013      326.461       -8.673      872.026
12/09/2013  18:16:00     -107.428       -2.250      -10.203       31.068       18.849       14.504      965.205      355.273      210.355        0.659        0.077      107.452       10.033        0.009      326.402       -8.769      872.034
12/09/2013  18:17:00     -136.692        1.298      -14.127       29.759       21.335       18.377      885.607      455.168      337.706        1.028        0.084      136.698       13.016        0.009      326.316       -8.906      872.043
12/09/2013  18:18:00     -114.915       -5.255       -8.889       33.792       19.972       17.771     1141.920      398.871      315.793        0.758        0.093      115.035       16.095        0.020      326.234       -9.041      872.058
12/09/2013  18:19:00     -119.702      -10.199       -6.329       38.649       24.810       22.666     1493.783      615.557      513.742        0.855        0.131      120.136       23.651        0.039      326.202       -9.091      872.067
12/09/2013  18:20:00     -145.118      -14.105      -17.680       32.767       24.040       18.566     1073.668      577.937      344.714        1.178        0.100      145.801       16.071        0.012      326.146       -9.183      872.073
12/09/2013  18:21:00     -144.861      -11.232      -16.604       33.327       22.876       24.350     1110.706      523.306      592.940        1.181        0.111      145.295       17.978        0.015      326.063       -9.316      872.081
12/09/2013  18:22:00     -140.858        1.238      -12.802       30.533       19.528       20.576      932.243      381.337      423.365        1.087        0.087      140.864       16.226        0.013      326.070       -9.305      872.094
12/09/2013  18:23:00     -150.462      -13.779      -16.176       37.908       22.614       20.651     1436.980      511.373      426.472        1.273        0.119      151.092       16.876        0.012      326.029       -9.372      872.110
12/09/2013  18:24:00     -131.963       -7.973      -17.447       29.371       27.307       17.105      862.661      745.664      292.580        0.984        0.095      132.204        4.009        0.001      326.043       -9.347      872.123
12/09/2013  18:25:00     -116.062      -17.013      -15.678       31.951       25.464       17.709     1020.847      648.426      313.609        0.799        0.099      117.303       13.476        0.013      325.982       -9.448      872.151
12/09/2013  18:26:00     -145.057       -7.578      -16.977       37.999       26.111       25.740     1443.938      681.808      662.532        1.209        0.139      145.255       21.834        0.023      325.982       -9.449      872.164
12/09/2013  18:27:00     -161.155      -20.919      -17.613       38.396       29.886       23.084     1474.263      893.189      532.871        1.481        0.145      162.507       20.617        0.016      325.908       -9.568      872.171
12/09/2013  18:28:00     -139.182      -15.928      -11.701       41.381       35.777       26.279     1712.404     1280.009      690.584        1.172        0.184      140.091       12.910        0.008      325.980       -9.451      872.187
12/09/2013  18:29:00     -127.604      -41.322      -11.042       46.086       41.285       31.694     2123.892     1704.422     1004.539        1.147        0.242      134.128       23.079        0.030      326.019       -9.388      872.195
12/09/2013  18:30:00     -125.006      -62.569       -7.714       49.139       36.668       27.651     2414.614     1344.520      764.592        1.206        0.226      139.791       18.127        0.017      325.982       -9.448      872.198
12/09/2013  18:31:00     -172.901      -14.392      -13.171       43.209       42.342       25.606     1867.005     1792.810      655.644        1.729        0.216      173.499       25.935        0.022      325.935       -9.524      872.209
12/09/2013  18:32:00     -186.809       -9.365      -12.598       34.561       26.440       23.100     1194.495      699.059      533.600        1.879        0.121      187.044       19.195        0.011      325.917       -9.553      872.199
12/09/2013  18:33:00     -164.227       -4.368       -6.810       38.036       26.995       23.116     1446.736      728.754      534.334        1.487        0.135      164.285       24.182        0.022      325.933       -9.527      872.184
12/09/2013  18:34:00     -167.561      -12.964      -10.469       42.594       25.003       25.793     1814.278      625.141      665.269        1.573        0.155      168.062       25.963        0.024      325.917       -9.554      872.180
12/09/2013  18:35:00     -136.792      -29.618      -13.685       30.736       26.403       23.292      944.679      697.143      542.515        1.098        0.109      139.962       20.765        0.022      325.943       -9.512      872.167
12/09/2013  18:36:00     -157.556       13.919      -16.771       30.068       22.567       22.683      904.102      509.250      514.517        1.361        0.096      158.170       15.640        0.010      325.888       -9.599      872.158
12/09/2013  18:37:00     -136.598       -3.721      -10.146       36.113       26.145       23.621     1304.139      683.569      557.935        1.066        0.127      136.649       20.441        0.022      325.857       -9.649      872.164
12/09/2013  18:38:00     -132.407       -1.901      -10.663       37.653       25.610       23.270     1417.772      655.870      541.478        1.013        0.131      132.421       20.655        0.024      325.843       -9.673      872.161
12/09/2013  18:39:00     -124.192      -25.900       -3.826       30.926       30.074       22.703      956.442      904.465      515.420        0.924        0.119      126.864       13.016        0.011      325.909       -9.566      872.137
12/09/2013  18:40:00     -132.132      -43.695      -15.646       41.850       30.174       18.253     1751.387      910.500      333.183        1.130        0.150      139.169       13.983        0.010      325.902       -9.577      872.131
12/09/2013  18:41:00     -129.089        7.693      -11.349       25.315       34.666       21.781      640.874     1201.714      474.409        0.958        0.116      129.318       11.302        0.008      325.920       -9.548      872.120
12/09/2013  18:42:00     -101.904      -15.292      -14.765       50.651       29.664       23.177     2565.544      879.955      537.187        0.741        0.199      103.045       16.910        0.027      326.021       -9.384      872.108
12/09/2013  18:43:00     -124.210        4.026      -13.096       33.163       29.068       20.162     1099.787      844.935      406.502        0.898        0.118      124.275       14.251        0.013      325.898       -9.583      872.101
12/09/2013  18:44:00     -134.844       -9.683      -18.479       33.328       18.084       20.335     1110.755      327.038      413.527        1.023        0.093      135.191       14.067        0.011      325.881       -9.612      872.106
12/09/2013  18:45:00     -121.665        1.253       -9.817       39.718       27.258       23.771     1577.518      743.018      565.042        0.889        0.144      121.672       22.689        0.035      325.786       -9.764      872.095
12/09/2013  18:46:00     -120.670       -1.192      -15.137       22.648       23.391       18.949      512.920      547.131      359.075        0.811        0.071      120.675       12.669        0.011      325.813       -9.720      872.079
12/09/2013  18:47:00      -96.903      -16.202      -11.648       24.139       27.989       22.503      582.674      783.410      506.365        0.583        0.094       98.248       10.309        0.011      325.808       -9.731      872.067
12/09/2013  18:48:00      -74.913      -27.098      -12.634       30.899       25.660       18.481      954.761      658.456      341.533        0.423        0.098       79.663       14.588        0.034      325.866       -9.635      872.069
12/09/2013  18:49:00     -103.217      -16.815      -15.958       16.520       14.638       14.613      272.923      214.265      213.543        0.595        0.035      104.577        7.682        0.005      325.919       -9.549      872.071
12/09/2013  18:50:00     -102.636       -3.437      -16.803       18.436       20.746       15.675      339.899      430.379      245.719        0.592        0.051      102.694        6.812        0.004      325.917       -9.553      872.073
12/09/2013  18:51:00     -124.022        4.609      -10.527       22.311       17.414       14.489      497.767      303.250      209.926        0.826        0.051      124.107       11.287        0.008      325.854       -9.655      872.080
12/09/2013  18:52:00      -99.316      -25.547      -14.848       21.373       21.538       15.516      456.788      463.870      240.732        0.595        0.058      102.549        8.586        0.007      325.845       -9.669      872.095
12/09/2013  18:53:00      -98.616       -7.144      -15.046       21.048       17.325       17.712      443.033      300.141      313.727        0.553        0.053       98.874       11.185        0.013      325.822       -9.706      872.102
12/09/2013  18:54:00      -81.333      -25.676      -16.041       18.138       19.405       17.304      328.995      376.562      299.414        0.427        0.050       85.289        9.285        0.012      325.959       -9.485      872.107
12/09/2013  18:55:00      -30.203       -8.545        1.632       21.056       25.361       15.761      443.347      643.195      248.403        0.116        0.067       31.388       10.821        0.119      325.974       -9.462      872.106
12/09/2013  18:56:00      -72.977       -5.299      -12.172       29.313       17.774       15.264      859.235      315.913      232.982        0.345        0.070       73.170       14.564        0.040      325.904       -9.574      872.110
12/09/2013  18:57:00      -42.754        1.534       -7.489       38.679       19.482       19.184     1496.071      379.540      368.016        0.206        0.112       42.781       23.961        0.314      325.914       -9.558      872.099
12/09/2013  18:58:00      -49.981        0.715       -7.395       25.295       19.343       16.608      639.858      374.139      275.827        0.192        0.064       49.986       13.287        0.071      325.894       -9.590      872.096
12/09/2013  18:59:00      -83.873      -10.387      -12.293       26.891       28.821       20.747      723.143      830.667      430.454        0.464        0.099       84.514       18.340        0.047      325.908       -9.567      872.092
12/09/2013  19:00:00      -67.977       -0.403      -13.533       27.263       14.906       15.059      743.251      222.188      226.785        0.300        0.060       67.978       12.029        0.031      325.901       -9.579      872.104
12/09/2013  19:01:00      -60.638       -0.575       -5.735       21.683       22.368       17.216      470.172      500.343      296.399        0.249        0.063       60.641       10.102        0.028      325.960       -9.484      872.115
12/09/2013  19:02:00      -41.977       -5.043       -8.322       27.613       14.111       11.168      762.493      199.107      124.716        0.147        0.054       42.279        8.333        0.039      326.069       -9.306      872.116
12/09/2013  19:03:00      -52.928      -12.389      -10.049       17.152       16.736       12.378      294.199      280.081      153.206        0.189        0.036       54.358       10.781        0.039      325.949       -9.502      872.112
12/09/2013  19:04:00      -43.943       -3.933      -18.751       17.237       17.450       15.501      297.097      304.498      240.294        0.157        0.042       44.118       10.007        0.051      325.985       -9.443      872.114
12/09/2013  19:05:00      -58.014       -2.464      -16.345       21.820       20.679       14.324      476.123      427.634      205.168        0.237        0.055       58.066       13.600        0.055      326.020       -9.386      872.097
12/09/2013  19:06:00      -79.793        8.368       -4.995       25.648       12.885       16.524      657.839      166.035      273.027        0.378        0.055       80.231       14.015        0.031      325.915       -9.556      872.080
12/09/2013  19:07:00      -72.670       -1.285       -8.992       18.291       16.931       13.990      334.575      286.645      195.708        0.309        0.041       72.681       11.265        0.024      325.965       -9.476      872.066
12/09/2013  19:08:00      -62.835      -11.711       -8.572       25.292       15.417       11.160      639.688      237.685      124.551        0.258        0.050       63.917       10.351        0.026      325.913       -9.560      872.075
12/09/2013  19:09:00      -95.942       -3.358      -12.915       16.283       10.744        8.893      265.136      115.426       79.084        0.492        0.023       96.001        4.302        0.002      325.802       -9.739      872.072
12/09/2013  19:10:00      -86.573       -9.962      -11.965       16.889       10.585        9.285      285.255      112.037       86.212        0.411        0.024       87.145        5.867        0.005      325.857       -9.650      872.072
12/09/2013  19:11:00      -68.055       -9.620       -9.507       18.813       15.808       11.062      353.947      249.895      122.367        0.277        0.036       68.732        4.447        0.004      325.857       -9.650      872.079
12/09/2013  19:12:00      -74.316      -21.936       -9.378       16.973       16.768       11.142      288.069      281.164      124.142        0.339        0.035       77.486        7.521        0.009      325.943       -9.511      872.085
12/09/2013  19:13:00      -77.860      -20.601      -11.078       19.500       20.541        9.807      380.255      421.931       96.176        0.375        0.045       80.539        6.267        0.006      325.915       -9.557      872.098
12/09/2013  19:14:00      -89.005      -21.665      -15.206       20.256       23.653       13.035      410.315      559.447      169.916        0.488        0.057       91.604        8.673        0.009      325.910       -9.564      872.103
12/09/2013  19:15:00      -71.704      -23.004      -13.657       19.057       15.934       14.133      363.158      253.908      199.731        0.334        0.041       75.304        7.022        0.009      325.869       -9.629      872.110
12/09/2013  19:16:00      -80.578       -1.247      -10.713       16.349       17.415       15.011      267.301      303.265      225.326        0.370        0.040       80.588        9.038        0.013      325.865       -9.636      872.123
12/09/2013  19:17:00      -64.796      -17.335      -14.634       11.562       18.360       11.860      133.691      337.092      140.664        0.266        0.031       67.075        9.028        0.018      325.905       -9.573      872.128
12/09/2013  19:18:00      -97.831      -15.370       -8.511       16.556       13.586       10.020      274.095      184.578      100.398        0.522        0.028       99.031        8.372        0.007      325.872       -9.626      872.122
12/09/2013  19:19:00     -102.032       -6.254      -11.053       17.681       11.827       10.171      312.601      139.866      103.442        0.556        0.028      102.223        7.200        0.005      325.822       -9.706      872.115
12/09/2013  19:20:00      -66.835       -1.118      -10.704       18.645       16.815       13.057      347.637      282.744      170.497        0.269        0.040       66.844        7.112        0.011      325.854       -9.654      872.117
12/09/2013  19:21:00      -80.127       -0.884       -9.407       18.991       19.311       17.129      360.644      372.909      293.390        0.377        0.051       80.132       10.466        0.017      325.842       -9.675      872.137
12/09/2013  19:22:00      -72.026       -9.075      -10.747       23.095       17.911       13.868      533.401      320.817      192.313        0.322        0.052       72.595       12.760        0.031      325.812       -9.723      872.156
12/09/2013  19:23:00      -66.010       -9.181       -8.312       25.279       20.601       18.977      639.053      424.402      360.118        0.297        0.071       66.645       15.389        0.053      325.768       -9.795      872.170
12/09/2013  19:24:00      -42.286      -12.214       -5.301       23.369       25.106       14.192      546.100      630.323      201.404        0.167        0.069       44.014       14.287        0.105      325.813       -9.720      872.177
12/09/2013  19:25:00      -29.744       -3.750       -0.491       26.187       14.840       10.926      685.764      220.223      119.378        0.096        0.051       29.980        3.539        0.014      325.813       -9.720      872.172
12/09/2013  19:26:00      -60.495       -7.117      -11.425       29.524       21.910       17.400      871.680      480.067      302.760        0.275        0.083       60.912       16.611        0.074      325.790       -9.759      872.169
12/09/2013  19:27:00      -51.655       -2.223       -8.852       31.657       23.979       18.616     1002.152      574.994      346.542        0.234        0.096       51.703       18.972        0.135      325.798       -9.745      872.171
12/09/2013  19:28:00      -14.544        3.618       -3.815       29.718       19.754       19.146      883.166      390.229      366.576        0.094        0.082       14.988       19.301        1.658      325.817       -9.714      872.186
12/09/2013  19:29:00      -22.508      -10.637      -16.337       18.210       17.923       14.510      331.596      321.221      210.538        0.087        0.043       24.895       11.844        0.226      325.849       -9.663      872.202
12/09/2013  19:30:00      -54.549        6.439      -11.807       20.289       17.380       15.998      411.662      302.071      255.934        0.206        0.048       54.928       10.986        0.040      325.882       -9.609      872.217
12/09/2013  19:31:00      -70.634       -1.530      -13.522       17.296       11.689       11.290      299.149      136.633      127.465        0.287        0.028       70.650        8.032        0.013      325.908       -9.568      872.225
12/09/2013  19:32:00      -64.821      -12.468       -9.439       11.632       13.327        9.110      135.305      177.622       82.996        0.242        0.020       66.009        8.596        0.017      325.915       -9.556      872.229
12/09/2013  19:33:00      -56.684       -8.088      -13.140       17.741       16.609       11.830      314.729      275.847      139.940        0.209        0.037       57.258       11.465        0.040      325.958       -9.486      872.232
12/09/2013  19:34:00      -36.351       -6.601       -1.798       24.057       16.067        7.786      578.715      258.135       60.623        0.113        0.045       36.946        6.743        0.033      325.974       -9.463      872.235
12/09/2013  19:35:00      -13.585      -11.633       -0.606       12.688       11.468       10.143      160.986      131.518      102.888        0.036        0.020       17.885        7.949        0.198      326.056       -9.328      872.238
12/09/2013  19:36:00      -32.260      -12.800       -6.790       21.342       16.161       11.282      455.501      261.192      127.286        0.105        0.042       34.707        7.033        0.041      326.013       -9.397      872.233
12/09/2013  19:37:00      -13.491      -11.429        1.887       17.813       11.893       11.058      317.318      141.435      122.283        0.045        0.029       17.681        6.340        0.129      326.001       -9.418      872.230
12/09/2013  19:38:00      -15.426      -14.127       -5.321       13.214       11.481        8.430      174.605      131.810       71.069        0.042        0.019       20.917        5.669        0.073      326.017       -9.391      872.239
12/09/2013  19:39:00      -32.862      -17.929       -8.873       12.651       11.649        9.345      160.054      135.702       87.326        0.093        0.019       37.434        6.085        0.026      326.054       -9.331      872.240
12/09/2013  19:40:00      -19.178      -20.464       -0.208       17.743       14.814        9.454      314.811      219.442       89.380        0.070        0.031       28.046        8.055        0.082      326.097       -9.262      872.244
12/09/2013  19:41:00       -1.503       -1.591        3.948        8.520        9.372        7.356       72.590       87.827       54.116        0.012        0.011        2.189        6.537        8.922      326.072       -9.300      872.249
12/09/2013  19:42:00      -16.684       -8.930       -6.543        8.559        8.328        5.585       73.256       69.359       31.191        0.029        0.009       18.924        3.796        0.040      326.088       -9.276      872.257
12/09/2013  19:43:00      -13.497       -9.679       -2.556       12.112       11.273        4.740      146.712      127.069       22.468        0.029        0.015       16.609        2.928        0.031      326.094       -9.266      872.259
12/09/2013  19:44:00      -22.175       15.462       -2.194       18.860       19.343       11.217      355.695      374.170      125.812        0.080        0.043       27.033        1.695        0.004      326.119       -9.227      872.259
12/09/2013  19:45:00      -31.323       14.305       -7.002       16.459       26.070       10.243      270.910      679.664      104.928        0.114        0.053       34.435        6.666        0.037      326.164       -9.153      872.262
12/09/2013  19:46:00      -19.637      -11.058       -8.903       16.009       19.210       12.151      256.288      369.014      147.640        0.068        0.039       22.536        8.867        0.155      326.009       -9.404      872.267
12/09/2013  19:47:00      -24.680       -9.877       -2.545       23.048       12.443        8.180      531.192      154.824       66.913        0.073        0.038       26.583        5.427        0.042      325.922       -9.545      872.279
12/09/2013  19:48:00      -32.146       -6.623       -9.772       15.820       14.100        9.838      250.284      198.802       96.790        0.086        0.027       32.821        7.278        0.049      325.798       -9.745      872.286
12/09/2013  19:49:00      -17.328       -0.212       -2.899       22.403       16.246       12.928      501.876      263.935      167.123        0.062        0.047       17.330       12.099        0.487      325.828       -9.697      872.293
12/09/2013  19:50:00        4.105      -12.695        8.306       23.141       20.006       13.571      535.484      400.249      184.171        0.068        0.056       13.343        4.923        0.136      325.830       -9.693      872.300
12/09/2013  19:51:00      -50.605      -15.476        0.488       28.918       26.689       12.570      836.263      712.309      158.006        0.225        0.085       52.919       11.459        0.047      325.823       -9.705      872.313
12/09/2013  19:52:00      -67.112       -9.779       -1.738       35.379       15.399       13.894     1251.694      237.141      193.035        0.314        0.084       67.821       12.476        0.034      325.869       -9.630      872.331
12/09/2013  19:53:00      -91.559       -7.054       -9.527       20.584       16.348       12.408      423.701      267.254      153.956        0.468        0.042       91.831        8.011        0.008      325.878       -9.617      872.338
12/09/2013  19:54:00      -33.184       -4.501        0.580       31.253       19.957       14.063      976.725      398.264      197.767        0.135        0.079       33.488       13.853        0.171      325.905       -9.572      872.344
12/09/2013  19:55:00      -29.800        2.645       -0.506       31.464       21.153       20.263      989.973      447.469      410.580        0.137        0.092       29.918       18.564        0.385      325.825       -9.702      872.358
12/09/2013  19:56:00      -12.810       -0.201       -6.173       19.245       23.484       15.362      370.357      551.514      235.981        0.068        0.058       12.811        9.386        0.537      325.802       -9.739      872.361
12/09/2013  19:57:00      -16.418        1.030       -9.750       22.472       18.809       17.611      504.984      353.776      310.160        0.077        0.058       16.450       18.009        1.198      325.888       -9.600      872.363
12/09/2013  19:58:00      -28.544       -8.419      -15.362       17.211       20.963       13.115      296.207      439.449      172.011        0.101        0.045       29.760       13.769        0.214      325.951       -9.499      872.357
12/09/2013  19:59:00        4.467       -3.230        7.750       10.121        8.479       13.411      102.434       71.892      179.859        0.022        0.018        5.513        5.519        1.002      326.006       -9.408      872.353
12/09/2013  20:00:00      -12.431       -8.049      -12.737       14.785        8.343       10.599      218.606       69.600      112.335        0.039        0.020       14.809       10.493        0.502      325.973       -9.463      872.344
12/09/2013  20:01:00      -24.204       -8.146       -3.519       18.735       14.366       10.692      350.999      206.391      114.318        0.067        0.034       25.538        9.001        0.124      325.957       -9.490      872.340
12/09/2013  20:02:00       20.636       -0.386       20.044        9.938        5.505       12.716       98.769       30.307      161.698        0.056        0.015       20.640        9.567        0.215      326.013       -9.398      872.335
12/09/2013  20:03:00        9.178      -21.366        6.927       13.200       18.990        9.895      174.234      360.622       97.917        0.061        0.032       23.254        4.826        0.043      326.040       -9.354      872.332
12/09/2013  20:04:00      -26.696      -14.725       -9.777        8.053        9.996        7.860       64.847       99.916       61.780        0.063        0.011       30.487        5.109        0.028      326.007       -9.407      872.335
12/09/2013  20:05:00      -27.310      -18.503       -1.775       17.634       13.339       10.361      310.955      177.938      107.344        0.084        0.030       32.988        4.850        0.022      326.003       -9.414      872.332
12/09/2013  20:06:00      -12.097       -6.480       -0.394        5.833        6.685        7.633       34.029       44.687       58.269        0.016        0.007       13.724        4.296        0.098      325.994       -9.427      872.325
12/09/2013  20:07:00      -26.208        0.830       -6.488       11.042       12.875        9.230      121.929      165.777       85.186        0.055        0.019       26.222        5.860        0.050      326.065       -9.314      872.331
12/09/2013  20:08:00      -32.276       -5.052        0.284       17.395       11.300       13.681      302.589      127.679      187.171        0.084        0.031       32.669        7.272        0.050      325.996       -9.425      872.336
12/09/2013  20:09:00       -7.569        3.686       -2.390       10.134        9.210        8.435      102.702       84.820       71.155        0.017        0.013        8.419        4.667        0.307      325.940       -9.516      872.346
12/09/2013  20:10:00      -17.436       -0.863       -5.943       10.005       10.440        7.499      100.105      108.988       56.233        0.030        0.013       17.457        5.143        0.087      325.926       -9.538      872.353
12/09/2013  20:11:00       -5.585        4.835       -3.795       11.783        8.738        8.022      138.839       76.344       64.345        0.017        0.014        7.388        7.772        1.107      325.952       -9.496      872.358
12/09/2013  20:12:00       -2.812        0.211        4.212        6.630        7.632        5.599       43.959       58.243       31.351        0.008        0.007        2.820        4.478        2.521      325.979       -9.454      872.354
12/09/2013  20:13:00       -8.213       12.421        9.603        8.601       17.904        9.853       73.970      320.542       97.077        0.040        0.025       14.891        5.435        0.133      326.088       -9.276      872.349
12/09/2013  20:14:00       -5.185        9.339       12.594        5.928       10.669        5.787       35.146      113.817       33.488        0.023        0.009       10.682        3.626        0.115      326.099       -9.257      872.347
12/09/2013  20:15:00        6.970        5.815        7.098       10.726        5.467        5.993      115.038       29.886       35.912        0.016        0.009        9.077        6.265        0.476      326.097       -9.262      872.347
12/09/2013  20:16:00       23.002       14.851       15.680        7.885        6.804        8.187       62.166       46.298       67.023        0.059        0.009       27.380        4.008        0.021      326.247       -9.017      872.347
12/09/2013  20:17:00        9.656        4.566       11.796       13.690       10.491        4.889      187.423      110.069       23.905        0.029        0.016       10.681        6.141        0.331      326.200       -9.095      872.348
12/09/2013  20:18:00       -6.685      -17.083        9.328       10.250        9.249        7.496      105.070       85.540       56.196        0.034        0.012       18.344        7.545        0.169      326.174       -9.136      872.346
12/09/2013  20:19:00       -1.095        7.891        6.419        6.674       11.194        7.651       44.543      125.303       58.535        0.017        0.011        7.966        7.747        0.946      326.186       -9.119      872.339
12/09/2013  20:20:00       15.674        3.016       -0.294        8.142        8.484        6.936       66.288       71.978       48.102        0.022        0.009       15.962        4.032        0.064      326.268       -8.986      872.329
12/09/2013  20:21:00       11.397       28.042       14.806       10.277       11.869       12.303      105.607      140.878      151.363        0.077        0.020       30.269        3.915        0.017      326.257       -9.004      872.325
12/09/2013  20:22:00        2.198       13.056       17.359       14.367        9.689        5.788      206.407       93.868       33.506        0.041        0.017       13.239        2.107        0.025      326.178       -9.131      872.333
12/09/2013  20:23:00       25.658       13.698       17.064       13.603       12.543        7.387      185.037      157.323       54.568        0.077        0.020       29.085        3.859        0.018      326.218       -9.065      872.340
12/09/2013  20:24:00       -3.457       -7.247       12.445        7.067       10.244        5.793       49.949      104.934       33.555        0.020        0.009        8.029        0.917        0.013      326.254       -9.007      872.340
12/09/2013  20:25:00       18.061       11.357       13.979       12.366        7.116        9.502      152.908       50.638       90.283        0.047        0.015       21.335        7.995        0.140      326.246       -9.020      872.336
12/09/2013  20:26:00       24.176       13.614       14.446       14.267       12.910       12.330      203.545      166.676      152.024        0.075        0.026       27.746        8.890        0.103      326.218       -9.066      872.331
12/09/2013  20:27:00       17.475       13.534       19.050       17.984       16.786       10.760      323.417      281.756      115.783        0.079        0.036       22.103        5.789        0.069      326.197       -9.100      872.330
12/09/2013  20:28:00       15.843        3.350       13.477       14.927       14.664       13.886      222.814      215.040      192.823        0.054        0.032       16.193        8.996        0.309      326.200       -9.095      872.323
12/09/2013  20:29:00        7.579       12.055       14.834        9.047       10.094        9.536       81.842      101.882       90.926        0.035        0.014       14.239        6.164        0.187      326.238       -9.032      872.318
12/09/2013  20:30:00        4.815        1.756       10.351       14.036       12.624       13.854      197.007      159.365      191.945        0.034        0.027        5.125        6.570        1.644      326.220       -9.062      872.313
12/09/2013  20:31:00       10.659        4.395       18.935       15.786        7.844        8.215      249.209       61.521       67.482        0.043        0.019       11.530        7.954        0.476      326.191       -9.110      872.305
12/09/2013  20:32:00        2.468      -25.761       18.416        7.202       16.003       10.934       51.871      256.088      119.547        0.072        0.021       25.879        5.396        0.043      326.238       -9.035      872.300
12/09/2013  20:33:00        2.501      -35.222       12.126       10.545       19.966       17.359      111.193      398.653      301.352        0.110        0.041       35.310       12.920        0.134      326.255       -9.006      872.300
12/09/2013  20:34:00      -29.418      -17.081        7.665       13.586       14.756       10.596      184.571      217.746      112.270        0.087        0.026       34.017        6.545        0.037      325.870       -9.630      872.311
12/09/2013  20:35:00      -53.356        5.288       -5.758        8.408        8.826        7.618       70.693       77.903       58.034        0.156        0.010       53.617        1.638        0.001      325.642       -9.998      872.319
12/09/2013  20:36:00      -63.833        2.614       -9.627       11.934        7.666        9.077      142.414       58.763       82.398        0.223        0.014       63.887        4.817        0.006      325.764       -9.800      872.322
12/09/2013  20:37:00      -16.052        5.941        4.110       23.599       13.834        9.412      556.895      191.384       88.588        0.057        0.042       17.116        6.261        0.134      325.957       -9.489      872.323
12/09/2013  20:38:00        4.105        9.769       18.771       22.714       12.489       12.528      515.933      155.968      156.945        0.065        0.041       10.596       15.931        2.260      325.982       -9.449      872.312
12/09/2013  20:39:00       -4.807      -15.724        5.361       32.074       19.555       16.889     1028.732      382.410      285.224        0.100        0.085       16.442       21.582        1.723      325.853       -9.656      872.309
12/09/2013  20:40:00      -65.493        7.076       -8.443       34.505       22.995       15.174     1190.582      528.762      230.264        0.318        0.097       65.875        8.812        0.018      325.483      -10.256      872.307
12/09/2013  20:41:00      -87.832        2.563       -6.745       44.572       24.943       23.750     1986.669      622.153      564.070        0.547        0.159       87.870       23.538        0.072      325.453      -10.302      872.303
12/09/2013  20:42:00      -64.469       -8.673       -3.765       37.568       33.506       22.504     1411.363     1122.650      506.431        0.364        0.152       65.050       23.358        0.129      325.484      -10.253      872.296
12/09/2013  20:43:00      -26.773        5.169        4.943       33.527       19.323       19.951     1124.063      373.372      398.061        0.133        0.095       27.267       20.261        0.552      325.412      -10.369      872.294
12/09/2013  20:44:00      -68.394      -10.749       -2.777       44.055       27.387       20.011     1940.842      750.071      400.456        0.395        0.155       69.234       22.123        0.102      325.416      -10.362      872.287
12/09/2013  20:45:00      -48.646      -30.858        0.986       27.994       22.982       17.512      783.641      528.168      306.683        0.247        0.081       57.608       13.005        0.051      325.369      -10.438      872.276
12/09/2013  20:46:00      -93.126      -17.892      -12.897       18.779       15.167       12.853      352.639      230.050      165.207        0.495        0.037       94.829        3.577        0.001      325.355      -10.462      872.271
12/09/2013  20:47:00      -80.909      -17.207       -7.503       16.097       20.321       12.068      259.127      412.947      145.643        0.386        0.041       82.719        5.198        0.004      325.400      -10.387      872.264
12/09/2013  20:48:00     -119.561       -9.577      -13.531       19.970       16.419       12.493      398.797      269.583      156.076        0.770        0.041      119.944        7.811        0.004      325.333      -10.495      872.265
12/09/2013  20:49:00     -109.649       -8.905      -12.503       19.519       15.677       14.843      381.003      245.783      220.309        0.655        0.042      110.010        5.963        0.003      325.384      -10.414      872.264
12/09/2013  20:50:00      -76.920      -16.706       -5.400       23.128       15.359       13.903      534.884      235.909      193.287        0.359        0.048       78.714       12.861        0.027      325.390      -10.404      872.273
12/09/2013  20:51:00      -63.703      -16.117       -8.822       22.195       15.148       12.530      492.610      229.474      156.999        0.264        0.044       65.710        6.347        0.009      325.374      -10.429      872.280
12/09/2013  20:52:00      -70.533      -25.282      -10.791       14.747       11.919        8.497      217.469      142.072       72.201        0.308        0.022       74.927        3.913        0.003      325.419      -10.357      872.292
12/09/2013  20:53:00      -99.264       -5.664       -9.340       21.655       15.991       12.967      468.951      255.713      168.155        0.543        0.045       99.425        8.463        0.007      325.274      -10.591      872.315
12/09/2013  20:54:00     -109.144       -1.280      -12.870       32.943       21.236       18.863     1085.244      450.983      355.796        0.699        0.095      109.152       15.145        0.019      325.286      -10.574      872.335
12/09/2013  20:55:00     -116.862       -0.034      -12.700       30.038       20.867       18.203      902.301      435.445      331.357        0.774        0.083      116.862       17.825        0.023      325.191      -10.726      872.353
12/09/2013  20:56:00      -88.636      -16.179      -10.104       32.448       27.798       15.672     1052.899      772.740      245.609        0.515        0.104       90.101       14.857        0.027      325.266      -10.603      872.364
12/09/2013  20:57:00      -96.238       -2.163       -4.427       40.620       25.955       22.926     1650.017      673.649      525.624        0.607        0.142       96.263       20.709        0.046      325.206      -10.702      872.367
12/09/2013  20:58:00     -108.957        4.146       -5.114       45.391       28.967       23.410     2060.323      839.098      548.009        0.768        0.172      109.036       22.489        0.043      325.115      -10.849      872.365
12/09/2013  20:59:00      -83.631      -12.418        1.419       45.483       32.006       24.811     2068.676     1024.363      615.569        0.543        0.185       84.548       26.339        0.097      325.156      -10.784      872.382
12/09/2013  21:00:00     -118.257       -4.196       -0.178       39.955       31.342       25.796     1596.370      982.328      665.416        0.862        0.162      118.331       24.416        0.043      325.180      -10.744      872.385
12/09/2013  21:01:00     -106.667       -4.518      -10.752       27.487       17.125       16.405      755.537      293.267      269.124        0.642        0.066      106.763       11.896        0.012      325.188      -10.731      872.398
12/09/2013  21:02:00      -94.043      -14.037       -2.546       35.849       30.005       19.826     1285.161      900.272      393.051        0.581        0.129       95.085       17.332        0.033      325.313      -10.529      872.409
12/09/2013  21:03:00      -97.016      -12.032       -4.568       30.572       30.986       15.366      934.661      960.138      236.113        0.585        0.107       97.759       12.933        0.018      325.310      -10.533      872.428
12/09/2013  21:04:00     -105.362        3.075       -9.573       28.418       24.085       20.653      807.608      580.111      426.536        0.651        0.091      105.407       14.571        0.019      325.293      -10.560      872.441
12/09/2013  21:05:00      -83.055       -0.838       -2.276       41.274       26.297       19.554     1703.563      691.535      382.346        0.484        0.139       83.059       21.678        0.068      325.208      -10.700      872.445
12/09/2013  21:06:00      -97.167       -5.725       -6.553       34.718       22.270       17.272     1205.353      495.965      298.306        0.576        0.100       97.335       17.776        0.033      325.238      -10.650      872.443
12/09/2013  21:07:00      -75.278      -19.257       -4.608       21.194       22.980       14.888      449.189      528.093      221.661        0.363        0.060       77.702       10.211        0.017      325.204      -10.706      872.438
12/09/2013  21:08:00      -80.688      -16.234       -5.892       18.830       15.202       14.369      354.579      231.104      206.468        0.380        0.040       82.305        9.630        0.014      325.216      -10.686      872.438
12/09/2013  21:09:00      -84.065       -9.815       -9.705       11.281       10.416       10.754      127.253      108.492      115.638        0.380        0.018       84.636        4.776        0.003      325.237      -10.651      872.427
12/09/2013  21:10:00      -85.404      -11.639      -12.443       17.999       16.735       10.597      323.956      280.045      112.287        0.415        0.036       86.194        5.589        0.004      325.228      -10.667      872.416
12/09/2013  21:11:00      -92.837       -2.785      -11.604       13.283       11.911       10.978      176.451      141.871      120.525        0.460        0.022       92.879        6.846        0.005      325.242      -10.643      872.418
12/09/2013  21:12:00      -61.082      -14.274      -13.048       15.282       13.507       13.259      233.549      182.433      175.806        0.235        0.030       62.728        8.763        0.020      325.299      -10.552      872.415
12/09/2013  21:13:00      -60.986      -17.064      -16.245       11.194       11.056        9.407      125.297      122.240       88.493        0.231        0.017       63.329        5.322        0.007      325.395      -10.397      872.404
12/09/2013  21:14:00      -75.670        1.079       -9.399       13.384       15.352       11.115      179.145      235.688      123.548        0.318        0.027       75.678        7.361        0.009      325.390      -10.404      872.397
12/09/2013  21:15:00      -83.033        7.649      -12.149       16.681       12.238       14.203      278.243      149.781      201.732        0.387        0.031       83.385        7.877        0.009      325.411      -10.371      872.391
12/09/2013  21:16:00      -79.876       -8.813      -13.738       21.534       13.916       12.027      463.697      193.662      144.650        0.372        0.040       80.361        9.717        0.015      325.342      -10.481      872.390
12/09/2013  21:17:00      -81.890      -13.168       -8.725       27.403       19.020       13.915      750.936      361.769      193.641        0.413        0.065       82.942       13.530        0.027      325.272      -10.594      872.401
12/09/2013  21:18:00     -107.997      -11.247       -6.642       29.701       22.237       19.022      882.136      494.464      361.842        0.679        0.087      108.581       15.214        0.020      325.134      -10.818      872.414
12/09/2013  21:19:00     -105.555      -28.012      -12.822       24.147       18.272       16.486      583.081      333.868      271.785        0.664        0.059      109.208       13.436        0.015      325.185      -10.736      872.419
12/09/2013  21:20:00      -95.742      -21.373       -7.013       17.120       23.827       14.216      293.094      567.741      202.092        0.537        0.053       98.098        7.610        0.006      325.148      -10.795      872.430
12/09/2013  21:21:00      -94.408      -23.564       -9.571       25.396       21.307       13.159      644.977      454.006      173.160        0.542        0.064       97.305       14.595        0.022      325.201      -10.711      872.436
12/09/2013  21:22:00      -94.884        3.959       -8.679       19.077       12.646       16.546      363.917      159.930      273.781        0.495        0.040       94.966       13.134        0.019      325.206      -10.702      872.445
12/09/2013  21:23:00     -103.503       13.093      -13.642       11.106        7.893        9.259      123.348       62.293       85.732        0.567        0.014      104.328        4.757        0.002      325.188      -10.732      872.455
12/09/2013  21:24:00     -108.754        5.621      -15.239       13.742       14.101        9.652      188.834      198.829       93.166        0.629        0.024      108.899        3.995        0.001      325.190      -10.728      872.468
12/09/2013  21:25:00     -128.398       -9.246      -15.978       18.658       17.332       12.380      348.112      300.415      153.253        0.881        0.040      128.731        6.849        0.003      325.209      -10.697      872.469
12/09/2013  21:26:00     -103.558       -5.552       -3.907       45.033       26.148       21.609     2027.955      683.733      466.944        0.697        0.159      103.706       26.582        0.066      325.140      -10.807      872.466
12/09/2013  21:27:00     -102.044      -23.611       -7.172       47.159       32.592       22.657     2223.930     1062.262      513.347        0.741        0.190      104.740       24.085        0.053      325.070      -10.921      872.452
12/09/2013  21:28:00      -92.922      -17.547       -5.621       36.173       27.088       18.370     1308.509      733.759      337.439        0.568        0.119       94.564       13.836        0.021      324.922      -11.160      872.451
12/09/2013  21:29:00     -115.946       -5.839       -8.805       57.828       26.970       24.114     3344.025      727.390      581.466        0.910        0.233      116.093       31.862        0.075      324.853      -11.271      872.458
12/09/2013  21:30:00     -141.948       -5.319       -9.226       28.823       26.247       22.446      830.785      688.879      503.842        1.114        0.101      142.048       12.832        0.008      324.866      -11.251      872.470
12/09/2013  21:31:00     -112.123       -9.811       -8.649       30.351       28.673       23.344      921.165      822.115      544.930        0.751        0.114      112.552       19.040        0.029      324.904      -11.189      872.472
12/09/2013  21:32:00      -99.594       -4.281       -3.445       30.224       28.750       18.336      913.519      826.536      336.200        0.601        0.104       99.686       18.162        0.033      324.886      -11.217      872.488
12/09/2013  21:33:00     -123.085      -24.161      -11.882       35.889       22.212       15.797     1288.038      493.358      249.543        0.895        0.102      125.433       14.198        0.013      324.787      -11.378      872.502
12/09/2013  21:34:00      -93.640      -22.082       -3.669       46.694       22.716       15.661     2180.345      516.002      245.275        0.611        0.147       96.209       16.985        0.031      324.921      -11.161      872.515
12/09/2013  21:35:00     -104.635      -12.502       -4.105       31.368       25.629       19.946      983.922      656.858      397.846        0.658        0.102      105.379       19.107        0.033      324.885      -11.220      872.521
12/09/2013  21:36:00      -91.608       -9.722       -6.433       27.309       20.110       19.475      745.757      404.393      379.292        0.503        0.076       92.123       17.056        0.034      324.926      -11.152      872.537
12/09/2013  21:37:00      -74.796      -11.358       -4.585       18.874       19.508       13.774      356.224      380.580      189.730        0.334        0.046       75.653        8.291        0.012      325.089      -10.890      872.544
12/09/2013  21:38:00     -105.115        0.503      -12.582       18.574       16.475       21.668      345.002      271.419      469.496        0.615        0.054      105.116       11.591        0.012      324.923      -11.159      872.549
12/09/2013  21:39:00     -121.685       -2.440      -14.820       23.906       21.380       15.119      571.500      457.084      228.583        0.814        0.063      121.710       11.826        0.009      324.819      -11.326      872.548
12/09/2013  21:40:00     -131.335       -6.143      -13.549       17.601       13.779       15.831      309.789      189.862      250.608        0.911        0.038      131.479       10.372        0.006      324.834      -11.301      872.555
12/09/2013  21:41:00     -120.175       -8.484       -5.500       26.060       19.930       19.407      679.129      397.210      376.650        0.800        0.073      120.474       14.308        0.014      324.857      -11.264      872.561
12/09/2013  21:42:00     -119.918       -8.611      -13.707       23.306       27.238       17.047      543.183      741.912      290.591        0.811        0.079      120.227       11.385        0.009      324.819      -11.326      872.559
12/09/2013  21:43:00     -137.346        5.639       -8.984       30.277       21.874       18.760      916.667      478.487      351.936        1.036        0.087      137.462       15.514        0.013      324.775      -11.397      872.555
12/09/2013  21:44:00     -117.866       -4.761      -11.543       27.099       20.326       22.744      734.360      413.151      517.291        0.786        0.083      117.962       17.396        0.022      324.738      -11.457      872.547
12/09/2013  21:45:00      -89.223      -18.390       -1.794       24.307       21.496       20.276      590.823      462.073      411.119        0.488        0.073       91.099       14.894        0.027      324.780      -11.389      872.562
12/09/2013  21:46:00      -75.391      -25.663       -7.138       21.326       24.701       16.493      454.813      610.159      272.005        0.386        0.067       79.639       10.285        0.017      324.897      -11.199      872.572
12/09/2013  21:47:00      -87.317      -24.184       -6.285       34.959       27.768       17.152     1222.154      771.089      294.204        0.527        0.114       90.604       12.085        0.018      324.852      -11.272      872.583
12/09/2013  21:48:00      -93.978      -12.402      -15.728       19.020       27.587       16.489      361.757      761.066      271.890        0.531        0.070       94.793       11.671        0.015      324.841      -11.291      872.591
12/09/2013  21:49:00     -109.821       -3.309      -21.312       19.047       14.895       11.895      362.790      221.856      141.482        0.663        0.036      109.870        9.123        0.007      324.744      -11.446      872.601
12/09/2013  21:50:00     -138.816       -7.159      -13.067       19.349       24.365       21.083      374.397      593.667      444.498        1.045        0.071      139.001        7.784        0.003      324.705      -11.509      872.617
12/09/2013  21:51:00     -176.797       -4.219      -18.880       21.149       20.655       15.875      447.280      426.640      252.020        1.638        0.056      176.847       10.622        0.004      324.607      -11.667      872.621
12/09/2013  21:52:00     -108.771      -20.639       -5.563       33.355       25.199       20.295     1112.551      634.970      411.883        0.722        0.108      110.712       14.171        0.016      324.665      -11.573      872.617
12/09/2013  21:53:00     -116.831       -2.360       -9.587       21.926       20.200       19.857      480.736      408.055      394.282        0.751        0.064      116.855        8.282        0.005      324.638      -11.617      872.622
12/09/2013  21:54:00      -91.671       -4.606       -6.240       20.579       20.300       17.199      423.485      412.101      295.805        0.480        0.057       91.787        8.390        0.008      324.684      -11.543      872.632
12/09/2013  21:55:00      -92.794       -4.487      -11.749       24.357       15.744       17.661      593.239      247.868      311.920        0.496        0.058       92.902       12.524        0.018      324.719      -11.487      872.649
12/09/2013  21:56:00      -84.816      -12.149       -6.679       18.245       22.902       15.467      332.872      524.502      239.226        0.424        0.055       85.681       11.478        0.018      324.758      -11.425      872.646
12/09/2013  21:57:00      -99.328      -13.704       -5.763       20.294       25.703       13.904      411.860      660.663      193.314        0.568        0.063      100.269        4.750        0.002      324.834      -11.302      872.647
12/09/2013  21:58:00     -104.620       -1.463      -15.765       17.972       21.064       16.532      322.995      443.671      273.295        0.612        0.052      104.631        8.194        0.006      324.701      -11.517      872.651
12/09/2013  21:59:00      -84.688      -20.361       -7.297       27.996       25.461       14.286      783.789      648.262      204.092        0.464        0.082       87.101        9.376        0.012      324.774      -11.399      872.654
12/09/2013  22:00:00      -87.788        4.366      -20.191       22.360       13.985       16.781      499.981      195.588      281.608        0.456        0.049       87.896        4.430        0.003      324.762      -11.417      872.650
12/09/2013  22:01:00      -64.825      -26.067       -3.755       31.228       22.616       14.131      975.208      511.477      199.688        0.329        0.084       69.869        7.015        0.010      324.910      -11.179      872.647
12/09/2013  22:02:00      -82.373      -15.849      -11.814       28.558       21.807       11.518      815.556      475.544      132.659        0.430        0.071       83.884       13.455        0.026      324.864      -11.254      872.651
12/09/2013  22:03:00     -100.512       -2.296      -17.600       22.549       12.472       16.867      508.437      155.555      284.507        0.568        0.047      100.539       13.320        0.018      324.800      -11.357      872.662
12/09/2013  22:04:00      -95.351       -7.621      -13.230       20.173       19.147       18.315      406.940      366.626      335.455        0.522        0.055       95.655       13.898        0.021      324.808      -11.343      872.683
12/09/2013  22:05:00     -125.051       -4.301      -12.781       26.179       23.303       11.367      685.328      543.027      129.200        0.859        0.068      125.125        9.158        0.005      324.759      -11.423      872.698
12/09/2013  22:06:00     -108.718        1.130      -12.334       25.506       21.073       18.228      650.543      444.089      332.264        0.670        0.071      108.724       10.677        0.010      324.735      -11.461      872.706
12/09/2013  22:07:00      -86.502      -16.685      -11.017       22.833       18.316       20.215      521.354      335.486      408.640        0.457        0.063       88.097       13.200        0.022      324.742      -11.451      872.714
12/09/2013  22:08:00      -92.774       -2.926      -11.695       28.357       15.195       14.657      804.106      230.893      214.840        0.500        0.062       92.820       12.402        0.018      324.747      -11.443      872.728
12/09/2013  22:09:00     -107.040       -9.786      -13.435       24.218       21.104       14.340      586.515      445.385      205.638        0.649        0.062      107.487        9.587        0.008      324.713      -11.497      872.750
12/09/2013  22:10:00     -105.996       -9.740      -16.622       12.145       14.623       13.097      147.505      213.844      171.544        0.607        0.027      106.442        4.332        0.002      324.688      -11.537      872.766
12/09/2013  22:11:00      -90.717       -8.962       -7.084       20.016       18.818       15.112      400.652      354.131      228.381        0.467        0.049       91.159        5.155        0.003      324.704      -11.512      872.771
12/09/2013  22:12:00     -100.258       -3.990       -9.656       31.174       17.436       15.630      971.836      304.011      244.305        0.584        0.076      100.337       15.516        0.024      324.707      -11.506      872.767
12/09/2013  22:13:00      -95.394       -0.382       -7.987       26.504       18.022       17.073      702.470      324.809      291.489        0.524        0.066       95.395       13.891        0.021      324.755      -11.429      872.764
12/09/2013  22:14:00     -102.321       -3.872      -12.560       21.481       14.894       11.703      461.431      221.845      136.967        0.573        0.041      102.394        9.657        0.009      324.728      -11.473      872.758
12/09/2013  22:15:00     -113.069       -7.783      -13.079       14.595       14.752       13.724      213.023      217.623      188.348        0.682        0.031      113.337        5.942        0.003      324.725      -11.477      872.760
12/09/2013  22:16:00     -113.789       -5.763      -11.714       21.150       15.209       16.831      447.340      231.309      283.274        0.704        0.048      113.935       12.335        0.012      324.715      -11.494      872.772
12/09/2013  22:17:00     -127.598      -13.138      -15.031       23.343       16.550       15.196      544.917      273.915      230.913        0.886        0.052      128.273       12.051        0.009      324.652      -11.597      872.783
12/09/2013  22:18:00     -121.168        2.743      -12.309       27.653       27.717       23.710      764.681      768.228      562.165        0.847        0.105      121.199       20.173        0.028      324.621      -11.644      872.786
12/09/2013  22:19:00     -118.383       -9.617      -13.172       24.555       25.161       19.098      602.971      633.091      364.750        0.794        0.080      118.773        9.368        0.006      324.671      -11.564      872.780
12/09/2013  22:20:00     -118.956      -21.444      -11.052       22.273       33.191       22.287      496.072     1101.662      496.693        0.841        0.105      120.873       16.674        0.019      324.680      -11.550      872.781
12/09/2013  22:21:00     -108.596      -18.805       -9.163       27.704       30.346       18.467      767.539      920.852      341.021        0.713        0.101      110.212       10.314        0.009      324.695      -11.526      872.787
12/09/2013  22:22:00     -116.939        2.234      -16.013       27.717       21.577       20.973      768.220      465.564      439.882        0.780        0.084      116.961       16.770        0.021      324.658      -11.584      872.790
12/09/2013  22:23:00      -81.110       -3.181       -3.076       40.994       29.782       20.020     1680.537      886.950      400.794        0.478        0.148       81.172       20.548        0.064      324.658      -11.586      872.787
12/09/2013  22:24:00     -148.115        4.911      -12.391       35.995       27.223       21.040     1295.641      741.098      442.677        1.230        0.124      148.196       18.056        0.015      324.601      -11.677      872.788
12/09/2013  22:25:00     -151.955        1.691      -16.938       39.472       16.974       17.807     1558.062      288.120      317.077        1.277        0.108      151.964       19.745        0.017      324.594      -11.689      872.788
12/09/2013  22:26:00     -140.232       10.029      -18.321       25.575       21.518       22.458      654.069      463.008      504.350        1.086        0.081      140.591       16.133        0.013      324.582      -11.706      872.794
12/09/2013  22:27:00     -138.692        0.728      -11.837       26.475       17.602       20.288      700.946      309.827      411.599        1.040        0.071      138.694       13.841        0.010      324.570      -11.727      872.796
12/09/2013  22:28:00     -151.793       -0.940      -14.702       27.285       20.965       19.580      744.466      439.511      383.389        1.241        0.078      151.796       14.695        0.009      324.547      -11.763      872.806
12/09/2013  22:29:00     -142.971       -6.971       -9.865       35.411       25.967       21.763     1253.920      674.296      473.642        1.149        0.120      143.140       19.560        0.019      324.472      -11.887      872.809
12/09/2013  22:30:00     -112.799      -13.167       -6.032       47.608       28.176       22.593     2266.565      793.872      510.449        0.825        0.179      113.565       24.223        0.045      324.449      -11.923      872.816
12/09/2013  22:31:00      -85.318      -31.259       -1.412       34.666       29.706       17.809     1201.752      882.463      317.178        0.533        0.120       90.864       15.346        0.029      324.501      -11.838      872.812
12/09/2013  22:32:00      -42.334      -26.800        0.212       29.945       33.290       15.504      896.725     1108.225      240.381        0.238        0.112       50.104       13.285        0.070      324.586      -11.703      872.811
12/09/2013  22:33:00     -119.769       -1.740       -8.573       31.646       31.857       28.407     1001.478     1014.891      806.937        0.862        0.141      119.782       24.623        0.042      324.495      -11.847      872.805
12/09/2013  22:34:00     -113.365      -11.658      -11.330       26.568       22.246       18.939      705.841      494.871      358.674        0.734        0.078      113.963        9.740        0.007      324.548      -11.763      872.799
12/09/2013  22:35:00     -125.715      -12.889      -15.099       23.608       17.986       13.728      557.316      323.483      188.468        0.863        0.053      126.374        8.553        0.005      324.575      -11.718      872.803
12/09/2013  22:36:00     -114.863      -13.424      -17.125       20.678       16.103       16.892      427.582      259.308      285.354        0.732        0.049      115.645       11.698        0.010      324.540      -11.775      872.805
12/09/2013  22:37:00     -103.567      -22.141      -11.779       16.069       26.754       11.908      258.206      715.800      141.806        0.624        0.056      105.907        6.764        0.004      324.578      -11.714      872.804
12/09/2013  22:38:00      -85.917       -8.740      -10.057       17.684       14.014       11.443      312.734      196.403      130.944        0.410        0.032       86.360        4.535        0.003      324.584      -11.705      872.802
12/09/2013  22:39:00     -100.548       -9.169       -8.368       15.533       15.413       11.338      241.264      237.562      128.551        0.544        0.030      100.965        5.928        0.003      324.573      -11.723      872.795
12/09/2013  22:40:00      -83.999      -18.588       -9.450       12.664       12.754        9.169      160.377      162.674       84.071        0.395        0.020       86.031        5.993        0.005      324.604      -11.672      872.795
12/09/2013  22:41:00     -109.337       -9.131      -14.682       18.531       13.265       12.867      343.414      175.969      165.558        0.647        0.034      109.717        7.387        0.005      324.599      -11.680      872.805
12/09/2013  22:42:00     -102.132       -4.844      -13.019       15.014       14.771       13.854      225.430      218.179      191.937        0.563        0.032      102.247        6.568        0.004      324.600      -11.679      872.806
12/09/2013  22:43:00      -83.715      -13.630       -7.840       18.541       14.473       13.923      343.756      209.462      193.858        0.400        0.037       84.817       10.856        0.016      324.615      -11.654      872.803
12/09/2013  22:44:00      -68.177      -19.645      -10.762       10.552       12.321        9.107      111.349      151.801       82.936        0.275        0.017       70.951        3.194        0.002      324.610      -11.662      872.785
12/09/2013  22:45:00      -69.908       -7.973      -14.057       13.475       10.245       10.312      181.573      104.968      106.335        0.277        0.020       70.362        5.990        0.007      324.638      -11.618      872.771
12/09/2013  22:46:00      -86.559       -8.645      -12.149       13.145       15.127       12.949      172.782      228.815      167.684        0.414        0.028       86.990        8.880        0.010      324.658      -11.585      872.769
12/09/2013  22:47:00      -95.468       -5.565      -15.958       16.504       17.616       13.316      272.385      310.323      177.306        0.508        0.038       95.630        8.286        0.008      324.590      -11.696      872.764
12/09/2013  22:48:00     -114.976       -1.690      -19.265       20.937       12.797       11.601      438.377      163.759      134.575        0.716        0.037      114.989        6.728        0.003      324.513      -11.819      872.759
12/09/2013  22:49:00     -117.102        4.651      -18.012       31.078       13.520       16.338      965.833      182.781      266.945        0.774        0.071      117.194        7.982        0.005      324.461      -11.902      872.757
12/09/2013  22:50:00     -123.071      -11.809      -15.837       19.972       14.436       16.028      398.884      208.402      256.896        0.820        0.043      123.636        5.982        0.002      324.457      -11.909      872.755
12/09/2013  22:51:00     -136.161      -15.311      -15.684       11.980       15.871       11.331      143.509      251.883      128.400        0.977        0.026      137.019        4.512        0.001      324.435      -11.946      872.747
12/09/2013  22:52:00     -126.712       -3.970      -15.605       15.762       14.858       14.088      248.452      220.746      198.463        0.849        0.033      126.774        8.675        0.005      324.416      -11.975      872.744
12/09/2013  22:53:00     -109.665      -12.687      -13.566       23.394       15.040       13.770      547.274      226.214      189.623        0.667        0.048      110.397        9.527        0.007      324.422      -11.965      872.743
12/09/2013  22:54:00     -122.021       -4.229      -10.564       23.229       21.697       16.520      539.569      470.755      272.894        0.815        0.064      122.094       11.291        0.009      324.431      -11.951      872.745
12/09/2013  22:55:00     -111.354       11.654      -13.209       24.083       18.063       20.070      579.981      326.255      402.807        0.701        0.065      111.962       12.678        0.013      324.435      -11.945      872.742
12/09/2013  22:56:00     -107.967       -9.886      -15.838       22.594       19.491       13.856      510.477      379.907      191.980        0.654        0.054      108.418        8.142        0.006      324.419      -11.971      872.747
12/09/2013  22:57:00     -128.585       -5.483      -16.977       14.482       20.396       13.843      209.733      416.012      191.617        0.883        0.041      128.701        5.628        0.002      324.420      -11.968      872.750
12/09/2013  22:58:00     -127.850       -7.378      -15.921       20.464       12.714       13.945      418.786      161.643      194.462        0.871        0.039      128.063        4.609        0.001      324.379      -12.035      872.773
12/09/2013  22:59:00      -99.124      -29.117      -10.449       34.315       18.665       13.347     1177.540      348.384      178.146        0.624        0.085      103.312        9.715        0.009      324.429      -11.955      872.790
12/09/2013  23:00:00      -76.613       -6.309       -9.402       24.128       19.033       17.598      582.142      362.258      309.687        0.363        0.063       76.873       11.833        0.024      324.424      -11.962      872.810
12/09/2013  23:01:00      -90.847       -6.946       -8.290       23.033       15.133       14.164      530.525      229.015      200.630        0.466        0.048       91.112       10.966        0.014      324.363      -12.060      872.818
12/09/2013  23:02:00      -95.599      -13.115       -8.573       11.004       14.673       11.412      121.080      215.310      130.238        0.493        0.023       96.494        3.499        0.001      324.335      -12.107      872.815
12/09/2013  23:03:00      -79.280      -21.077       -7.636       14.237       13.250       11.204      202.687      175.575      125.537        0.365        0.025       82.034        7.933        0.009      324.397      -12.007      872.801
12/09/2013  23:04:00      -70.524      -15.111      -10.547        8.264       11.254        9.010       68.286      126.648       81.181        0.279        0.014       72.124        5.352        0.006      324.439      -11.938      872.784
12/09/2013  23:05:00      -80.120      -15.874      -14.226       10.247        9.995        8.449      105.004       99.895       71.387        0.357        0.014       81.677        4.664        0.003      324.439      -11.940      872.781
12/09/2013  23:06:00      -75.524      -16.360      -12.666       12.829       12.050        9.658      164.582      145.209       93.280        0.327        0.020       77.275        1.940        0.001      324.510      -11.823      872.779
12/09/2013  23:07:00      -64.983      -12.318      -11.829       13.895       12.796       10.061      193.065      163.737      101.229        0.249        0.023       66.140        4.818        0.005      324.486      -11.863      872.781
12/09/2013  23:08:00      -77.693      -13.069      -17.421        9.217       11.519        9.309       84.945      132.679       86.659        0.341        0.015       78.784        6.459        0.007      324.446      -11.927      872.771
12/09/2013  23:09:00      -80.166      -12.341      -14.788       16.625       15.765       12.072      276.383      248.532      145.729        0.373        0.034       81.110        7.956        0.010      324.436      -11.943      872.768
12/09/2013  23:10:00      -80.899       -9.490       -9.635       19.955       15.075        9.776      398.182      227.242       95.571        0.372        0.036       81.453        7.195        0.008      324.384      -12.027      872.754
12/09/2013  23:11:00     -105.163       -2.948       -8.687       12.933       12.899       13.600      167.262      166.374      184.947        0.583        0.026      105.204        6.786        0.004      324.400      -12.001      872.748
12/09/2013  23:12:00     -102.815      -17.652      -16.488       14.521       16.678       10.799      210.870      278.142      116.618        0.588        0.030      104.319        8.362        0.006      324.406      -11.993      872.745
12/09/2013  23:13:00      -86.683        1.716      -14.488       20.934       11.425       12.279      438.232      130.523      150.769        0.422        0.036       86.700        8.673        0.010      324.394      -12.010      872.749
12/09/2013  23:14:00      -85.833        2.504      -12.548       13.398       16.438       12.801      179.516      270.202      163.864        0.407        0.031       85.870       10.712        0.016      324.367      -12.056      872.739
12/09/2013  23:15:00      -68.418      -25.175      -12.689       24.211       22.936       14.142      586.180      526.040      199.982        0.339        0.066       72.903        8.919        0.015      324.481      -11.872      872.735
12/09/2013  23:16:00      -85.632       -3.642       -7.035       17.669       24.940       16.435      312.198      622.027      270.104        0.430        0.060       85.709        6.154        0.005      324.442      -11.934      872.724
12/09/2013  23:17:00      -90.146        2.596      -14.676       15.331       14.115       14.117      235.052      199.230      199.285        0.449        0.032       90.183        9.417        0.011      324.364      -12.059      872.710
12/09/2013  23:18:00      -99.424      -15.618      -13.661       16.824       18.258       12.917      283.048      333.341      166.853        0.555        0.039      100.643        6.041        0.004      324.411      -11.983      872.706
12/09/2013  23:19:00      -96.564      -14.673       -8.367       22.579       17.237       15.510      509.826      297.121      240.567        0.533        0.052       97.673       14.026        0.021      324.425      -11.961      872.701
12/09/2013  23:20:00      -83.752      -17.663      -13.154       17.255       15.614       11.789      297.730      243.783      138.973        0.409        0.034       85.594        8.303        0.009      324.426      -11.960      872.697
12/09/2013  23:21:00      -86.508      -16.607       -9.671       11.374       18.216        8.185      129.374      331.836       66.994        0.419        0.026       88.088        5.343        0.004      324.448      -11.924      872.684
12/09/2013  23:22:00      -75.513      -17.934       -2.628       16.922       17.683       14.284      286.360      312.690      204.030        0.342        0.040       77.614       10.780        0.019      324.452      -11.917      872.685
12/09/2013  23:23:00      -98.080       -5.360       -7.771       24.054       24.140       18.915      578.597      582.750      357.777        0.561        0.076       98.226       15.092        0.024      324.415      -11.976      872.689
12/09/2013  23:24:00     -128.673        5.685       -9.102       27.572       18.416       17.115      760.212      339.150      292.934        0.903        0.070      128.798       12.926        0.010      324.339      -12.100      872.702
12/09/2013  23:25:00     -131.192        1.967       -9.235       37.337       21.027       21.121     1394.083      442.155      446.116        0.979        0.114      131.207       22.266        0.029      324.327      -12.118      872.708
12/09/2013  23:26:00     -154.020       -3.955      -13.732       26.081       20.352       16.698      680.230      414.206      278.827        1.265        0.069      154.071       14.946        0.009      324.316      -12.136      872.713
12/09/2013  23:27:00     -116.247       -6.348       -7.565       44.942       19.873       21.305     2019.761      394.951      453.888        0.824        0.143      116.420       24.370        0.044      324.260      -12.227      872.700
12/09/2013  23:28:00     -113.384       -3.602       -3.089       36.058       23.128       22.811     1300.196      534.926      520.362        0.762        0.118      113.441       20.015        0.031      324.294      -12.171      872.683
12/09/2013  23:29:00     -103.127      -16.490       -8.579       29.888       27.862       18.937      893.302      776.276      358.615        0.650        0.101      104.437       13.944        0.018      324.298      -12.164      872.659
12/09/2013  23:30:00     -121.356      -15.641      -13.848       24.209       24.040       17.330      586.071      577.901      300.316        0.831        0.073      122.360        7.086        0.003      324.306      -12.153      872.641
12/09/2013  23:31:00     -116.268      -13.761      -12.089       23.330       27.907       17.779      544.306      778.818      316.100        0.775        0.082      117.079       13.196        0.013      324.312      -12.143      872.594
12/09/2013  23:32:00     -102.871      -19.802      -10.461       14.002       21.231       14.839      196.055      450.767      220.198        0.598        0.043      104.759       10.161        0.009      324.397      -12.006      872.564
12/09/2013  23:33:00     -112.150       -9.386      -13.645       13.738       15.120       17.315      188.721      228.619      299.822        0.678        0.036      112.542       10.978        0.010      324.328      -12.117      872.549
12/09/2013  23:34:00      -91.927       -2.996        2.618       23.518       19.921       15.897      553.079      396.862      252.721        0.483        0.060       91.975       12.025        0.017      324.345      -12.089      872.533
12/09/2013  23:35:00     -106.864      -46.726      -12.671       19.552       22.591       11.664      382.271      510.357      136.042        0.740        0.051      116.633        3.212        0.001      324.358      -12.068      872.511
12/09/2013  23:36:00     -107.360      -29.790       -2.600       24.930       25.356       15.866      621.520      642.933      251.720        0.697        0.076      111.416       12.776        0.013      324.379      -12.035      872.497
12/09/2013  23:37:00     -109.733      -20.690       -7.411       29.619       26.516       17.471      877.310      703.105      305.235        0.720        0.094      111.667       15.064        0.018      324.403      -11.996      872.483
12/09/2013  23:38:00     -126.656       -1.682      -11.398       25.950       16.128       16.896      673.420      260.127      285.471        0.870        0.061      126.667       15.024        0.014      324.347      -12.087      872.469
12/09/2013  23:39:00     -134.231        3.156      -17.337       20.721       16.443       14.138      429.345      270.384      199.872        0.961        0.045      134.268       10.909        0.007      324.257      -12.230      872.458
12/09/2013  23:40:00     -104.678       -3.277       -9.985       41.400       25.083       23.104     1713.924      629.172      533.798        0.697        0.144      104.729       23.948        0.052      324.256      -12.233      872.453
12/09/2013  23:41:00     -132.421        6.921      -12.506       41.505       30.305       27.957     1722.694      918.417      781.574        1.058        0.171      132.602       27.405        0.043      324.204      -12.317      872.457
12/09/2013  23:42:00     -134.848        2.767      -17.591       35.243       24.499       21.089     1242.085      600.204      444.755        1.039        0.114      134.877       18.746        0.019      324.181      -12.353      872.451
12/09/2013  23:43:00     -117.860      -18.202       -4.724       35.722       28.765       17.231     1276.053      827.420      296.899        0.832        0.120      119.258       15.435        0.017      324.212      -12.302      872.458
12/09/2013  23:44:00     -114.500      -12.449       -8.021       39.013       20.331       20.378     1522.011      413.334      415.266        0.784        0.118      115.175       22.814        0.039      324.167      -12.376      872.454
12/09/2013  23:45:00      -94.131      -14.923       -3.015       40.474       26.040       15.625     1638.129      678.078      244.154        0.583        0.128       95.306       18.364        0.037      324.165      -12.380      872.454
12/09/2013  23:46:00     -103.444      -12.314      -11.512       23.465       19.512       15.817      550.608      380.700      250.171        0.608        0.059      104.175       12.423        0.014      324.234      -12.267      872.450
12/09/2013  23:47:00      -96.967       -3.130       -5.193       27.394       30.249       17.888      750.448      915.007      319.971        0.571        0.099       97.017       15.731        0.026      324.209      -12.309      872.444
12/09/2013  23:48:00     -105.286      -20.678      -11.146       21.025       24.165       14.731      442.071      583.948      217.001        0.644        0.062      107.298       11.263        0.011      324.080      -12.516      872.433
12/09/2013  23:49:00     -102.139       -3.264      -13.056       18.689       14.301       10.112      349.280      204.515      102.243        0.563        0.033      102.191        5.967        0.003      324.076      -12.523      872.422
12/09/2013  23:50:00      -91.127        1.782       -1.741       16.074       16.662       13.088      258.364      277.629      171.296        0.451        0.035       91.144        8.169        0.008      324.107      -12.473      872.401
12/09/2013  23:51:00      -77.465       -0.013      -13.417       11.668       13.485       12.120      136.131      181.851      146.904        0.332        0.023       77.465        4.478        0.003      324.085      -12.508      872.401
12/09/2013  23:52:00     -105.966        0.020      -16.002       17.017       12.779       10.665      289.589      163.314      113.742        0.603        0.028      105.966        4.371        0.002      324.067      -12.536      872.406
12/09/2013  23:53:00     -105.873       -4.496      -15.978       15.127        9.566        9.159      228.820       91.507       83.888        0.594        0.020      105.969        4.907        0.002      324.047      -12.568      872.423
12/09/2013  23:54:00      -74.807       -4.586       -6.743       14.510       10.240       11.358      210.554      104.865      129.012        0.305        0.022       74.947        6.922        0.009      324.102      -12.480      872.444
12/09/2013  23:55:00      -47.373       -5.469       -5.612        7.339       10.776        7.864       53.858      116.114       61.845        0.127        0.012       47.688        3.499        0.005      324.279      -12.194      872.453
12/09/2013  23:56:00      -26.894      -10.630       -6.806       12.998       11.550        8.233      168.959      133.393       67.776        0.063        0.019       28.919        3.133        0.012      324.426      -11.960      872.454
12/09/2013  23:57:00      -32.813       -5.836       -3.471       10.744       10.719       10.099      115.443      114.899      101.987        0.073        0.017       33.328        5.390        0.026      324.316      -12.137      872.450
12/09/2013  23:58:00      -24.265      -21.747       -8.550       15.390       11.706        9.174      236.856      137.027       84.167        0.080        0.023       32.584        2.974        0.008      324.464      -11.899      872.453
12/09/2013  23:59:00      -35.478      -12.262        0.895        8.939        7.459        7.210       79.900       55.630       51.983        0.080        0.009       37.537        3.665        0.010      324.260      -12.224      872.446
